Time,TemperatureF,DewpointF,PressureIn,WindDirection,WindDirectionDegrees,WindSpeedMPH,WindSpeedGustMPH,Humidity,HourlyPrecipIn,Conditions,Clouds,dailyrainin,SolarRadiationWatts/m^2,SoftwareType,DateUTC
2013-04-21 00:00:00,71.9,20.2,29.38,West,280,3.1,4.6,14,-99.99,,,0.00,0,rob ver 1B,2013-04-21 07:00:00,
2013-04-21 00:01:00,71.9,20.3,29.38,West,275,3.2,4.0,14,-99.99,,,0.00,0,rob ver 1B,2013-04-21 07:01:00,
2013-04-21 00:02:00,71.9,20.3,29.38,WNW,282,2.8,3.4,14,-99.99,,,0.00,0,rob ver 1B,2013-04-21 07:02:00,
2013-04-21 00:03:00,72.0,20.4,29.38,WNW,289,2.6,3.3,14,-99.99,,,0.00,0,rob ver 1B,2013-04-21 07:03:00,
2013-04-21 00:04:00,74.0,26.1,29.41,ESE,103,2.4,3.0,17,-99.99,,,0.00,0,rob ver 1A,2013-04-21 07:04:00,
2013-04-21 00:05:00,72.1,20.3,29.38,West,267,2.1,2.8,13,-99.99,,,0.00,0,rob ver 1B,2013-04-21 07:05:00,
2013-04-21 00:06:00,72.2,20.3,29.38,West,267,2.5,3.8,13,-99.99,,,0.00,0,rob ver 1B,2013-04-21 07:06:00,
2013-04-21 00:07:00,72.4,20.3,29.38,West,269,2.6,3.6,13,-99.99,,,0.00,0,rob ver 1B,2013-04-21 07:07:00,
2013-04-21 00:08:00,72.4,20.3,29.38,WNW,282,2.5,3.7,13,-99.99,,,0.00,0,rob ver 1B,2013-04-21 07:08:00,
2013-04-21 00:09:00,71.0,25.2,29.41,ESE,118,4.4,4.9,18,-99.99,,,0.00,0,rob ver 1A,2013-04-21 07:09:00,
2013-04-21 00:10:00,72.6,20.4,29.38,WNW,284,2.5,3.5,13,-99.99,,,0.00,0,rob ver 1B,2013-04-21 07:10:00,
2013-04-21 00:11:00,72.6,20.4,29.38,WNW,289,2.7,3.4,13,-99.99,,,0.00,0,rob ver 1B,2013-04-21 07:11:00,
2013-04-21 00:12:00,72.7,20.3,29.38,WNW,285,3.0,4.4,13,-99.99,,,0.00,0,rob ver 1B,2013-04-21 07:12:00,
2013-04-21 00:13:00,72.7,20.3,29.38,WNW,282,3.0,4.5,13,-99.99,,,0.00,0,rob ver 1B,2013-04-21 07:13:00,
2013-04-21 00:14:00,73.1,27.2,29.41,ESE,104,3.5,4.0,17,-99.99,,,0.00,0,rob ver 1A,2013-04-21 07:14:00,
2013-04-21 00:15:00,72.6,20.3,29.38,WNW,290,2.8,4.1,13,-99.99,,,0.00,0,rob ver 1B,2013-04-21 07:15:00,
2013-04-21 00:16:00,72.6,20.3,29.38,WNW,288,2.7,3.7,13,-99.99,,,0.00,0,rob ver 1B,2013-04-21 07:16:00,
2013-04-21 00:17:00,72.6,20.2,29.38,WNW,282,2.5,3.4,13,-99.99,,,0.00,0,rob ver 1B,2013-04-21 07:17:00,
2013-04-21 00:18:00,72.6,20.2,29.38,West,264,2.5,3.2,13,-99.99,,,0.00,0,rob ver 1B,2013-04-21 07:18:00,
2013-04-21 00:19:00,73.1,27.0,29.41,ENE,70,2.2,2.6,18,-99.99,,,0.00,0,rob ver 1A,2013-04-21 07:19:00,
2013-04-21 00:20:00,72.6,20.1,29.38,WSW,257,2.1,3.0,13,-99.99,,,0.00,0,rob ver 1B,2013-04-21 07:20:00,
2013-04-21 00:21:00,72.6,20.1,29.38,West,264,2.7,3.8,13,-99.99,,,0.00,0,rob ver 1B,2013-04-21 07:21:00,
2013-04-21 00:22:00,72.6,20.1,29.38,West,264,2.7,4.2,13,-99.99,,,0.00,0,rob ver 1B,2013-04-21 07:22:00,
2013-04-21 00:23:00,72.5,20.2,29.38,WSW,258,2.9,4.2,13,-99.99,,,0.00,0,rob ver 1B,2013-04-21 07:23:00,
2013-04-21 00:24:00,74.3,27.4,29.41,ENE,65,2.2,2.6,17,-99.99,,,0.00,0,rob ver 1A,2013-04-21 07:24:00,
2013-04-21 00:25:00,72.7,20.3,29.38,WSW,248,3.5,4.8,13,-99.99,,,0.00,0,rob ver 1B,2013-04-21 07:25:00,
2013-04-21 00:26:00,72.8,20.3,29.38,WSW,244,3.7,5.0,13,-99.99,,,0.00,0,rob ver 1B,2013-04-21 07:26:00,
2013-04-21 00:27:00,72.8,20.4,29.38,WSW,243,3.9,6.5,13,-99.99,,,0.00,0,rob ver 1B,2013-04-21 07:27:00,
2013-04-21 00:28:00,72.8,20.4,29.38,WSW,245,3.5,5.1,13,-99.99,,,0.00,0,rob ver 1B,2013-04-21 07:28:00,
2013-04-21 00:29:00,74.8,27.7,29.41,East,95,2.2,4.7,17,-99.99,,,0.00,0,rob ver 1A,2013-04-21 07:29:00,
2013-04-21 00:30:00,72.7,20.4,29.38,WSW,250,3.7,4.7,13,-99.99,,,0.00,0,rob ver 1B,2013-04-21 07:30:00,
2013-04-21 00:31:00,72.7,20.3,29.38,WSW,257,3.1,4.9,13,-99.99,,,0.00,0,rob ver 1B,2013-04-21 07:31:00,
2013-04-21 00:32:00,72.6,20.3,29.38,West,281,2.7,3.8,13,-99.99,,,0.00,0,rob ver 1B,2013-04-21 07:32:00,
2013-04-21 00:33:00,72.5,20.2,29.38,WNW,293,3.0,3.6,13,-99.99,,,0.00,0,rob ver 1B,2013-04-21 07:33:00,
2013-04-21 00:34:00,74.4,27.5,29.41,NE,56,1.5,2.0,17,-99.99,,,0.00,0,rob ver 1A,2013-04-21 07:34:00,
2013-04-21 00:35:00,72.3,20.2,29.38,WNW,296,2.9,3.6,13,-99.99,,,0.00,0,rob ver 1B,2013-04-21 07:35:00,
2013-04-21 00:36:00,72.3,20.3,29.38,NW,313,3.0,3.9,13,-99.99,,,0.00,0,rob ver 1B,2013-04-21 07:36:00,
2013-04-21 00:37:00,72.2,20.3,29.38,NW,313,3.2,4.0,13,-99.99,,,0.00,0,rob ver 1B,2013-04-21 07:37:00,
2013-04-21 00:38:00,72.2,20.2,29.38,NW,312,4.1,4.8,14,-99.99,,,0.00,0,rob ver 1B,2013-04-21 07:38:00,
2013-04-21 00:39:00,74.9,28.1,29.41,ESE,113,2.0,2.4,17,-99.99,,,0.00,0,rob ver 1A,2013-04-21 07:39:00,
2013-04-21 00:40:00,71.9,20.1,29.38,NW,318,3.3,3.9,14,-99.99,,,0.00,0,rob ver 1B,2013-04-21 07:40:00,
2013-04-21 00:41:00,71.8,20.1,29.38,NW,318,3.5,4.7,14,-99.99,,,0.00,0,rob ver 1B,2013-04-21 07:41:00,
2013-04-21 00:42:00,71.7,20.2,29.38,NNW,327,4.1,4.9,14,-99.99,,,0.00,0,rob ver 1B,2013-04-21 07:42:00,
2013-04-21 00:43:00,71.8,20.2,29.38,NNW,327,3.7,4.6,14,-99.99,,,0.00,0,rob ver 1B,2013-04-21 07:43:00,
2013-04-21 00:44:00,71.9,20.2,29.38,NNW,333,3.9,4.8,13,-99.99,,,0.00,0,rob ver 1B,2013-04-21 07:44:00,
2013-04-21 00:45:00,74.8,28.0,29.41,SE,136,2.1,2.9,17,-99.99,,,0.00,0,rob ver 1A,2013-04-21 07:45:00,
2013-04-21 00:46:00,72.1,20.2,29.38,NW,325,4.7,5.6,14,-99.99,,,0.00,0,rob ver 1B,2013-04-21 07:46:00,
2013-04-21 00:47:00,72.1,20.3,29.38,NW,318,3.7,5.0,14,-99.99,,,0.00,0,rob ver 1B,2013-04-21 07:47:00,
2013-04-21 00:48:00,72.2,20.3,29.38,NW,323,4.1,4.9,13,-99.99,,,0.00,0,rob ver 1B,2013-04-21 07:48:00,
2013-04-21 00:49:00,72.2,20.4,29.38,NNW,339,5.4,6.4,13,-99.99,,,0.00,0,rob ver 1B,2013-04-21 07:49:00,
2013-04-21 00:50:00,74.5,28.0,29.41,SSE,166,1.3,2.0,17,-99.99,,,0.00,0,rob ver 1A,2013-04-21 07:50:00,
2013-04-21 00:51:00,72.4,20.3,29.38,NNW,331,5.4,7.7,13,-99.99,,,0.00,0,rob ver 1B,2013-04-21 07:51:00,
2013-04-21 00:52:00,72.6,20.3,29.38,NNW,331,3.6,6.2,13,-99.99,,,0.00,0,rob ver 1B,2013-04-21 07:52:00,
2013-04-21 00:53:00,72.9,20.3,29.38,NNW,331,4.0,8.5,13,-99.99,,,0.00,0,rob ver 1B,2013-04-21 07:53:00,
2013-04-21 00:54:00,73.3,20.5,29.38,West,275,2.6,8.1,13,-99.99,,,0.00,0,rob ver 1B,2013-04-21 07:54:00,
2013-04-21 00:55:00,74.4,27.2,29.41,SSE,163,4.4,6.0,16,-99.99,,,0.00,0,rob ver 1A,2013-04-21 07:55:00,
2013-04-21 00:56:00,73.7,20.2,29.38,North,360,4.6,7.7,13,-99.99,,,0.00,0,rob ver 1B,2013-04-21 07:56:00,
2013-04-21 00:57:00,74.0,20.2,29.38,North,356,4.6,6.6,13,-99.99,,,0.00,0,rob ver 1B,2013-04-21 07:57:00,
2013-04-21 00:58:00,74.2,20.1,29.38,NNE,13,4.0,6.0,12,-99.99,,,0.00,0,rob ver 1B,2013-04-21 07:58:00,
2013-04-21 00:59:00,74.4,20.0,29.38,NE,49,2.9,4.6,12,-99.99,,,0.00,0,rob ver 1B,2013-04-21 07:59:00,
2013-04-21 01:00:00,74.2,26.5,29.41,SSE,162,4.0,4.8,16,-99.99,,,0.00,0,rob ver 1A,2013-04-21 08:00:00,
2013-04-21 01:01:00,74.8,19.8,29.38,NW,319,3.9,6.4,12,-99.99,,,0.00,0,rob ver 1B,2013-04-21 08:01:00,
2013-04-21 01:02:00,75.0,20.2,29.38,West,271,3.3,7.0,12,-99.99,,,0.00,0,rob ver 1B,2013-04-21 08:02:00,
2013-04-21 01:03:00,75.1,19.9,29.38,SSW,203,3.4,8.7,12,-99.99,,,0.00,0,rob ver 1B,2013-04-21 08:03:00,
2013-04-21 01:04:00,75.2,20.1,29.38,South,190,5.9,9.6,12,-99.99,,,0.00,0,rob ver 1B,2013-04-21 08:04:00,
2013-04-21 01:05:00,73.6,25.2,29.41,South,170,5.5,6.4,16,-99.99,,,0.00,0,rob ver 1A,2013-04-21 08:05:00,
2013-04-21 01:06:00,75.5,19.3,29.38,South,183,4.8,6.5,12,-99.99,,,0.00,0,rob ver 1B,2013-04-21 08:06:00,
2013-04-21 01:07:00,75.5,19.8,29.38,SW,226,5.6,7.4,12,-99.99,,,0.00,0,rob ver 1B,2013-04-21 08:07:00,
2013-04-21 01:08:00,75.5,19.3,29.38,SW,227,5.8,8.8,11,-99.99,,,0.00,0,rob ver 1B,2013-04-21 08:08:00,
2013-04-21 01:09:00,75.7,19.2,29.38,WSW,249,7.0,8.9,11,-99.99,,,0.00,0,rob ver 1B,2013-04-21 08:09:00,
2013-04-21 01:10:00,73.5,24.7,29.41,SSE,161,4.9,5.3,16,-99.99,,,0.00,0,rob ver 1A,2013-04-21 08:10:00,
2013-04-21 01:11:00,75.5,19.4,29.38,SW,222,7.3,9.1,12,-99.99,,,0.00,0,rob ver 1B,2013-04-21 08:11:00,
2013-04-21 01:12:00,75.4,19.5,29.38,WSW,238,5.6,8.0,12,-99.99,,,0.00,0,rob ver 1B,2013-04-21 08:12:00,
2013-04-21 01:13:00,75.0,19.6,29.38,WSW,246,4.5,6.2,12,-99.99,,,0.00,0,rob ver 1B,2013-04-21 08:13:00,
2013-04-21 01:14:00,74.6,19.5,29.38,WSW,247,3.6,5.8,12,-99.99,,,0.00,0,rob ver 1B,2013-04-21 08:14:00,
2013-04-21 01:15:00,73.1,24.4,29.41,South,169,4.1,4.4,16,-99.99,,,0.00,0,rob ver 1A,2013-04-21 08:15:00,
2013-04-21 01:16:00,74.1,19.6,29.38,SW,229,5.3,6.8,12,-99.99,,,0.00,0,rob ver 1B,2013-04-21 08:16:00,
2013-04-21 01:17:00,73.9,20.1,29.38,West,261,3.3,4.7,13,-99.99,,,0.00,0,rob ver 1B,2013-04-21 08:17:00,
2013-04-21 01:18:00,73.7,20.0,29.38,SW,230,2.7,4.9,12,-99.99,,,0.00,0,rob ver 1B,2013-04-21 08:18:00,
2013-04-21 01:19:00,73.4,19.6,29.38,WSW,240,3.1,4.0,13,-99.99,,,0.00,0,rob ver 1B,2013-04-21 08:19:00,
2013-04-21 01:20:00,72.7,24.3,29.41,SSE,163,2.8,3.0,16,-99.99,,,0.00,0,rob ver 1A,2013-04-21 08:20:00,
2013-04-21 01:21:00,73.1,19.5,29.38,West,268,2.6,3.9,13,-99.99,,,0.00,0,rob ver 1B,2013-04-21 08:21:00,
2013-04-21 01:22:00,73.0,19.6,29.38,West,273,1.9,2.5,13,-99.99,,,0.00,0,rob ver 1B,2013-04-21 08:22:00,
2013-04-21 01:23:00,73.0,19.7,29.38,West,267,1.7,2.0,13,-99.99,,,0.00,0,rob ver 1B,2013-04-21 08:23:00,
2013-04-21 01:24:00,72.9,19.7,29.38,West,269,2.0,3.0,13,-99.99,,,0.00,0,rob ver 1B,2013-04-21 08:24:00,
2013-04-21 01:25:00,72.9,24.0,29.41,SSE,160,1.8,1.9,15,-99.99,,,0.00,0,rob ver 1A,2013-04-21 08:25:00,
2013-04-21 01:26:00,72.9,19.8,29.38,West,278,1.4,1.9,13,-99.99,,,0.00,0,rob ver 1B,2013-04-21 08:26:00,
2013-04-21 01:27:00,72.8,19.8,29.38,WNW,282,2.2,2.8,13,-99.99,,,0.00,0,rob ver 1B,2013-04-21 08:27:00,
2013-04-21 01:28:00,72.8,19.8,29.38,WSW,258,2.5,3.0,13,-99.99,,,0.00,0,rob ver 1B,2013-04-21 08:28:00,
2013-04-21 01:29:00,72.9,19.8,29.38,West,265,2.2,2.8,13,-99.99,,,0.00,0,rob ver 1B,2013-04-21 08:29:00,
2013-04-21 01:30:00,73.5,24.1,29.41,ESE,108,1.3,1.6,15,-99.99,,,0.00,0,rob ver 1A,2013-04-21 08:30:00,
2013-04-21 01:31:00,72.8,19.8,29.38,NW,306,3.0,4.0,13,-99.99,,,0.00,0,rob ver 1B,2013-04-21 08:31:00,
2013-04-21 01:32:00,72.6,19.8,29.38,West,277,3.3,4.3,13,-99.99,,,0.00,0,rob ver 1B,2013-04-21 08:32:00,
2013-04-21 01:33:00,72.8,19.9,29.38,WNW,294,3.8,4.4,13,-99.99,,,0.00,0,rob ver 1B,2013-04-21 08:33:00,
2013-04-21 01:34:00,72.9,19.9,29.35,WNW,289,3.2,3.6,13,-99.99,,,0.00,0,rob ver 1B,2013-04-21 08:34:00,
2013-04-21 01:35:00,73.5,23.6,29.41,ENE,62,3.1,3.9,15,-99.99,,,0.00,0,rob ver 1A,2013-04-21 08:35:00,
2013-04-21 01:36:00,72.8,19.7,29.35,NW,307,3.3,4.0,13,-99.99,,,0.00,0,rob ver 1B,2013-04-21 08:36:00,
2013-04-21 01:37:00,72.6,19.8,29.35,WNW,291,3.0,3.6,13,-99.99,,,0.00,0,rob ver 1B,2013-04-21 08:37:00,
2013-04-21 01:38:00,72.6,19.8,29.35,WNW,292,3.4,4.3,13,-99.99,,,0.00,0,rob ver 1B,2013-04-21 08:38:00,
2013-04-21 01:39:00,72.7,19.9,29.35,WNW,300,3.3,3.7,13,-99.99,,,0.00,0,rob ver 1B,2013-04-21 08:39:00,
2013-04-21 01:40:00,70.1,23.6,29.41,NE,48,4.2,6.0,17,-99.99,,,0.00,0,rob ver 1A,2013-04-21 08:40:00,
2013-04-21 01:41:00,72.8,19.8,29.35,WNW,290,3.5,3.8,13,-99.99,,,0.00,0,rob ver 1B,2013-04-21 08:41:00,
2013-04-21 01:42:00,72.6,19.7,29.35,West,281,3.9,4.6,13,-99.99,,,0.00,0,rob ver 1B,2013-04-21 08:42:00,
2013-04-21 01:43:00,72.6,19.6,29.35,West,275,3.8,4.7,13,-99.99,,,0.00,0,rob ver 1B,2013-04-21 08:43:00,
2013-04-21 01:44:00,72.7,19.6,29.35,WNW,283,3.3,3.6,13,-99.99,,,0.00,0,rob ver 1B,2013-04-21 08:44:00,
2013-04-21 01:45:00,69.5,24.0,29.41,NE,47,4.0,4.7,17,-99.99,,,0.00,0,rob ver 1A,2013-04-21 08:45:00,
2013-04-21 01:46:00,72.3,19.4,29.35,WNW,285,3.3,3.8,13,-99.99,,,0.00,0,rob ver 1B,2013-04-21 08:46:00,
2013-04-21 01:47:00,72.0,19.3,29.35,WNW,301,3.1,4.1,13,-99.99,,,0.00,0,rob ver 1B,2013-04-21 08:47:00,
2013-04-21 01:48:00,72.1,19.4,29.35,WNW,301,2.1,2.8,13,-99.99,,,0.00,0,rob ver 1B,2013-04-21 08:48:00,
2013-04-21 01:49:00,72.1,19.4,29.35,NW,324,2.0,2.5,13,-99.99,,,0.00,0,rob ver 1B,2013-04-21 08:49:00,
2013-04-21 01:50:00,71.1,23.7,29.41,ENE,72,3.1,4.3,16,-99.99,,,0.00,0,rob ver 1A,2013-04-21 08:50:00,
2013-04-21 01:51:00,71.8,19.5,29.35,NW,320,3.1,3.6,13,-99.99,,,0.00,0,rob ver 1B,2013-04-21 08:51:00,
2013-04-21 01:52:00,71.7,19.4,29.35,NW,314,3.1,4.0,13,-99.99,,,0.00,0,rob ver 1B,2013-04-21 08:52:00,
2013-04-21 01:53:00,71.7,19.4,29.35,NW,306,3.7,4.2,13,-99.99,,,0.00,0,rob ver 1B,2013-04-21 08:53:00,
2013-04-21 01:54:00,71.7,19.3,29.35,NW,305,4.2,5.2,13,-99.99,,,0.00,0,rob ver 1B,2013-04-21 08:54:00,
2013-04-21 01:55:00,72.9,23.1,29.38,East,95,1.9,2.8,15,-99.99,,,0.00,0,rob ver 1A,2013-04-21 08:55:00,
2013-04-21 01:56:00,72.1,19.4,29.35,WNW,285,4.6,5.1,13,-99.99,,,0.00,0,rob ver 1B,2013-04-21 08:56:00,
2013-04-21 01:57:00,72.4,19.1,29.35,West,276,4.3,4.8,13,-99.99,,,0.00,0,rob ver 1B,2013-04-21 08:57:00,
2013-04-21 01:58:00,72.6,19.2,29.35,West,281,4.3,4.7,13,-99.99,,,0.00,0,rob ver 1B,2013-04-21 08:58:00,
2013-04-21 01:59:00,72.8,19.0,29.35,West,279,4.4,5.2,13,-99.99,,,0.00,0,rob ver 1B,2013-04-21 08:59:00,
2013-04-21 02:00:00,73.5,22.7,29.38,NE,56,0.7,1.1,14,-99.99,,,0.00,0,rob ver 1A,2013-04-21 09:00:00,
2013-04-21 02:01:00,72.9,19.2,29.35,West,269,4.2,4.8,12,-99.99,,,0.00,0,rob ver 1B,2013-04-21 09:01:00,
2013-04-21 02:02:00,73.0,19.3,29.35,West,269,4.3,4.8,12,-99.99,,,0.00,0,rob ver 1B,2013-04-21 09:02:00,
2013-04-21 02:03:00,73.1,19.1,29.35,West,264,3.5,4.4,12,-99.99,,,0.00,0,rob ver 1B,2013-04-21 09:03:00,
2013-04-21 02:04:00,73.1,19.3,29.35,West,279,3.6,4.0,12,-99.99,,,0.00,0,rob ver 1B,2013-04-21 09:04:00,
2013-04-21 02:05:00,74.0,22.1,29.38,East,95,1.9,2.5,14,-99.99,,,0.00,0,rob ver 1A,2013-04-21 09:05:00,
2013-04-21 02:06:00,73.1,19.2,29.35,WNW,284,2.8,3.8,12,-99.99,,,0.00,0,rob ver 1B,2013-04-21 09:06:00,
2013-04-21 02:07:00,73.0,19.0,29.35,West,279,2.7,3.5,12,-99.99,,,0.00,0,rob ver 1B,2013-04-21 09:07:00,
2013-04-21 02:08:00,72.7,19.1,29.35,WNW,291,2.5,3.4,12,-99.99,,,0.00,0,rob ver 1B,2013-04-21 09:08:00,
2013-04-21 02:09:00,72.5,19.0,29.35,WNW,288,2.4,3.7,13,-99.99,,,0.00,0,rob ver 1B,2013-04-21 09:09:00,
2013-04-21 02:10:00,73.9,22.0,29.38,SE,125,2.9,3.0,14,-99.99,,,0.00,0,rob ver 1A,2013-04-21 09:10:00,
2013-04-21 02:11:00,72.2,19.0,29.35,WNW,292,2.0,2.5,13,-99.99,,,0.00,0,rob ver 1B,2013-04-21 09:11:00,
2013-04-21 02:12:00,72.1,19.0,29.35,NW,311,2.6,2.9,13,-99.99,,,0.00,0,rob ver 1B,2013-04-21 09:12:00,
2013-04-21 02:13:00,72.0,18.9,29.35,NW,325,2.7,3.1,13,-99.99,,,0.00,0,rob ver 1B,2013-04-21 09:13:00,
2013-04-21 02:14:00,71.9,18.7,29.35,NNW,347,3.3,3.9,13,-99.99,,,0.00,0,rob ver 1B,2013-04-21 09:14:00,
2013-04-21 02:15:00,70.9,22.6,29.38,NE,51,3.6,4.0,16,-99.99,,,0.00,0,rob ver 1A,2013-04-21 09:15:00,
2013-04-21 02:16:00,70.8,18.2,29.35,North,4,4.2,4.9,13,-99.99,,,0.00,0,rob ver 1B,2013-04-21 09:16:00,
2013-04-21 02:17:00,70.2,18.1,29.35,North,1,4.6,5.2,13,-99.99,,,0.00,0,rob ver 1B,2013-04-21 09:17:00,
2013-04-21 02:18:00,69.9,18.0,29.35,North,0,4.6,5.0,13,-99.99,,,0.00,0,rob ver 1B,2013-04-21 09:18:00,
2013-04-21 02:19:00,69.7,18.0,29.35,North,358,4.1,4.9,13,-99.99,,,0.00,0,rob ver 1B,2013-04-21 09:19:00,
2013-04-21 02:20:00,68.5,22.4,29.38,NE,39,4.4,4.6,17,-99.99,,,0.00,0,rob ver 1A,2013-04-21 09:20:00,
2013-04-21 02:21:00,69.6,18.0,29.35,North,350,4.3,4.7,13,-99.99,,,0.00,0,rob ver 1B,2013-04-21 09:21:00,
2013-04-21 02:22:00,69.8,18.0,29.35,North,349,4.0,4.4,13,-99.99,,,0.00,0,rob ver 1B,2013-04-21 09:22:00,
2013-04-21 02:23:00,69.8,17.9,29.35,North,351,3.6,4.2,13,-99.99,,,0.00,0,rob ver 1B,2013-04-21 09:23:00,
2013-04-21 02:24:00,69.9,17.9,29.35,North,355,3.3,4.0,13,-99.99,,,0.00,0,rob ver 1B,2013-04-21 09:24:00,
2013-04-21 02:25:00,69.2,22.6,29.38,ENE,59,4.0,4.4,17,-99.99,,,0.00,0,rob ver 1A,2013-04-21 09:25:00,
2013-04-21 02:26:00,69.9,17.8,29.35,North,355,3.7,3.9,13,-99.99,,,0.00,0,rob ver 1B,2013-04-21 09:26:00,
2013-04-21 02:27:00,69.9,17.8,29.35,North,354,3.7,4.0,13,-99.99,,,0.00,0,rob ver 1B,2013-04-21 09:27:00,
2013-04-21 02:28:00,69.9,17.8,29.35,North,350,3.7,4.0,13,-99.99,,,0.00,0,rob ver 1B,2013-04-21 09:28:00,
2013-04-21 02:29:00,70.0,17.9,29.35,North,351,3.8,4.1,13,-99.99,,,0.00,0,rob ver 1B,2013-04-21 09:29:00,
2013-04-21 02:30:00,70.0,22.6,29.38,ENE,64,4.0,4.5,16,-99.99,,,0.00,0,rob ver 1A,2013-04-21 09:30:00,
2013-04-21 02:31:00,70.1,17.8,29.35,North,349,3.9,4.3,13,-99.99,,,0.00,0,rob ver 1B,2013-04-21 09:31:00,
2013-04-21 02:32:00,70.2,17.8,29.35,North,352,4.0,4.2,13,-99.99,,,0.00,0,rob ver 1B,2013-04-21 09:32:00,
2013-04-21 02:33:00,70.3,17.9,29.35,North,356,3.9,4.2,13,-99.99,,,0.00,0,rob ver 1B,2013-04-21 09:33:00,
2013-04-21 02:34:00,70.4,17.8,29.35,North,358,3.9,4.2,13,-99.99,,,0.00,0,rob ver 1B,2013-04-21 09:34:00,
2013-04-21 02:35:00,70.7,22.5,29.38,ENE,59,3.7,4.0,15,-99.99,,,0.00,0,rob ver 1A,2013-04-21 09:35:00,
2013-04-21 02:36:00,70.3,17.6,29.35,North,6,4.4,4.9,13,-99.99,,,0.00,0,rob ver 1B,2013-04-21 09:36:00,
2013-04-21 02:37:00,70.1,17.7,29.35,North,5,4.3,4.7,13,-99.99,,,0.00,0,rob ver 1B,2013-04-21 09:37:00,
2013-04-21 02:38:00,70.3,17.7,29.35,North,7,3.8,4.2,13,-99.99,,,0.00,0,rob ver 1B,2013-04-21 09:38:00,
2013-04-21 02:39:00,70.3,17.6,29.35,North,9,3.3,3.9,13,-99.99,,,0.00,0,rob ver 1B,2013-04-21 09:39:00,
2013-04-21 02:40:00,70.1,22.1,29.38,NE,48,5.0,5.7,16,-99.99,,,0.00,0,rob ver 1A,2013-04-21 09:40:00,
2013-04-21 02:41:00,69.7,17.4,29.35,NNE,28,3.2,3.8,13,-99.99,,,0.00,0,rob ver 1B,2013-04-21 09:41:00,
2013-04-21 02:42:00,69.2,17.3,29.35,North,7,2.8,3.1,13,-99.99,,,0.00,0,rob ver 1B,2013-04-21 09:42:00,
2013-04-21 02:43:00,68.9,17.3,29.35,North,352,2.5,2.9,13,-99.99,,,0.00,0,rob ver 1B,2013-04-21 09:43:00,
2013-04-21 02:44:00,68.8,17.3,29.35,NNW,346,2.6,3.1,13,-99.99,,,0.00,0,rob ver 1B,2013-04-21 09:44:00,
2013-04-21 02:45:00,67.7,22.5,29.38,NE,34,4.2,5.2,17,-99.99,,,0.00,0,rob ver 1A,2013-04-21 09:45:00,
2013-04-21 02:46:00,69.0,17.3,29.35,NNW,340,2.2,2.4,13,-99.99,,,0.00,0,rob ver 1B,2013-04-21 09:46:00,
2013-04-21 02:47:00,69.0,17.3,29.35,North,352,2.2,2.5,13,-99.99,,,0.00,0,rob ver 1B,2013-04-21 09:47:00,
2013-04-21 02:48:00,69.1,17.3,29.35,North,359,2.4,2.7,13,-99.99,,,0.00,0,rob ver 1B,2013-04-21 09:48:00,
2013-04-21 02:49:00,69.0,17.3,29.35,North,10,2.7,3.0,13,-99.99,,,0.00,0,rob ver 1B,2013-04-21 09:49:00,
2013-04-21 02:50:00,67.5,22.4,29.38,NE,51,5.5,6.2,17,-99.99,,,0.00,0,rob ver 1A,2013-04-21 09:50:00,
2013-04-21 02:51:00,68.8,17.1,29.35,NNE,18,3.6,3.8,13,-99.99,,,0.00,0,rob ver 1B,2013-04-21 09:51:00,
2013-04-21 02:52:00,68.6,17.0,29.35,NNE,31,3.8,4.3,13,-99.99,,,0.00,0,rob ver 1B,2013-04-21 09:52:00,
2013-04-21 02:53:00,68.3,16.9,29.35,NE,39,3.9,4.8,13,-99.99,,,0.00,0,rob ver 1B,2013-04-21 09:53:00,
2013-04-21 02:54:00,68.0,16.8,29.35,NE,42,4.0,4.8,13,-99.99,,,0.00,0,rob ver 1B,2013-04-21 09:54:00,
2013-04-21 02:55:00,66.0,22.1,29.38,NE,37,6.1,6.7,18,-99.99,,,0.00,0,rob ver 1A,2013-04-21 09:55:00,
2013-04-21 02:56:00,67.4,16.6,29.35,NE,43,5.1,5.7,13,-99.99,,,0.00,0,rob ver 1B,2013-04-21 09:56:00,
2013-04-21 02:57:00,67.2,16.6,29.35,NE,48,4.6,5.7,14,-99.99,,,0.00,0,rob ver 1B,2013-04-21 09:57:00,
2013-04-21 02:58:00,67.1,16.6,29.35,NE,52,4.1,5.1,14,-99.99,,,0.00,0,rob ver 1B,2013-04-21 09:58:00,
2013-04-21 02:59:00,66.9,16.9,29.35,NE,47,4.7,5.5,14,-99.99,,,0.00,0,rob ver 1B,2013-04-21 09:59:00,
2013-04-21 03:00:00,66.2,22.6,29.38,NNE,33,5.4,6.3,18,-99.99,,,0.00,0,rob ver 1A,2013-04-21 10:00:00,
2013-04-21 03:01:00,67.0,16.8,29.35,NE,49,4.4,5.4,14,-99.99,,,0.00,0,rob ver 1B,2013-04-21 10:01:00,
2013-04-21 03:02:00,66.9,16.6,29.35,NE,43,4.7,5.6,14,-99.99,,,0.00,0,rob ver 1B,2013-04-21 10:02:00,
2013-04-21 03:03:00,66.8,16.6,29.35,NE,40,5.0,5.4,14,-99.99,,,0.00,0,rob ver 1B,2013-04-21 10:03:00,
2013-04-21 03:04:00,66.7,16.6,29.35,NE,40,5.2,5.7,14,-99.99,,,0.00,0,rob ver 1B,2013-04-21 10:04:00,
2013-04-21 03:05:00,68.0,22.7,29.38,NNE,29,4.6,5.3,17,-99.99,,,0.00,0,rob ver 1A,2013-04-21 10:05:00,
2013-04-21 03:06:00,66.4,16.2,29.35,NNE,28,5.2,5.8,14,-99.99,,,0.00,0,rob ver 1B,2013-04-21 10:06:00,
2013-04-21 03:07:00,66.3,16.6,29.35,NNE,22,6.0,6.2,14,-99.99,,,0.00,0,rob ver 1B,2013-04-21 10:07:00,
2013-04-21 03:08:00,66.4,16.6,29.35,NNE,19,5.9,6.2,14,-99.99,,,0.00,0,rob ver 1B,2013-04-21 10:08:00,
2013-04-21 03:09:00,66.7,16.4,29.35,NNE,17,5.5,5.8,14,-99.99,,,0.00,0,rob ver 1B,2013-04-21 10:09:00,
2013-04-21 03:10:00,67.8,22.6,29.38,NNE,27,4.4,5.6,17,-99.99,,,0.00,0,rob ver 1A,2013-04-21 10:10:00,
2013-04-21 03:11:00,67.1,16.3,29.35,NNE,14,5.1,5.4,13,-99.99,,,0.00,0,rob ver 1B,2013-04-21 10:11:00,
2013-04-21 03:12:00,67.3,16.3,29.35,NNE,19,5.2,5.8,13,-99.99,,,0.00,0,rob ver 1B,2013-04-21 10:12:00,
2013-04-21 03:13:00,67.4,16.3,29.35,NNE,24,5.3,5.8,13,-99.99,,,0.00,0,rob ver 1B,2013-04-21 10:13:00,
2013-04-21 03:14:00,67.4,16.3,29.35,NNE,27,5.0,5.5,13,-99.99,,,0.00,0,rob ver 1B,2013-04-21 10:14:00,
2013-04-21 03:15:00,67.5,16.3,29.35,NNE,28,4.9,5.7,13,-99.99,,,0.00,0,rob ver 1B,2013-04-21 10:15:00,
2013-04-21 03:16:00,67.0,22.5,29.38,NNE,30,2.9,3.6,18,-99.99,,,0.00,0,rob ver 1A,2013-04-21 10:16:00,
2013-04-21 03:17:00,67.7,16.2,29.35,NNE,23,3.7,4.2,13,-99.99,,,0.00,0,rob ver 1B,2013-04-21 10:17:00,
2013-04-21 03:18:00,67.6,16.2,29.35,NNE,21,3.9,4.2,13,-99.99,,,0.00,0,rob ver 1B,2013-04-21 10:18:00,
2013-04-21 03:19:00,67.4,16.1,29.35,NNE,25,3.6,3.8,13,-99.99,,,0.00,0,rob ver 1B,2013-04-21 10:19:00,
2013-04-21 03:20:00,67.3,16.0,29.35,NNE,15,2.9,3.8,13,-99.99,,,0.00,0,rob ver 1B,2013-04-21 10:20:00,
2013-04-21 03:21:00,67.5,22.8,29.38,NE,37,4.6,5.1,18,-99.99,,,0.00,0,rob ver 1A,2013-04-21 10:21:00,
2013-04-21 03:22:00,66.8,16.0,29.35,NNE,12,3.8,4.0,13,-99.99,,,0.00,0,rob ver 1B,2013-04-21 10:22:00,
2013-04-21 03:23:00,67.0,16.1,29.35,NNE,13,4.0,4.1,13,-99.99,,,0.00,0,rob ver 1B,2013-04-21 10:23:00,
2013-04-21 03:24:00,67.3,16.0,29.35,North,10,3.9,4.3,13,-99.99,,,0.00,0,rob ver 1B,2013-04-21 10:24:00,
2013-04-21 03:25:00,67.4,16.1,29.35,North,8,3.9,4.3,13,-99.99,,,0.00,0,rob ver 1B,2013-04-21 10:25:00,
2013-04-21 03:26:00,67.9,22.7,29.38,NNE,31,4.6,5.3,17,-99.99,,,0.00,0,rob ver 1A,2013-04-21 10:26:00,
2013-04-21 03:27:00,67.7,16.2,29.35,North,11,4.6,4.8,13,-99.99,,,0.00,0,rob ver 1B,2013-04-21 10:27:00,
2013-04-21 03:28:00,68.0,16.2,29.35,NNE,13,4.4,4.7,13,-99.99,,,0.00,0,rob ver 1B,2013-04-21 10:28:00,
2013-04-21 03:29:00,68.1,16.1,29.35,North,11,4.2,4.5,13,-99.99,,,0.00,0,rob ver 1B,2013-04-21 10:29:00,
2013-04-21 03:30:00,68.0,16.1,29.35,NNE,12,4.2,4.7,13,-99.99,,,0.00,0,rob ver 1B,2013-04-21 10:30:00,
2013-04-21 03:31:00,66.4,22.3,29.38,North,6,3.8,4.4,18,-99.99,,,0.00,0,rob ver 1A,2013-04-21 10:31:00,
2013-04-21 03:32:00,67.9,16.1,29.35,North,6,3.9,4.3,13,-99.99,,,0.00,0,rob ver 1B,2013-04-21 10:32:00,
2013-04-21 03:33:00,68.0,16.1,29.35,NNE,12,4.3,4.5,13,-99.99,,,0.00,0,rob ver 1B,2013-04-21 10:33:00,
2013-04-21 03:34:00,68.1,16.1,29.35,NNE,14,4.3,4.6,13,-99.99,,,0.00,0,rob ver 1B,2013-04-21 10:34:00,
2013-04-21 03:35:00,68.3,16.1,29.35,North,6,3.8,4.5,13,-99.99,,,0.00,0,rob ver 1B,2013-04-21 10:35:00,
2013-04-21 03:36:00,66.4,22.4,29.38,NNE,22,1.8,2.4,18,-99.99,,,0.00,0,rob ver 1A,2013-04-21 10:36:00,
2013-04-21 03:37:00,69.7,16.3,29.35,North,352,3.2,3.6,12,-99.99,,,0.00,0,rob ver 1B,2013-04-21 10:37:00,
2013-04-21 03:38:00,70.0,16.4,29.35,North,350,3.1,3.5,12,-99.99,,,0.00,0,rob ver 1B,2013-04-21 10:38:00,
2013-04-21 03:39:00,70.2,16.4,29.35,North,351,3.3,3.8,12,-99.99,,,0.00,0,rob ver 1B,2013-04-21 10:39:00,
2013-04-21 03:40:00,70.1,16.4,29.35,North,354,3.2,3.6,12,-99.99,,,0.00,0,rob ver 1B,2013-04-21 10:40:00,
2013-04-21 03:41:00,66.4,22.4,29.38,North,8,2.8,3.9,18,-99.99,,,0.00,0,rob ver 1A,2013-04-21 10:41:00,
2013-04-21 03:42:00,70.0,16.3,29.35,North,356,2.8,3.2,12,-99.99,,,0.00,0,rob ver 1B,2013-04-21 10:42:00,
2013-04-21 03:43:00,70.2,16.2,29.35,North,0,3.3,3.5,12,-99.99,,,0.00,0,rob ver 1B,2013-04-21 10:43:00,
2013-04-21 03:44:00,69.9,16.1,29.35,North,2,3.2,3.4,12,-99.99,,,0.00,0,rob ver 1B,2013-04-21 10:44:00,
2013-04-21 03:45:00,69.6,16.0,29.35,North,1,3.4,3.5,12,-99.99,,,0.00,0,rob ver 1B,2013-04-21 10:45:00,
2013-04-21 03:46:00,66.1,22.3,29.38,North,8,4.3,4.5,18,-99.99,,,0.00,0,rob ver 1A,2013-04-21 10:46:00,
2013-04-21 03:47:00,69.2,15.9,29.35,North,358,3.6,3.8,12,-99.99,,,0.00,0,rob ver 1B,2013-04-21 10:47:00,
2013-04-21 03:48:00,69.0,15.8,29.35,North,3,3.6,3.7,12,-99.99,,,0.00,0,rob ver 1B,2013-04-21 10:48:00,
2013-04-21 03:49:00,68.8,15.7,29.35,NNE,14,3.6,4.1,12,-99.99,,,0.00,0,rob ver 1B,2013-04-21 10:49:00,
2013-04-21 03:50:00,68.6,15.6,29.35,NE,38,3.8,4.4,12,-99.99,,,0.00,0,rob ver 1B,2013-04-21 10:50:00,
2013-04-21 03:51:00,66.7,22.3,29.38,NNE,14,4.5,4.8,18,-99.99,,,0.00,0,rob ver 1A,2013-04-21 10:51:00,
2013-04-21 03:52:00,67.6,15.5,29.35,NE,44,4.3,5.5,13,-99.99,,,0.00,0,rob ver 1B,2013-04-21 10:52:00,
2013-04-21 03:53:00,67.4,15.5,29.35,NNE,33,3.4,3.8,13,-99.99,,,0.00,0,rob ver 1B,2013-04-21 10:53:00,
2013-04-21 03:54:00,67.2,15.4,29.35,NE,40,3.8,4.5,13,-99.99,,,0.00,0,rob ver 1B,2013-04-21 10:54:00,
2013-04-21 03:55:00,66.9,15.3,29.35,NE,44,4.0,4.5,13,-99.99,,,0.00,0,rob ver 1B,2013-04-21 10:55:00,
2013-04-21 03:56:00,65.6,21.8,29.38,North,10,2.3,2.7,18,-99.99,,,0.00,0,rob ver 1A,2013-04-21 10:56:00,
2013-04-21 03:57:00,66.4,15.2,29.35,NE,36,3.9,4.3,13,-99.99,,,0.00,0,rob ver 1B,2013-04-21 10:57:00,
2013-04-21 03:58:00,66.3,15.1,29.35,NNE,28,4.1,4.5,13,-99.99,,,0.00,0,rob ver 1B,2013-04-21 10:58:00,
2013-04-21 03:59:00,66.1,15.0,29.35,NNE,22,3.7,4.5,13,-99.99,,,0.00,0,rob ver 1B,2013-04-21 10:59:00,
2013-04-21 04:00:00,65.9,14.9,29.35,North,11,3.3,4.0,13,-99.99,,,0.00,0,rob ver 1B,2013-04-21 11:00:00,
2013-04-21 04:01:00,65.4,22.2,29.38,NE,39,4.5,4.9,19,-99.99,,,0.00,0,rob ver 1A,2013-04-21 11:01:00,
2013-04-21 04:02:00,65.5,14.9,29.35,NNE,12,3.9,4.0,13,-99.99,,,0.00,0,rob ver 1B,2013-04-21 11:02:00,
2013-04-21 04:03:00,65.5,14.8,29.35,North,11,3.7,3.9,13,-99.99,,,0.00,0,rob ver 1B,2013-04-21 11:03:00,
2013-04-21 04:04:00,65.7,15.0,29.35,North,9,3.4,3.8,13,-99.99,,,0.00,0,rob ver 1B,2013-04-21 11:04:00,
2013-04-21 04:05:00,66.3,15.1,29.35,NNE,15,3.4,3.7,13,-99.99,,,0.00,0,rob ver 1B,2013-04-21 11:05:00,
2013-04-21 04:06:00,65.0,22.0,29.38,NE,35,4.6,5.0,19,-99.99,,,0.00,0,rob ver 1A,2013-04-21 11:06:00,
2013-04-21 04:07:00,66.5,15.2,29.35,NNE,28,3.2,3.5,13,-99.99,,,0.00,0,rob ver 1B,2013-04-21 11:07:00,
2013-04-21 04:08:00,66.5,15.1,29.35,NE,36,3.5,4.0,13,-99.99,,,0.00,0,rob ver 1B,2013-04-21 11:08:00,
2013-04-21 04:09:00,66.4,15.0,29.35,NE,41,3.6,4.0,13,-99.99,,,0.00,0,rob ver 1B,2013-04-21 11:09:00,
2013-04-21 04:10:00,66.3,14.9,29.35,NE,44,3.4,4.0,13,-99.99,,,0.00,0,rob ver 1B,2013-04-21 11:10:00,
2013-04-21 04:11:00,64.6,22.2,29.38,NNE,24,4.7,5.2,19,-99.99,,,0.00,0,rob ver 1A,2013-04-21 11:11:00,
2013-04-21 04:12:00,65.7,14.7,29.35,NE,42,3.6,4.3,13,-99.99,,,0.00,0,rob ver 1B,2013-04-21 11:12:00,
2013-04-21 04:13:00,65.5,14.6,29.35,NE,38,3.5,4.3,13,-99.99,,,0.00,0,rob ver 1B,2013-04-21 11:13:00,
2013-04-21 04:14:00,65.3,14.6,29.35,NE,40,3.8,4.4,13,-99.99,,,0.00,0,rob ver 1B,2013-04-21 11:14:00,
2013-04-21 04:15:00,65.1,14.5,29.35,NE,42,2.6,4.0,13,-99.99,,,0.00,0,rob ver 1B,2013-04-21 11:15:00,
2013-04-21 04:16:00,64.9,22.1,29.38,NE,36,3.9,4.6,19,-99.99,,,0.00,0,rob ver 1A,2013-04-21 11:16:00,
2013-04-21 04:17:00,64.1,14.3,29.35,ESE,115,3.0,4.0,14,-99.99,,,0.00,0,rob ver 1B,2013-04-21 11:17:00,
2013-04-21 04:18:00,64.0,14.6,29.35,NE,53,4.2,5.4,14,-99.99,,,0.00,0,rob ver 1B,2013-04-21 11:18:00,
2013-04-21 04:19:00,64.0,14.5,29.35,NE,55,5.1,6.1,14,-99.99,,,0.00,0,rob ver 1B,2013-04-21 11:19:00,
2013-04-21 04:20:00,64.1,14.4,29.35,NE,53,3.8,5.2,14,-99.99,,,0.00,0,rob ver 1B,2013-04-21 11:20:00,
2013-04-21 04:21:00,64.8,22.2,29.38,NE,42,5.9,6.8,19,-99.99,,,0.00,0,rob ver 1A,2013-04-21 11:21:00,
2013-04-21 04:22:00,63.9,14.8,29.35,NE,56,4.1,5.6,14,-99.99,,,0.00,0,rob ver 1B,2013-04-21 11:22:00,
2013-04-21 04:23:00,63.9,14.8,29.35,NE,48,4.5,6.1,14,-99.99,,,0.00,0,rob ver 1B,2013-04-21 11:23:00,
2013-04-21 04:24:00,63.8,14.7,29.35,NE,49,4.3,5.5,14,-99.99,,,0.00,0,rob ver 1B,2013-04-21 11:24:00,
2013-04-21 04:25:00,63.7,14.8,29.35,NE,51,4.4,5.6,14,-99.99,,,0.00,0,rob ver 1B,2013-04-21 11:25:00,
2013-04-21 04:26:00,64.4,22.4,29.38,NE,39,4.8,5.5,19,-99.99,,,0.00,0,rob ver 1A,2013-04-21 11:26:00,
2013-04-21 04:27:00,63.7,14.8,29.35,NE,49,4.9,6.3,14,-99.99,,,0.00,0,rob ver 1B,2013-04-21 11:27:00,
2013-04-21 04:28:00,63.8,14.7,29.35,ENE,59,4.8,6.1,14,-99.99,,,0.00,0,rob ver 1B,2013-04-21 11:28:00,
2013-04-21 04:29:00,63.7,14.8,29.35,NE,54,5.5,6.7,14,-99.99,,,0.00,0,rob ver 1B,2013-04-21 11:29:00,
2013-04-21 04:30:00,63.6,14.8,29.35,NE,55,5.6,6.6,14,-99.99,,,0.00,0,rob ver 1B,2013-04-21 11:30:00,
2013-04-21 04:31:00,65.3,22.8,29.38,NNE,12,5.2,5.5,19,-99.99,,,0.00,0,rob ver 1A,2013-04-21 11:31:00,
2013-04-21 04:32:00,63.3,14.9,29.35,NE,48,5.5,6.6,15,-99.99,,,0.00,0,rob ver 1B,2013-04-21 11:32:00,
2013-04-21 04:33:00,63.2,14.9,29.35,NE,47,4.9,6.0,15,-99.99,,,0.00,0,rob ver 1B,2013-04-21 11:33:00,
2013-04-21 04:34:00,63.1,14.9,29.35,NE,50,5.1,6.5,15,-99.99,,,0.00,0,rob ver 1B,2013-04-21 11:34:00,
2013-04-21 04:35:00,63.0,14.9,29.35,NE,49,5.2,6.8,15,-99.99,,,0.00,0,rob ver 1B,2013-04-21 11:35:00,
2013-04-21 04:36:00,65.5,22.4,29.38,North,8,5.5,5.8,19,-99.99,,,0.00,0,rob ver 1A,2013-04-21 11:36:00,
2013-04-21 04:37:00,63.0,14.9,29.35,NE,47,6.1,7.4,15,-99.99,,,0.00,0,rob ver 1B,2013-04-21 11:37:00,
2013-04-21 04:38:00,63.0,14.9,29.35,NE,49,6.0,8.2,15,-99.99,,,0.00,0,rob ver 1B,2013-04-21 11:38:00,
2013-04-21 04:39:00,63.1,14.9,29.35,NE,52,6.0,7.9,15,-99.99,,,0.00,0,rob ver 1B,2013-04-21 11:39:00,
2013-04-21 04:40:00,63.0,14.8,29.35,NE,51,6.7,8.9,15,-99.99,,,0.00,0,rob ver 1B,2013-04-21 11:40:00,
2013-04-21 04:41:00,65.7,22.4,29.38,NNE,14,6.1,6.5,19,-99.99,,,0.00,0,rob ver 1A,2013-04-21 11:41:00,
2013-04-21 04:42:00,63.0,14.8,29.35,NE,45,6.7,8.7,15,-99.99,,,0.00,0,rob ver 1B,2013-04-21 11:42:00,
2013-04-21 04:43:00,63.1,14.8,29.35,NE,49,6.8,9.1,15,-99.99,,,0.00,0,rob ver 1B,2013-04-21 11:43:00,
2013-04-21 04:44:00,63.2,14.8,29.35,NE,51,6.9,8.6,14,-99.99,,,0.00,0,rob ver 1B,2013-04-21 11:44:00,
2013-04-21 04:45:00,63.4,14.8,29.32,NE,52,6.5,8.2,14,-99.99,,,0.00,0,rob ver 1B,2013-04-21 11:45:00,
2013-04-21 04:46:00,65.9,22.4,29.38,North,7,6.0,6.4,18,-99.99,,,0.00,0,rob ver 1A,2013-04-21 11:46:00,
2013-04-21 04:47:00,63.7,14.6,29.35,NE,48,6.3,9.6,14,-99.99,,,0.00,0,rob ver 1B,2013-04-21 11:47:00,
2013-04-21 04:48:00,64.1,14.3,29.35,NE,48,6.1,8.3,14,-99.99,,,0.00,0,rob ver 1B,2013-04-21 11:48:00,
2013-04-21 04:49:00,64.6,14.3,29.35,NE,44,6.6,7.9,13,-99.99,,,0.00,0,rob ver 1B,2013-04-21 11:49:00,
2013-04-21 04:50:00,65.0,14.4,29.35,NE,41,6.8,7.7,13,-99.99,,,0.00,0,rob ver 1B,2013-04-21 11:50:00,
2013-04-21 04:51:00,66.4,22.3,29.38,North,7,3.6,4.3,18,-99.99,,,0.00,0,rob ver 1A,2013-04-21 11:51:00,
2013-04-21 04:52:00,65.4,14.4,29.35,NE,36,7.6,8.6,13,-99.99,,,0.00,0,rob ver 1B,2013-04-21 11:52:00,
2013-04-21 04:53:00,65.5,14.4,29.35,NE,36,7.5,8.4,13,-99.99,,,0.00,0,rob ver 1B,2013-04-21 11:53:00,
2013-04-21 04:54:00,65.5,14.4,29.35,NE,35,7.7,8.6,13,-99.99,,,0.00,0,rob ver 1B,2013-04-21 11:54:00,
2013-04-21 04:55:00,65.6,14.4,29.35,NNE,32,8.0,8.9,13,-99.99,,,0.00,0,rob ver 1B,2013-04-21 11:55:00,
2013-04-21 04:56:00,66.2,22.4,29.38,NNE,22,4.5,4.8,18,-99.99,,,0.00,0,rob ver 1A,2013-04-21 11:56:00,
2013-04-21 04:57:00,65.7,14.4,29.35,NNE,29,8.1,9.1,13,-99.99,,,0.00,0,rob ver 1B,2013-04-21 11:57:00,
2013-04-21 04:58:00,65.7,14.4,29.35,NNE,32,7.5,8.1,13,-99.99,,,0.00,0,rob ver 1B,2013-04-21 11:58:00,
2013-04-21 04:59:00,65.8,14.4,29.35,NE,34,6.9,7.7,13,-99.99,,,0.00,0,rob ver 1B,2013-04-21 11:59:00,
2013-04-21 05:00:00,65.9,14.4,29.35,NE,34,6.9,7.6,13,-99.99,,,0.00,0,rob ver 1B,2013-04-21 12:00:00,
2013-04-21 05:01:00,65.9,22.2,29.38,NNW,345,2.6,3.7,18,-99.99,,,0.00,0,rob ver 1A,2013-04-21 12:01:00,
2013-04-21 05:02:00,66.1,14.5,29.35,NE,35,6.5,7.2,13,-99.99,,,0.00,0,rob ver 1B,2013-04-21 12:02:00,
2013-04-21 05:03:00,66.1,14.4,29.35,NE,35,5.7,6.5,13,-99.99,,,0.00,0,rob ver 1B,2013-04-21 12:03:00,
2013-04-21 05:04:00,66.0,14.4,29.35,NE,37,5.3,5.6,13,-99.99,,,0.00,0,rob ver 1B,2013-04-21 12:04:00,
2013-04-21 05:05:00,66.0,14.4,29.35,NE,34,4.7,5.3,13,-99.99,,,0.00,0,rob ver 1B,2013-04-21 12:05:00,
2013-04-21 05:06:00,63.2,21.2,29.38,WSW,257,3.4,3.8,19,-99.99,,,0.00,0,rob ver 1A,2013-04-21 12:06:00,
2013-04-21 05:07:00,66.1,14.4,29.35,NNE,26,5.3,6.2,13,-99.99,,,0.00,0,rob ver 1B,2013-04-21 12:07:00,
2013-04-21 05:08:00,66.2,14.4,29.35,NNE,21,6.3,6.8,13,-99.99,,,0.00,0,rob ver 1B,2013-04-21 12:08:00,
2013-04-21 05:09:00,66.3,14.4,29.35,NNE,15,6.0,6.5,13,-99.99,,,0.00,0,rob ver 1B,2013-04-21 12:09:00,
2013-04-21 05:10:00,66.3,14.4,29.35,NNE,15,5.9,6.4,13,-99.99,,,0.00,0,rob ver 1B,2013-04-21 12:10:00,
2013-04-21 05:11:00,62.6,21.1,29.38,West,259,2.2,2.6,20,-99.99,,,0.00,0,rob ver 1A,2013-04-21 12:11:00,
2013-04-21 05:12:00,66.4,14.4,29.35,NNE,20,6.4,7.1,13,-99.99,,,0.00,0,rob ver 1B,2013-04-21 12:12:00,
2013-04-21 05:13:00,66.3,14.4,29.35,NNE,24,5.6,6.0,13,-99.99,,,0.00,0,rob ver 1B,2013-04-21 12:13:00,
2013-04-21 05:14:00,66.2,14.3,29.35,NNE,26,5.6,6.2,13,-99.99,,,0.00,0,rob ver 1B,2013-04-21 12:14:00,
2013-04-21 05:15:00,65.9,14.2,29.35,NNE,26,5.7,6.3,13,-99.99,,,0.00,0,rob ver 1B,2013-04-21 12:15:00,
2013-04-21 05:16:00,62.4,21.7,29.41,WSW,248,2.5,2.9,20,-99.99,,,0.00,0,rob ver 1A,2013-04-21 12:16:00,
2013-04-21 05:17:00,65.6,14.1,29.35,NNE,23,6.0,6.4,13,-99.99,,,0.00,0,rob ver 1B,2013-04-21 12:17:00,
2013-04-21 05:18:00,65.5,14.1,29.35,NNE,21,6.0,6.7,13,-99.99,,,0.00,0,rob ver 1B,2013-04-21 12:18:00,
2013-04-21 05:19:00,65.4,14.1,29.35,NNE,17,5.9,6.7,13,-99.99,,,0.00,0,rob ver 1B,2013-04-21 12:19:00,
2013-04-21 05:20:00,65.4,14.0,29.35,NNE,17,6.3,6.9,13,-99.99,,,0.00,0,rob ver 1B,2013-04-21 12:20:00,
2013-04-21 05:21:00,62.3,21.7,29.41,WSW,241,2.3,2.9,20,-99.99,,,0.00,0,rob ver 1A,2013-04-21 12:21:00,
2013-04-21 05:22:00,65.2,14.0,29.35,NNE,19,6.4,7.3,13,-99.99,,,0.00,0,rob ver 1B,2013-04-21 12:22:00,
2013-04-21 05:23:00,65.2,14.1,29.35,NNE,20,6.8,7.1,13,-99.99,,,0.00,0,rob ver 1B,2013-04-21 12:23:00,
2013-04-21 05:24:00,65.3,14.1,29.35,NNE,20,7.1,7.7,13,-99.99,,,0.00,0,rob ver 1B,2013-04-21 12:24:00,
2013-04-21 05:25:00,65.3,14.1,29.35,NNE,19,7.5,7.9,13,-99.99,,,0.00,0,rob ver 1B,2013-04-21 12:25:00,
2013-04-21 05:26:00,62.2,21.9,29.38,West,264,2.5,2.8,21,-99.99,,,0.00,0,rob ver 1A,2013-04-21 12:26:00,
2013-04-21 05:27:00,65.4,14.2,29.35,NNE,20,7.5,8.0,13,-99.99,,,0.00,0,rob ver 1B,2013-04-21 12:27:00,
2013-04-21 05:28:00,65.4,14.2,29.35,NNE,20,7.4,8.1,13,-99.99,,,0.00,0,rob ver 1B,2013-04-21 12:28:00,
2013-04-21 05:29:00,65.4,14.3,29.35,NNE,22,7.0,7.8,13,-99.99,,,0.00,0,rob ver 1B,2013-04-21 12:29:00,
2013-04-21 05:30:00,65.4,14.3,29.35,NNE,26,6.3,7.2,13,-99.99,,,0.00,0,rob ver 1B,2013-04-21 12:30:00,
2013-04-21 05:31:00,62.2,22.0,29.41,West,274,1.5,1.7,21,-99.99,,,0.00,0,rob ver 1A,2013-04-21 12:31:00,
2013-04-21 05:32:00,65.4,14.3,29.35,NNE,28,5.9,6.9,13,-99.99,,,0.00,0,rob ver 1B,2013-04-21 12:32:00,
2013-04-21 05:33:00,65.4,14.2,29.35,NNE,28,6.2,7.1,13,-99.99,,,0.00,0,rob ver 1B,2013-04-21 12:33:00,
2013-04-21 05:34:00,65.4,14.2,29.35,NNE,29,6.8,7.8,13,-99.99,,,0.00,0,rob ver 1B,2013-04-21 12:34:00,
2013-04-21 05:35:00,65.4,14.2,29.35,NNE,31,7.0,7.8,13,-99.99,,,0.00,0,rob ver 1B,2013-04-21 12:35:00,
2013-04-21 05:36:00,61.9,21.9,29.41,NNW,330,1.0,1.1,21,-99.99,,,0.00,0,rob ver 1A,2013-04-21 12:36:00,
2013-04-21 05:37:00,65.4,14.1,29.35,NNE,32,7.1,8.0,13,-99.99,,,0.00,0,rob ver 1B,2013-04-21 12:37:00,
2013-04-21 05:38:00,65.4,14.1,29.35,NNE,33,7.1,8.1,13,-99.99,,,0.00,0,rob ver 1B,2013-04-21 12:38:00,
2013-04-21 05:39:00,65.4,14.1,29.35,NE,34,7.2,8.1,13,-99.99,,,0.00,0,rob ver 1B,2013-04-21 12:39:00,
2013-04-21 05:40:00,65.4,14.1,29.35,NE,34,6.9,7.5,13,-99.99,,,0.00,.164,rob ver 1B,2013-04-21 12:40:00,
2013-04-21 05:41:00,61.9,22.4,29.41,WNW,301,0.3,0.5,21,-99.99,,,0.00,.328,rob ver 1A,2013-04-21 12:41:00,
2013-04-21 05:42:00,65.3,14.1,29.35,NE,34,6.6,7.9,13,-99.99,,,0.00,.328,rob ver 1B,2013-04-21 12:42:00,
2013-04-21 05:43:00,65.3,14.1,29.35,NNE,33,6.6,8.3,13,-99.99,,,0.00,.328,rob ver 1B,2013-04-21 12:43:00,
2013-04-21 05:44:00,65.1,14.0,29.35,NNE,33,6.5,7.5,13,-99.99,,,0.00,.328,rob ver 1B,2013-04-21 12:44:00,
2013-04-21 05:45:00,65.0,13.9,29.35,NNE,30,5.9,6.8,13,-99.99,,,0.00,.328,rob ver 1B,2013-04-21 12:45:00,
2013-04-21 05:46:00,64.9,13.9,29.35,NE,34,6.2,7.5,13,-99.99,,,0.00,.328,rob ver 1B,2013-04-21 12:46:00,
2013-04-21 05:47:00,62.2,22.6,29.41,ESE,119,0.7,0.9,21,-99.99,,,0.00,.328,rob ver 1A,2013-04-21 12:47:00,
2013-04-21 05:48:00,64.7,13.9,29.35,NE,41,5.6,6.4,13,-99.99,,,0.00,.985,rob ver 1B,2013-04-21 12:48:00,
2013-04-21 05:49:00,64.8,14.0,29.35,NE,45,4.9,6.6,13,-99.99,,,0.00,.985,rob ver 1B,2013-04-21 12:49:00,
2013-04-21 05:50:00,64.8,14.0,29.35,NE,51,4.4,6.3,13,-99.99,,,0.00,.985,rob ver 1B,2013-04-21 12:50:00,
2013-04-21 05:51:00,64.8,14.0,29.35,NE,54,4.1,5.2,13,-99.99,,,0.00,1.642,rob ver 1B,2013-04-21 12:51:00,
2013-04-21 05:52:00,62.5,22.0,29.41,SE,134,2.0,2.2,21,-99.99,,,0.00,.985,rob ver 1A,2013-04-21 12:52:00,
2013-04-21 05:53:00,64.8,13.9,29.35,ENE,57,4.2,5.4,13,-99.99,,,0.00,1.642,rob ver 1B,2013-04-21 12:53:00,
2013-04-21 05:54:00,64.7,13.9,29.35,ENE,75,3.8,4.7,13,-99.99,,,0.00,2.298,rob ver 1B,2013-04-21 12:54:00,
2013-04-21 05:55:00,64.4,13.7,29.35,East,91,3.9,4.4,13,-99.99,,,0.00,2.298,rob ver 1B,2013-04-21 12:55:00,
2013-04-21 05:56:00,63.9,13.6,29.35,East,89,4.2,4.7,13,-99.99,,,0.00,2.955,rob ver 1B,2013-04-21 12:56:00,
2013-04-21 05:57:00,61.6,21.4,29.41,SE,142,2.3,2.4,20,-99.99,,,0.00,2.955,rob ver 1A,2013-04-21 12:57:00,
2013-04-21 05:58:00,63.5,13.7,29.35,East,82,3.8,4.6,14,-99.99,,,0.00,3.283,rob ver 1B,2013-04-21 12:58:00,
2013-04-21 05:59:00,63.5,13.7,29.35,East,86,3.7,4.6,14,-99.99,,,0.00,3.94,rob ver 1B,2013-04-21 12:59:00,
2013-04-21 06:00:00,63.4,13.6,29.35,East,92,3.8,4.3,14,-99.99,,,0.00,4.596,rob ver 1B,2013-04-21 13:00:00,
2013-04-21 06:01:00,63.2,13.7,29.35,East,90,3.4,3.9,14,-99.99,,,0.00,5.253,rob ver 1B,2013-04-21 13:01:00,
2013-04-21 06:02:00,61.6,22.0,29.41,South,191,2.1,2.8,21,-99.99,,,0.00,5.254,rob ver 1A,2013-04-21 13:02:00,
2013-04-21 06:03:00,62.8,14.0,29.35,East,99,2.7,2.9,14,-99.99,,,0.00,6.566,rob ver 1B,2013-04-21 13:03:00,
2013-04-21 06:04:00,62.7,14.1,29.35,East,101,2.7,2.9,14,-99.99,,,0.00,7.22,rob ver 1B,2013-04-21 13:04:00,
2013-04-21 06:05:00,62.7,14.2,29.35,East,95,2.5,2.7,14,-99.99,,,0.00,7.88,rob ver 1B,2013-04-21 13:05:00,
2013-04-21 06:06:00,62.7,14.3,29.35,East,87,3.1,3.8,14,-99.99,,,0.00,9.19,rob ver 1B,2013-04-21 13:06:00,
2013-04-21 06:07:00,61.2,21.1,29.41,SSE,163,2.2,2.7,20,-99.99,,,0.00,9.85,rob ver 1A,2013-04-21 13:07:00,
2013-04-21 06:08:00,63.0,14.3,29.35,East,86,3.4,4.3,14,-99.99,,,0.00,13.79,rob ver 1B,2013-04-21 13:08:00,
2013-04-21 06:09:00,63.1,14.2,29.35,East,91,3.4,3.9,14,-99.99,,,0.00,15.1,rob ver 1B,2013-04-21 13:09:00,
2013-04-21 06:10:00,63.0,14.1,29.35,East,97,3.5,4.0,14,-99.99,,,0.00,16.42,rob ver 1B,2013-04-21 13:10:00,
2013-04-21 06:11:00,62.8,14.2,29.35,East,95,3.6,3.9,14,-99.99,,,0.00,17.73,rob ver 1B,2013-04-21 13:11:00,
2013-04-21 06:12:00,59.5,21.1,29.41,SE,136,2.5,2.8,22,-99.99,,,0.00,19.05,rob ver 1A,2013-04-21 13:12:00,
2013-04-21 06:13:00,62.7,14.3,29.35,East,94,3.2,3.6,14,-99.99,,,0.00,21.67,rob ver 1B,2013-04-21 13:13:00,
2013-04-21 06:14:00,62.7,14.3,29.35,East,96,3.2,3.6,14,-99.99,,,0.00,23.97,rob ver 1B,2013-04-21 13:14:00,
2013-04-21 06:15:00,62.7,14.3,29.35,East,96,3.1,3.5,14,-99.99,,,0.00,26.27,rob ver 1B,2013-04-21 13:15:00,
2013-04-21 06:16:00,62.7,14.3,29.35,East,90,3.2,3.6,14,-99.99,,,0.00,28.24,rob ver 1B,2013-04-21 13:16:00,
2013-04-21 06:17:00,61.2,22.1,29.41,SE,140,2.2,2.5,21,-99.99,,,0.00,29.06,rob ver 1A,2013-04-21 13:17:00,
2013-04-21 06:18:00,62.8,14.4,29.35,ENE,70,3.5,4.3,14,-99.99,,,0.00,32.83,rob ver 1B,2013-04-21 13:18:00,
2013-04-21 06:19:00,62.9,14.5,29.35,ENE,65,3.3,4.2,14,-99.99,,,0.00,34.8,rob ver 1B,2013-04-21 13:19:00,
2013-04-21 06:20:00,63.0,14.4,29.35,ENE,59,3.5,4.7,14,-99.99,,,0.00,36.94,rob ver 1B,2013-04-21 13:20:00,
2013-04-21 06:21:00,63.2,14.3,29.35,ENE,57,3.3,4.5,14,-99.99,,,0.00,39.4,rob ver 1B,2013-04-21 13:21:00,
2013-04-21 06:22:00,62.6,22.3,29.41,South,189,0.8,1.0,21,-99.99,,,0.00,40.06,rob ver 1A,2013-04-21 13:22:00,
2013-04-21 06:23:00,63.3,14.4,29.35,ENE,71,2.8,3.6,14,-99.99,,,0.00,44,rob ver 1B,2013-04-21 13:23:00,
2013-04-21 06:24:00,63.3,14.4,29.35,ENE,70,2.7,3.2,14,-99.99,,,0.00,46.46,rob ver 1B,2013-04-21 13:24:00,
2013-04-21 06:25:00,63.4,14.5,29.35,ENE,61,3.0,3.8,14,-99.99,,,0.00,48.59,rob ver 1B,2013-04-21 13:25:00,
2013-04-21 06:26:00,63.5,14.8,29.35,NE,54,3.7,4.9,14,-99.99,,,0.00,51.22,rob ver 1B,2013-04-21 13:26:00,
2013-04-21 06:27:00,63.8,22.2,29.41,South,187,0.3,0.4,20,-99.99,,,0.00,52.05,rob ver 1A,2013-04-21 13:27:00,
2013-04-21 06:28:00,63.7,14.7,29.35,NE,50,3.3,4.9,14,-99.99,,,0.00,56.15,rob ver 1B,2013-04-21 13:28:00,
2013-04-21 06:29:00,63.8,14.8,29.35,NE,51,3.8,6.2,14,-99.99,,,0.00,58.45,rob ver 1B,2013-04-21 13:29:00,
2013-04-21 06:30:00,64.0,15.2,29.35,NE,50,4.4,5.8,14,-99.99,,,0.00,61.07,rob ver 1B,2013-04-21 13:30:00,
2013-04-21 06:31:00,64.1,15.3,29.35,NE,49,4.7,6.1,14,-99.99,,,0.00,63.7,rob ver 1B,2013-04-21 13:31:00,
2013-04-21 06:32:00,64.9,22.1,29.41,SW,221,0.3,0.4,19,-99.99,,,0.00,65.68,rob ver 1A,2013-04-21 13:32:00,
2013-04-21 06:33:00,64.6,15.4,29.35,NE,50,5.0,6.7,14,-99.99,,,0.00,68.95,rob ver 1B,2013-04-21 13:33:00,
2013-04-21 06:34:00,64.8,15.3,29.35,NE,45,5.7,7.1,14,-99.99,,,0.00,71.7,rob ver 1B,2013-04-21 13:34:00,
2013-04-21 06:35:00,65.0,15.1,29.35,NE,48,6.2,8.0,14,-99.99,,,0.00,74.2,rob ver 1B,2013-04-21 13:35:00,
2013-04-21 06:36:00,65.2,15.0,29.35,NE,46,6.5,8.2,14,-99.99,,,0.00,76.8,rob ver 1B,2013-04-21 13:36:00,
2013-04-21 06:37:00,65.6,22.1,29.41,NNE,18,0.8,0.9,18,-99.99,,,0.00,78.8,rob ver 1A,2013-04-21 13:37:00,
2013-04-21 06:38:00,65.5,15.1,29.35,NE,46,7.0,8.6,14,-99.99,,,0.00,82.7,rob ver 1B,2013-04-21 13:38:00,
2013-04-21 06:39:00,65.6,15.2,29.35,NE,45,7.0,8.5,13,-99.99,,,0.00,85.4,rob ver 1B,2013-04-21 13:39:00,
2013-04-21 06:40:00,65.8,15.2,29.35,NE,46,7.2,8.5,13,-99.99,,,0.00,88.7,rob ver 1B,2013-04-21 13:40:00,
2013-04-21 06:41:00,65.9,15.2,29.35,NE,46,7.2,8.7,13,-99.99,,,0.00,91.3,rob ver 1B,2013-04-21 13:41:00,
2013-04-21 06:42:00,65.8,22.3,29.41,NNE,20,1.0,1.1,18,-99.99,,,0.00,93.3,rob ver 1A,2013-04-21 13:42:00,
2013-04-21 06:43:00,66.2,15.3,29.35,NE,45,6.8,9.1,13,-99.99,,,0.00,96.7,rob ver 1B,2013-04-21 13:43:00,
2013-04-21 06:44:00,66.3,15.4,29.35,NE,46,6.9,8.5,13,-99.99,,,0.00,99.5,rob ver 1B,2013-04-21 13:44:00,
2013-04-21 06:45:00,66.5,15.4,29.35,NE,45,6.6,8.6,13,-99.99,,,0.00,102.4,rob ver 1B,2013-04-21 13:45:00,
2013-04-21 06:46:00,66.6,15.4,29.35,NE,47,6.7,8.5,13,-99.99,,,0.00,105.2,rob ver 1B,2013-04-21 13:46:00,
2013-04-21 06:47:00,65.4,21.4,29.41,NE,41,2.2,2.5,18,-99.99,,,0.00,107.7,rob ver 1A,2013-04-21 13:47:00,
2013-04-21 06:48:00,66.8,15.5,29.35,NE,45,7.2,10.1,13,-99.99,,,0.00,111.6,rob ver 1B,2013-04-21 13:48:00,
2013-04-21 06:49:00,66.8,15.5,29.35,NE,48,6.0,7.8,13,-99.99,,,0.00,114.9,rob ver 1B,2013-04-21 13:49:00,
2013-04-21 06:50:00,67.0,15.6,29.35,NE,50,6.2,8.0,13,-99.99,,,0.00,117.6,rob ver 1B,2013-04-21 13:50:00,
2013-04-21 06:51:00,67.1,15.6,29.35,NE,51,6.0,7.6,13,-99.99,,,0.00,120.8,rob ver 1B,2013-04-21 13:51:00,
2013-04-21 06:52:00,64.4,21.1,29.41,NNE,33,2.8,3.0,18,-99.99,,,0.00,122.8,rob ver 1A,2013-04-21 13:52:00,
2013-04-21 06:53:00,67.4,15.8,29.35,NE,56,6.4,8.7,13,-99.99,,,0.00,126.7,rob ver 1B,2013-04-21 13:53:00,
2013-04-21 06:54:00,67.7,15.8,29.35,ENE,57,7.3,9.4,13,-99.99,,,0.00,130,rob ver 1B,2013-04-21 13:54:00,
2013-04-21 06:55:00,67.9,15.9,29.35,ENE,61,6.5,8.5,13,-99.99,,,0.00,133.3,rob ver 1B,2013-04-21 13:55:00,
2013-04-21 06:56:00,68.0,15.9,29.35,ENE,63,6.2,8.0,13,-99.99,,,0.00,136.6,rob ver 1B,2013-04-21 13:56:00,
2013-04-21 06:57:00,64.8,21.5,29.44,NNE,18,2.9,3.1,18,-99.99,,,0.00,138.6,rob ver 1A,2013-04-21 13:57:00,
2013-04-21 06:58:00,68.3,15.9,29.35,ENE,63,6.6,8.9,13,-99.99,,,0.00,143.2,rob ver 1B,2013-04-21 13:58:00,
2013-04-21 06:59:00,68.4,16.0,29.35,ENE,63,6.4,8.5,13,-99.99,,,0.00,146.4,rob ver 1B,2013-04-21 13:59:00,
2013-04-21 07:00:00,68.6,16.0,29.35,ENE,65,6.6,8.9,13,-99.99,,,0.00,149.7,rob ver 1B,2013-04-21 14:00:00,
2013-04-21 07:01:00,68.8,16.0,29.35,ENE,63,7.2,9.2,13,-99.99,,,0.00,152.7,rob ver 1B,2013-04-21 14:01:00,
2013-04-21 07:02:00,66.1,21.7,29.44,North,358,2.0,2.4,18,-99.99,,,0.00,154.5,rob ver 1A,2013-04-21 14:02:00,
2013-04-21 07:03:00,69.1,16.1,29.35,ENE,61,6.7,9.5,12,-99.99,,,0.00,159.2,rob ver 1B,2013-04-21 14:03:00,
2013-04-21 07:04:00,69.3,16.1,29.35,ENE,62,7.9,10.1,12,-99.99,,,0.00,162.4,rob ver 1B,2013-04-21 14:04:00,
2013-04-21 07:05:00,69.4,16.1,29.35,ENE,63,7.4,9.8,12,-99.99,,,0.00,165.5,rob ver 1B,2013-04-21 14:05:00,
2013-04-21 07:06:00,69.6,16.1,29.35,ENE,65,7.6,10.4,12,-99.99,,,0.00,169.3,rob ver 1B,2013-04-21 14:06:00,
2013-04-21 07:07:00,66.8,21.5,29.44,North,357,1.9,2.2,17,-99.99,,,0.00,171.4,rob ver 1A,2013-04-21 14:07:00,
2013-04-21 07:08:00,69.9,16.2,29.35,ENE,65,6.4,8.6,12,-99.99,,,0.00,176,rob ver 1B,2013-04-21 14:08:00,
2013-04-21 07:09:00,70.1,16.2,29.35,ENE,66,7.4,9.2,12,-99.99,,,0.00,179.3,rob ver 1B,2013-04-21 14:09:00,
2013-04-21 07:10:00,70.2,16.2,29.35,ENE,67,6.8,9.3,12,-99.99,,,0.00,182.7,rob ver 1B,2013-04-21 14:10:00,
2013-04-21 07:11:00,70.4,16.2,29.35,ENE,69,6.8,9.3,12,-99.99,,,0.00,186.5,rob ver 1B,2013-04-21 14:11:00,
2013-04-21 07:12:00,67.5,21.6,29.44,North,8,2.0,2.7,17,-99.99,,,0.00,188.5,rob ver 1A,2013-04-21 14:12:00,
2013-04-21 07:13:00,70.6,16.2,29.35,ENE,73,7.1,9.2,12,-99.99,,,0.00,193,rob ver 1B,2013-04-21 14:13:00,
2013-04-21 07:14:00,70.7,16.2,29.35,ENE,71,7.0,10.2,12,-99.99,,,0.00,196.3,rob ver 1B,2013-04-21 14:14:00,
2013-04-21 07:15:00,70.8,16.2,29.38,ENE,76,7.1,9.1,12,-99.99,,,0.00,199.6,rob ver 1B,2013-04-21 14:15:00,
2013-04-21 07:16:00,71.0,16.1,29.35,ENE,78,7.5,9.8,12,-99.99,,,0.00,203.2,rob ver 1B,2013-04-21 14:16:00,
2013-04-21 07:17:00,68.3,21.4,29.44,NE,39,0.9,1.3,16,-99.99,,,0.00,205.6,rob ver 1A,2013-04-21 14:17:00,
2013-04-21 07:18:00,71.1,16.2,29.35,East,87,7.1,9.0,12,-99.99,,,0.00,209.6,rob ver 1B,2013-04-21 14:18:00,
2013-04-21 07:19:00,71.2,16.2,29.35,East,91,6.6,7.5,12,-99.99,,,0.00,212.7,rob ver 1B,2013-04-21 14:19:00,
2013-04-21 07:20:00,71.3,16.3,29.38,East,93,5.9,7.4,12,-99.99,,,0.00,216.7,rob ver 1B,2013-04-21 14:20:00,
2013-04-21 07:21:00,71.3,16.3,29.38,East,100,6.0,7.1,12,-99.99,,,0.00,220,rob ver 1B,2013-04-21 14:21:00,
2013-04-21 07:22:00,70.3,21.5,29.44,ENE,73,0.8,1.1,15,-99.99,,,0.00,223.3,rob ver 1A,2013-04-21 14:22:00,
2013-04-21 07:23:00,71.2,16.3,29.35,ESE,109,6.5,7.7,12,-99.99,,,0.00,226.5,rob ver 1B,2013-04-21 14:23:00,
2013-04-21 07:24:00,71.2,16.2,29.35,ESE,110,7.0,8.3,12,-99.99,,,0.00,230.5,rob ver 1B,2013-04-21 14:24:00,
2013-04-21 07:25:00,71.2,16.3,29.38,ESE,108,7.1,8.2,12,-99.99,,,0.00,233.7,rob ver 1B,2013-04-21 14:25:00,
2013-04-21 07:26:00,71.2,16.4,29.38,ESE,108,6.3,7.9,12,-99.99,,,0.00,237.3,rob ver 1B,2013-04-21 14:26:00,
2013-04-21 07:27:00,72.2,20.7,29.44,ENE,57,0.7,1.0,14,-99.99,,,0.00,241.5,rob ver 1A,2013-04-21 14:27:00,
2013-04-21 07:28:00,71.4,16.4,29.38,ESE,103,6.9,8.4,12,-99.99,,,0.00,243.9,rob ver 1B,2013-04-21 14:28:00,
2013-04-21 07:29:00,71.5,16.3,29.35,ESE,105,8.2,9.7,12,-99.99,,,0.00,247.5,rob ver 1B,2013-04-21 14:29:00,
2013-04-21 07:30:00,71.5,16.4,29.38,ESE,107,7.8,9.3,12,-99.99,,,0.00,251.1,rob ver 1B,2013-04-21 14:30:00,
2013-04-21 07:31:00,71.6,16.4,29.38,ESE,110,7.1,8.1,12,-99.99,,,0.00,254.7,rob ver 1B,2013-04-21 14:31:00,
2013-04-21 07:32:00,72.3,20.7,29.44,NE,54,1.6,1.9,14,-99.99,,,0.00,259.4,rob ver 1A,2013-04-21 14:32:00,
2013-04-21 07:33:00,71.6,16.5,29.38,ESE,110,6.3,7.8,12,-99.99,,,0.00,261.9,rob ver 1B,2013-04-21 14:33:00,
2013-04-21 07:34:00,71.7,16.7,29.38,ESE,118,6.5,8.4,12,-99.99,,,0.00,265.4,rob ver 1B,2013-04-21 14:34:00,
2013-04-21 07:35:00,71.7,16.6,29.38,ESE,120,6.1,6.9,12,-99.99,,,0.00,268,rob ver 1B,2013-04-21 14:35:00,
2013-04-21 07:36:00,71.7,16.7,29.38,ESE,121,6.1,7.3,12,-99.99,,,0.00,271.8,rob ver 1B,2013-04-21 14:36:00,
2013-04-21 07:37:00,72.7,20.9,29.44,NE,53,2.1,2.8,14,-99.99,,,0.00,280.4,rob ver 1A,2013-04-21 14:37:00,
2013-04-21 07:38:00,71.6,17.0,29.38,ESE,120,5.7,7.0,12,-99.99,,,0.00,279,rob ver 1B,2013-04-21 14:38:00,
2013-04-21 07:39:00,71.6,17.1,29.38,ESE,123,5.6,6.4,12,-99.99,,,0.00,282.4,rob ver 1B,2013-04-21 14:39:00,
2013-04-21 07:40:00,71.6,17.1,29.38,SE,125,5.9,6.5,12,-99.99,,,0.00,286.2,rob ver 1B,2013-04-21 14:40:00,
2013-04-21 07:41:00,71.4,17.2,29.38,SE,126,5.5,7.0,12,-99.99,,,0.00,289.5,rob ver 1B,2013-04-21 14:41:00,
2013-04-21 07:42:00,71.4,17.1,29.38,SE,125,5.9,6.8,12,-99.99,,,0.00,293.4,rob ver 1B,2013-04-21 14:42:00,
2013-04-21 07:43:00,72.5,20.5,29.44,NE,48,2.7,3.2,13,-99.99,,,0.00,299.4,rob ver 1A,2013-04-21 14:43:00,
2013-04-21 07:44:00,71.4,17.3,29.38,SE,131,6.0,7.1,12,-99.99,,,0.00,300.7,rob ver 1B,2013-04-21 14:44:00,
2013-04-21 07:45:00,71.2,17.1,29.38,SE,137,6.8,7.5,12,-99.99,,,0.00,304.6,rob ver 1B,2013-04-21 14:45:00,
2013-04-21 07:46:00,70.9,17.0,29.38,SE,135,6.4,7.4,12,-99.99,,,0.00,307.9,rob ver 1B,2013-04-21 14:46:00,
2013-04-21 07:47:00,70.9,17.0,29.38,SE,131,6.5,7.6,12,-99.99,,,0.00,311.8,rob ver 1B,2013-04-21 14:47:00,
2013-04-21 07:48:00,73.2,20.7,29.44,ENE,69,2.3,3.1,13,-99.99,,,0.00,318.1,rob ver 1A,2013-04-21 14:48:00,
2013-04-21 07:49:00,71.1,17.1,29.38,SE,124,6.1,7.3,12,-99.99,,,0.00,319.7,rob ver 1B,2013-04-21 14:49:00,
2013-04-21 07:50:00,71.3,17.1,29.38,ESE,113,5.7,7.0,12,-99.99,,,0.00,322.8,rob ver 1B,2013-04-21 14:50:00,
2013-04-21 07:51:00,71.6,17.2,29.38,ESE,117,5.5,6.6,12,-99.99,,,0.00,326.2,rob ver 1B,2013-04-21 14:51:00,
2013-04-21 07:52:00,71.8,17.2,29.38,ESE,120,5.6,7.2,12,-99.99,,,0.00,330.7,rob ver 1B,2013-04-21 14:52:00,
2013-04-21 07:53:00,73.8,20.7,29.44,ENE,74,3.5,4.3,13,-99.99,,,0.00,336.5,rob ver 1A,2013-04-21 14:53:00,
2013-04-21 07:54:00,72.0,17.2,29.38,ESE,109,5.6,6.7,12,-99.99,,,0.00,337.4,rob ver 1B,2013-04-21 14:54:00,
2013-04-21 07:55:00,72.3,17.3,29.38,ESE,108,5.6,7.5,12,-99.99,,,0.00,341.1,rob ver 1B,2013-04-21 14:55:00,
2013-04-21 07:56:00,72.6,17.0,29.38,East,93,8.6,11.9,11,-99.99,,,0.00,344.9,rob ver 1B,2013-04-21 14:56:00,
2013-04-21 07:57:00,73.2,16.7,29.38,East,94,8.2,11.3,11,-99.99,,,0.00,348.8,rob ver 1B,2013-04-21 14:57:00,
2013-04-21 07:58:00,74.0,21.0,29.44,ENE,65,3.8,4.7,13,-99.99,,,0.00,354.7,rob ver 1A,2013-04-21 14:58:00,
2013-04-21 07:59:00,74.0,17.0,29.38,East,90,7.5,9.9,11,-99.99,,,0.00,355.7,rob ver 1B,2013-04-21 14:59:00,
2013-04-21 08:00:00,74.4,17.1,29.38,East,89,7.9,9.8,11,-99.99,,,0.00,359.5,rob ver 1B,2013-04-21 15:00:00,
2013-04-21 08:01:00,74.4,16.9,29.38,East,94,8.5,10.8,11,-99.99,,,0.00,363.3,rob ver 1B,2013-04-21 15:01:00,
2013-04-21 08:02:00,74.4,16.8,29.38,East,93,9.6,10.9,11,-99.99,,,0.00,367,rob ver 1B,2013-04-21 15:02:00,
2013-04-21 08:03:00,74.5,20.9,29.44,NE,56,3.8,4.4,13,-99.99,,,0.00,372.9,rob ver 1A,2013-04-21 15:03:00,
2013-04-21 08:04:00,74.3,16.9,29.38,East,87,8.0,10.1,11,-99.99,,,0.00,374.1,rob ver 1B,2013-04-21 15:04:00,
2013-04-21 08:05:00,74.5,16.9,29.38,East,80,9.3,11.3,11,-99.99,,,0.00,378,rob ver 1B,2013-04-21 15:05:00,
2013-04-21 08:06:00,74.5,17.0,29.38,East,83,8.0,10.2,11,-99.99,,,0.00,381.1,rob ver 1B,2013-04-21 15:06:00,
2013-04-21 08:07:00,74.7,17.0,29.38,East,88,8.6,10.5,11,-99.99,,,0.00,385.6,rob ver 1B,2013-04-21 15:07:00,
2013-04-21 08:08:00,75.1,20.9,29.44,ENE,68,4.7,6.0,13,-99.99,,,0.00,391.4,rob ver 1A,2013-04-21 15:08:00,
2013-04-21 08:09:00,74.9,17.0,29.38,East,85,8.7,11.1,11,-99.99,,,0.00,391.8,rob ver 1B,2013-04-21 15:09:00,
2013-04-21 08:10:00,75.1,17.1,29.38,East,91,8.0,11.5,10,-99.99,,,0.00,395.1,rob ver 1B,2013-04-21 15:10:00,
2013-04-21 08:11:00,75.2,17.1,29.38,East,89,9.5,12.3,11,-99.99,,,0.00,399.8,rob ver 1B,2013-04-21 15:11:00,
2013-04-21 08:12:00,75.2,17.0,29.38,East,86,9.3,10.4,10,-99.99,,,0.00,403.1,rob ver 1B,2013-04-21 15:12:00,
2013-04-21 08:13:00,75.7,21.1,29.44,ENE,72,4.7,6.2,12,-99.99,,,0.00,409.6,rob ver 1A,2013-04-21 15:13:00,
2013-04-21 08:14:00,75.5,17.2,29.38,East,83,8.3,10.4,10,-99.99,,,0.00,410.3,rob ver 1B,2013-04-21 15:14:00,
2013-04-21 08:15:00,75.6,17.3,29.38,East,100,8.2,10.8,10,-99.99,,,0.00,413.7,rob ver 1B,2013-04-21 15:15:00,
2013-04-21 08:16:00,75.7,17.2,29.38,East,100,9.4,11.2,10,-99.99,,,0.00,417.7,rob ver 1B,2013-04-21 15:16:00,
2013-04-21 08:17:00,75.6,17.1,29.38,East,93,8.9,11.3,10,-99.99,,,0.00,421.3,rob ver 1B,2013-04-21 15:17:00,
2013-04-21 08:18:00,75.8,21.0,29.44,ENE,74,4.9,7.4,12,-99.99,,,0.00,427.3,rob ver 1A,2013-04-21 15:18:00,
2013-04-21 08:19:00,75.7,17.2,29.38,East,94,8.8,10.4,10,-99.99,,,0.00,428.5,rob ver 1B,2013-04-21 15:19:00,
2013-04-21 08:20:00,75.7,17.2,29.38,East,88,8.5,10.4,10,-99.99,,,0.00,432.4,rob ver 1B,2013-04-21 15:20:00,
2013-04-21 08:21:00,75.8,17.3,29.38,East,89,7.1,8.7,10,-99.99,,,0.00,436,rob ver 1B,2013-04-21 15:21:00,
2013-04-21 08:22:00,75.9,17.3,29.38,East,101,8.9,11.7,10,-99.99,,,0.00,439.5,rob ver 1B,2013-04-21 15:22:00,
2013-04-21 08:23:00,76.5,21.4,29.44,East,94,5.2,6.7,12,-99.99,,,0.00,445.4,rob ver 1A,2013-04-21 15:23:00,
2013-04-21 08:24:00,75.8,17.2,29.38,East,101,9.0,10.8,10,-99.99,,,0.00,446.2,rob ver 1B,2013-04-21 15:24:00,
2013-04-21 08:25:00,76.0,17.3,29.38,East,99,9.3,11.6,10,-99.99,,,0.00,449.6,rob ver 1B,2013-04-21 15:25:00,
2013-04-21 08:26:00,76.1,17.2,29.38,East,94,9.9,11.9,10,-99.99,,,0.00,453.7,rob ver 1B,2013-04-21 15:26:00,
2013-04-21 08:27:00,76.1,17.2,29.38,East,98,10.0,12.2,10,-99.99,,,0.00,457.3,rob ver 1B,2013-04-21 15:27:00,
2013-04-21 08:28:00,76.5,21.4,29.44,East,97,5.2,6.5,12,-99.99,,,0.00,463.5,rob ver 1A,2013-04-21 15:28:00,
2013-04-21 08:29:00,76.0,17.2,29.38,East,98,9.5,12.4,10,-99.99,,,0.00,464.1,rob ver 1B,2013-04-21 15:29:00,
2013-04-21 08:30:00,76.2,17.2,29.38,East,96,10.5,11.7,10,-99.99,,,0.00,467.3,rob ver 1B,2013-04-21 15:30:00,
2013-04-21 08:31:00,76.1,17.2,29.38,East,95,9.7,11.7,10,-99.99,,,0.00,471.1,rob ver 1B,2013-04-21 15:31:00,
2013-04-21 08:32:00,76.2,17.2,29.38,East,98,9.5,11.4,10,-99.99,,,0.00,474.4,rob ver 1B,2013-04-21 15:32:00,
2013-04-21 08:33:00,77.2,21.5,29.44,ESE,113,5.0,6.6,12,-99.99,,,0.00,481.3,rob ver 1A,2013-04-21 15:33:00,
2013-04-21 08:34:00,76.2,17.3,29.38,ESE,103,8.4,11.2,10,-99.99,,,0.00,481.9,rob ver 1B,2013-04-21 15:34:00,
2013-04-21 08:35:00,76.4,17.3,29.38,ESE,105,8.4,11.2,10,-99.99,,,0.00,484.5,rob ver 1B,2013-04-21 15:35:00,
2013-04-21 08:36:00,76.6,17.2,29.38,ESE,104,9.3,11.2,10,-99.99,,,0.00,488.5,rob ver 1B,2013-04-21 15:36:00,
2013-04-21 08:37:00,76.6,17.2,29.38,ESE,116,9.6,11.8,10,-99.99,,,0.00,491.2,rob ver 1B,2013-04-21 15:37:00,
2013-04-21 08:38:00,77.7,21.4,29.44,ESE,114,4.4,5.8,12,-99.99,,,0.00,498.7,rob ver 1A,2013-04-21 15:38:00,
2013-04-21 08:39:00,76.6,17.3,29.38,ESE,119,7.4,8.9,10,-99.99,,,0.00,498.8,rob ver 1B,2013-04-21 15:39:00,
2013-04-21 08:40:00,76.7,17.4,29.38,SE,126,8.5,10.8,10,-99.99,,,0.00,502,rob ver 1B,2013-04-21 15:40:00,
2013-04-21 08:41:00,76.7,17.3,29.38,ESE,120,8.9,10.8,10,-99.99,,,0.00,505.8,rob ver 1B,2013-04-21 15:41:00,
2013-04-21 08:42:00,76.8,17.4,29.38,ESE,119,8.8,10.9,10,-99.99,,,0.00,509.4,rob ver 1B,2013-04-21 15:42:00,
2013-04-21 08:43:00,79.0,21.9,29.44,East,86,3.9,4.9,11,-99.99,,,0.00,515.2,rob ver 1A,2013-04-21 15:43:00,
2013-04-21 08:44:00,76.7,17.6,29.38,ESE,118,8.3,12.1,10,-99.99,,,0.00,517.3,rob ver 1B,2013-04-21 15:44:00,
2013-04-21 08:45:00,76.4,17.6,29.38,ESE,122,5.8,7.1,10,-99.99,,,0.00,520.1,rob ver 1B,2013-04-21 15:45:00,
2013-04-21 08:46:00,76.6,17.7,29.38,ESE,107,6.2,8.7,10,-99.99,,,0.00,523.7,rob ver 1B,2013-04-21 15:46:00,
2013-04-21 08:47:00,77.0,18.2,29.38,SE,127,7.1,8.9,10,-99.99,,,0.00,526.6,rob ver 1B,2013-04-21 15:47:00,
2013-04-21 08:48:00,79.2,22.0,29.44,ESE,109,5.3,7.6,11,-99.99,,,0.00,533.1,rob ver 1A,2013-04-21 15:48:00,
2013-04-21 08:49:00,76.7,18.0,29.38,ESE,121,6.5,8.2,10,-99.99,,,0.00,532.7,rob ver 1B,2013-04-21 15:49:00,
2013-04-21 08:50:00,76.6,17.9,29.38,SE,126,5.7,7.6,10,-99.99,,,0.00,536.3,rob ver 1B,2013-04-21 15:50:00,
2013-04-21 08:51:00,76.5,17.8,29.38,ESE,121,6.1,7.5,10,-99.99,,,0.00,539.6,rob ver 1B,2013-04-21 15:51:00,
2013-04-21 08:52:00,76.4,17.9,29.38,SE,127,6.1,8.0,10,-99.99,,,0.00,543.3,rob ver 1B,2013-04-21 15:52:00,
2013-04-21 08:53:00,79.3,21.9,29.44,East,94,4.4,6.0,11,-99.99,,,0.00,548.8,rob ver 1A,2013-04-21 15:53:00,
2013-04-21 08:54:00,76.6,18.0,29.38,SE,136,4.8,8.0,10,-99.99,,,0.00,550.1,rob ver 1B,2013-04-21 15:54:00,
2013-04-21 08:55:00,76.7,17.7,29.38,SE,128,6.4,8.4,10,-99.99,,,0.00,554.6,rob ver 1B,2013-04-21 15:55:00,
2013-04-21 08:56:00,76.7,17.8,29.38,SE,132,5.6,6.5,10,-99.99,,,0.00,556.9,rob ver 1B,2013-04-21 15:56:00,
2013-04-21 08:57:00,76.8,17.7,29.38,ESE,119,5.7,7.3,10,-99.99,,,0.00,560.1,rob ver 1B,2013-04-21 15:57:00,
2013-04-21 08:58:00,80.6,22.1,29.44,East,89,6.1,8.0,11,-99.99,,,0.00,566.1,rob ver 1A,2013-04-21 15:58:00,
2013-04-21 08:59:00,77.1,17.8,29.38,ESE,115,4.3,6.1,10,-99.99,,,0.00,566.4,rob ver 1B,2013-04-21 15:59:00,
2013-04-21 09:00:00,77.2,17.5,29.38,ESE,112,5.0,6.4,10,-99.99,,,0.00,570.7,rob ver 1B,2013-04-21 16:00:00,
2013-04-21 09:01:00,77.2,17.9,29.38,SE,133,5.3,6.9,10,-99.99,,,0.00,572.8,rob ver 1B,2013-04-21 16:01:00,
2013-04-21 09:02:00,77.5,18.0,29.38,ESE,120,4.3,5.7,10,-99.99,,,0.00,576.1,rob ver 1B,2013-04-21 16:02:00,
2013-04-21 09:03:00,80.7,21.7,29.47,East,100,5.7,7.4,11,-99.99,,,0.00,582.2,rob ver 1A,2013-04-21 16:03:00,
2013-04-21 09:04:00,78.0,17.5,29.38,ESE,116,4.8,7.0,10,-99.99,,,0.00,582.5,rob ver 1B,2013-04-21 16:04:00,
2013-04-21 09:05:00,77.7,17.3,29.38,ESE,112,5.3,6.6,10,-99.99,,,0.00,585.8,rob ver 1B,2013-04-21 16:05:00,
2013-04-21 09:06:00,77.5,17.5,29.38,SE,124,3.8,5.5,10,-99.99,,,0.00,589.4,rob ver 1B,2013-04-21 16:06:00,
2013-04-21 09:07:00,77.7,17.8,29.38,ESE,111,4.2,5.7,10,-99.99,,,0.00,592.2,rob ver 1B,2013-04-21 16:07:00,
2013-04-21 09:08:00,81.2,22.0,29.47,ESE,112,4.2,6.8,11,-99.99,,,0.00,598,rob ver 1A,2013-04-21 16:08:00,
2013-04-21 09:09:00,78.1,17.4,29.38,ESE,109,4.6,6.6,10,-99.99,,,0.00,598.5,rob ver 1B,2013-04-21 16:09:00,
2013-04-21 09:10:00,78.3,17.5,29.38,ESE,120,2.9,4.5,10,-99.99,,,0.00,601.8,rob ver 1B,2013-04-21 16:10:00,
2013-04-21 09:11:00,78.5,17.4,29.38,SE,124,4.6,7.3,10,-99.99,,,0.00,604.8,rob ver 1B,2013-04-21 16:11:00,
2013-04-21 09:12:00,78.6,17.3,29.38,SE,130,5.0,6.5,9,-99.99,,,0.00,607.9,rob ver 1B,2013-04-21 16:12:00,
2013-04-21 09:13:00,81.3,22.1,29.47,ESE,102,4.6,6.6,11,-99.99,,,0.00,613.6,rob ver 1A,2013-04-21 16:13:00,
2013-04-21 09:14:00,78.1,17.3,29.38,SE,139,5.4,7.1,9,-99.99,,,0.00,615.1,rob ver 1B,2013-04-21 16:14:00,
2013-04-21 09:15:00,78.0,16.9,29.38,SE,139,4.1,6.0,9,-99.99,,,0.00,618.4,rob ver 1B,2013-04-21 16:15:00,
2013-04-21 09:16:00,78.0,16.9,29.38,SE,141,3.7,5.7,9,-99.99,,,0.00,621.5,rob ver 1B,2013-04-21 16:16:00,
2013-04-21 09:17:00,78.1,16.9,29.38,SSE,150,3.1,5.5,9,-99.99,,,0.00,624.9,rob ver 1B,2013-04-21 16:17:00,
2013-04-21 09:18:00,81.9,22.3,29.47,ESE,114,5.0,6.6,11,-99.99,,,0.00,629.8,rob ver 1A,2013-04-21 16:18:00,
2013-04-21 09:19:00,78.2,17.0,29.38,SE,145,2.6,3.3,9,-99.99,,,0.00,631.6,rob ver 1B,2013-04-21 16:19:00,
2013-04-21 09:20:00,78.5,17.3,29.38,SE,129,3.1,5.0,9,-99.99,,,0.00,633.9,rob ver 1B,2013-04-21 16:20:00,
2013-04-21 09:21:00,78.8,17.3,29.38,SE,140,3.6,4.7,9,-99.99,,,0.00,637.8,rob ver 1B,2013-04-21 16:21:00,
2013-04-21 09:22:00,79.0,17.4,29.38,SSE,152,3.0,4.7,9,-99.99,,,0.00,641.1,rob ver 1B,2013-04-21 16:22:00,
2013-04-21 09:23:00,82.5,21.7,29.47,East,90,5.0,6.6,10,-99.99,,,0.00,645.8,rob ver 1A,2013-04-21 16:23:00,
2013-04-21 09:24:00,79.5,17.2,29.38,SE,130,4.5,6.0,9,-99.99,,,0.00,646.5,rob ver 1B,2013-04-21 16:24:00,
2013-04-21 09:25:00,79.1,16.7,29.38,SE,128,3.6,5.8,9,-99.99,,,0.00,650.6,rob ver 1B,2013-04-21 16:25:00,
2013-04-21 09:26:00,78.9,16.8,29.38,SE,134,4.8,6.6,9,-99.99,,,0.00,652.7,rob ver 1B,2013-04-21 16:26:00,
2013-04-21 09:27:00,78.7,16.8,29.38,SE,143,3.9,5.0,9,-99.99,,,0.00,656.4,rob ver 1B,2013-04-21 16:27:00,
2013-04-21 09:28:00,82.1,22.3,29.47,SSE,148,5.8,7.6,10,-99.99,,,0.00,660.7,rob ver 1A,2013-04-21 16:28:00,
2013-04-21 09:29:00,78.9,16.9,29.38,SE,130,2.3,3.8,9,-99.99,,,0.00,662,rob ver 1B,2013-04-21 16:29:00,
2013-04-21 09:30:00,79.1,17.1,29.38,SSE,150,4.7,7.0,9,-99.99,,,0.00,664.4,rob ver 1B,2013-04-21 16:30:00,
2013-04-21 09:31:00,79.0,16.9,29.38,SE,144,4.4,5.8,9,-99.99,,,0.00,667.9,rob ver 1B,2013-04-21 16:31:00,
2013-04-21 09:32:00,78.9,16.8,29.38,SE,144,3.3,4.7,9,-99.99,,,0.00,671,rob ver 1B,2013-04-21 16:32:00,
2013-04-21 09:33:00,82.0,22.4,29.47,SE,138,5.8,7.9,10,-99.99,,,0.00,675.4,rob ver 1A,2013-04-21 16:33:00,
2013-04-21 09:34:00,79.2,16.9,29.38,SSE,155,3.3,4.9,9,-99.99,,,0.00,677.1,rob ver 1B,2013-04-21 16:34:00,
2013-04-21 09:35:00,79.2,16.8,29.38,SE,142,3.7,5.2,9,-99.99,,,0.00,680.7,rob ver 1B,2013-04-21 16:35:00,
2013-04-21 09:36:00,79.2,16.9,29.38,SE,131,2.9,5.5,9,-99.99,,,0.00,682.1,rob ver 1B,2013-04-21 16:36:00,
2013-04-21 09:37:00,79.5,17.1,29.38,SE,146,4.2,5.7,9,-99.99,,,0.00,685.4,rob ver 1B,2013-04-21 16:37:00,
2013-04-21 09:38:00,81.9,21.9,29.47,SSE,158,5.8,8.6,10,-99.99,,,0.00,690.1,rob ver 1A,2013-04-21 16:38:00,
2013-04-21 09:39:00,79.8,16.9,29.38,SSE,151,1.9,3.0,9,-99.99,,,0.00,691,rob ver 1B,2013-04-21 16:39:00,
2013-04-21 09:40:00,80.3,17.3,29.38,South,172,1.1,2.9,9,-99.99,,,0.00,694.6,rob ver 1B,2013-04-21 16:40:00,
2013-04-21 09:41:00,80.7,17.3,29.38,SSE,157,3.2,5.6,9,-99.99,,,0.00,696.7,rob ver 1B,2013-04-21 16:41:00,
2013-04-21 09:42:00,80.5,17.1,29.38,SE,137,3.7,4.5,9,-99.99,,,0.00,700,rob ver 1B,2013-04-21 16:42:00,
2013-04-21 09:43:00,81.9,22.3,29.47,SSE,148,4.6,6.8,11,-99.99,,,0.00,706,rob ver 1A,2013-04-21 16:43:00,
2013-04-21 09:44:00,80.1,16.9,29.38,ESE,117,1.7,3.1,9,-99.99,,,0.00,706,rob ver 1B,2013-04-21 16:44:00,
2013-04-21 09:45:00,80.7,17.1,29.38,East,80,2.3,3.5,9,-99.99,,,0.00,709,rob ver 1B,2013-04-21 16:45:00,
2013-04-21 09:46:00,81.3,17.3,29.38,ESE,112,3.0,4.7,9,-99.99,,,0.00,712,rob ver 1B,2013-04-21 16:46:00,
2013-04-21 09:47:00,81.0,16.8,29.38,SE,129,4.3,5.3,9,-99.99,,,0.00,714,rob ver 1B,2013-04-21 16:47:00,
2013-04-21 09:48:00,81.5,23.6,29.47,SSE,158,6.6,7.8,11,-99.99,,,0.00,722,rob ver 1A,2013-04-21 16:48:00,
2013-04-21 09:49:00,80.3,16.7,29.38,SSE,164,3.6,5.7,9,-99.99,,,0.00,720,rob ver 1B,2013-04-21 16:49:00,
2013-04-21 09:50:00,80.4,17.1,29.38,SSE,166,3.7,5.0,9,-99.99,,,0.00,722,rob ver 1B,2013-04-21 16:50:00,
2013-04-21 09:51:00,80.6,17.2,29.38,SSE,157,2.4,3.5,9,-99.99,,,0.00,725,rob ver 1B,2013-04-21 16:51:00,
2013-04-21 09:52:00,80.8,17.3,29.38,SSE,162,2.3,4.1,9,-99.99,,,0.00,728,rob ver 1B,2013-04-21 16:52:00,
2013-04-21 09:53:00,82.3,23.4,29.47,SSE,149,4.8,6.1,11,-99.99,,,0.00,734,rob ver 1A,2013-04-21 16:53:00,
2013-04-21 09:54:00,81.7,18.1,29.38,SSE,167,2.7,4.4,9,-99.99,,,0.00,734,rob ver 1B,2013-04-21 16:54:00,
2013-04-21 09:55:00,81.9,17.7,29.38,SSE,161,2.1,3.6,9,-99.99,,,0.00,735,rob ver 1B,2013-04-21 16:55:00,
2013-04-21 09:56:00,81.8,17.4,29.38,ESE,117,4.7,6.0,8,-99.99,,,0.00,739,rob ver 1B,2013-04-21 16:56:00,
2013-04-21 09:57:00,81.4,17.1,29.38,ESE,107,3.3,5.0,8,-99.99,,,0.00,742,rob ver 1B,2013-04-21 16:57:00,
2013-04-21 09:58:00,82.6,23.3,29.47,SE,143,5.2,7.2,11,-99.99,,,0.00,721,rob ver 1A,2013-04-21 16:58:00,
2013-04-21 09:59:00,81.1,16.8,29.38,East,99,2.9,4.2,8,-99.99,,,0.00,747,rob ver 1B,2013-04-21 16:59:00,
2013-04-21 10:00:00,81.2,16.8,29.38,East,86,2.4,4.2,8,-99.99,,,0.00,750,rob ver 1B,2013-04-21 17:00:00,
2013-04-21 10:01:00,81.6,17.1,29.38,East,80,2.0,3.6,8,-99.99,,,0.00,752,rob ver 1B,2013-04-21 17:01:00,
2013-04-21 10:02:00,82.0,17.6,29.38,SSE,147,3.0,6.0,8,-99.99,,,0.00,754,rob ver 1B,2013-04-21 17:02:00,
2013-04-21 10:03:00,82.5,23.5,29.47,SSE,156,4.0,6.4,11,-99.99,,,0.00,759,rob ver 1A,2013-04-21 17:03:00,
2013-04-21 10:04:00,81.4,17.3,29.38,SSE,156,2.8,4.2,9,-99.99,,,0.00,760,rob ver 1B,2013-04-21 17:04:00,
2013-04-21 10:05:00,81.7,17.3,29.38,SSW,208,1.8,3.4,9,-99.99,,,0.00,762,rob ver 1B,2013-04-21 17:05:00,
2013-04-21 10:06:00,82.0,17.2,29.38,SSE,156,1.5,3.2,8,-99.99,,,0.00,765,rob ver 1B,2013-04-21 17:06:00,
2013-04-21 10:07:00,82.5,17.4,29.38,WSW,244,0.9,1.9,8,-99.99,,,0.00,767,rob ver 1B,2013-04-21 17:07:00,
2013-04-21 10:08:00,83.0,17.9,29.38,SSE,153,3.4,5.7,8,-99.99,,,0.00,771,rob ver 1B,2013-04-21 17:08:00,
2013-04-21 10:09:00,83.1,23.5,29.47,SSE,168,4.3,6.2,11,-99.99,,,0.00,773,rob ver 1A,2013-04-21 17:09:00,
2013-04-21 10:10:00,82.2,17.6,29.38,SE,139,2.8,4.4,8,-99.99,,,0.00,776,rob ver 1B,2013-04-21 17:10:00,
2013-04-21 10:11:00,82.4,17.7,29.38,SSW,200,3.4,5.7,8,-99.99,,,0.00,778,rob ver 1B,2013-04-21 17:11:00,
2013-04-21 10:12:00,82.5,17.6,29.38,SSW,194,2.3,4.0,9,-99.99,,,0.00,783,rob ver 1B,2013-04-21 17:12:00,
2013-04-21 10:13:00,82.7,17.9,29.38,South,176,4.4,6.4,8,-99.99,,,0.00,783,rob ver 1B,2013-04-21 17:13:00,
2013-04-21 10:14:00,83.8,23.6,29.47,SSE,148,6.1,8.3,10,-99.99,,,0.00,786,rob ver 1A,2013-04-21 17:14:00,
2013-04-21 10:15:00,82.1,17.6,29.38,SSE,151,4.4,5.4,8,-99.99,,,0.00,788,rob ver 1B,2013-04-21 17:15:00,
2013-04-21 10:16:00,82.1,17.6,29.38,SSE,155,3.9,5.4,9,-99.99,,,0.00,791,rob ver 1B,2013-04-21 17:16:00,
2013-04-21 10:17:00,82.3,18.2,29.38,SSE,156,2.8,4.1,9,-99.99,,,0.00,793,rob ver 1B,2013-04-21 17:17:00,
2013-04-21 10:18:00,82.9,17.9,29.38,SE,141,2.3,3.2,8,-99.99,,,0.00,795,rob ver 1B,2013-04-21 17:18:00,
2013-04-21 10:19:00,84.1,24.0,29.47,South,180,6.8,8.5,10,-99.99,,,0.00,797,rob ver 1A,2013-04-21 17:19:00,
2013-04-21 10:20:00,83.2,17.7,29.38,SSE,159,5.2,7.6,8,-99.99,,,0.00,800,rob ver 1B,2013-04-21 17:20:00,
2013-04-21 10:21:00,82.8,17.5,29.38,SSW,196,3.6,5.5,8,-99.99,,,0.00,803,rob ver 1B,2013-04-21 17:21:00,
2013-04-21 10:22:00,83.0,17.6,29.38,SSW,200,3.0,3.9,8,-99.99,,,0.00,805,rob ver 1B,2013-04-21 17:22:00,
2013-04-21 10:23:00,83.1,17.7,29.38,SE,145,1.5,3.0,8,-99.99,,,0.00,808,rob ver 1B,2013-04-21 17:23:00,
2013-04-21 10:24:00,84.7,24.2,29.47,SSE,162,6.7,9.6,10,-99.99,,,0.00,809,rob ver 1A,2013-04-21 17:24:00,
2013-04-21 10:25:00,83.0,17.6,29.38,SSE,162,2.4,3.9,8,-99.99,,,0.00,812,rob ver 1B,2013-04-21 17:25:00,
2013-04-21 10:26:00,83.0,17.8,29.38,SE,141,4.3,6.0,8,-99.99,,,0.00,815,rob ver 1B,2013-04-21 17:26:00,
2013-04-21 10:27:00,82.8,17.6,29.38,SE,131,2.9,4.3,8,-99.99,,,0.00,814,rob ver 1B,2013-04-21 17:27:00,
2013-04-21 10:28:00,82.9,17.6,29.38,ESE,119,2.8,4.1,8,-99.99,,,0.00,818,rob ver 1B,2013-04-21 17:28:00,
2013-04-21 10:29:00,85.2,24.3,29.47,SSE,153,8.4,11.1,10,-99.99,,,0.00,821,rob ver 1A,2013-04-21 17:29:00,
2013-04-21 10:30:00,83.0,17.8,29.38,South,171,4.3,5.8,8,-99.99,,,0.00,821,rob ver 1B,2013-04-21 17:30:00,
2013-04-21 10:31:00,83.3,17.8,29.38,SSW,192,3.4,4.3,8,-99.99,,,0.00,827,rob ver 1B,2013-04-21 17:31:00,
2013-04-21 10:32:00,83.5,17.9,29.38,SSE,149,5.4,8.9,8,-99.99,,,0.00,829,rob ver 1B,2013-04-21 17:32:00,
2013-04-21 10:33:00,83.2,17.6,29.38,SSE,163,6.1,8.4,8,-99.99,,,0.00,832,rob ver 1B,2013-04-21 17:33:00,
2013-04-21 10:34:00,85.4,23.8,29.47,South,177,7.3,9.7,10,-99.99,,,0.00,832,rob ver 1A,2013-04-21 17:34:00,
2013-04-21 10:35:00,83.1,17.7,29.38,SE,143,4.0,5.3,8,-99.99,,,0.00,837,rob ver 1B,2013-04-21 17:35:00,
2013-04-21 10:36:00,83.3,17.8,29.38,SE,145,5.5,6.6,8,-99.99,,,0.00,837,rob ver 1B,2013-04-21 17:36:00,
2013-04-21 10:37:00,83.2,17.7,29.38,ESE,107,3.4,5.1,8,-99.99,,,0.00,840,rob ver 1B,2013-04-21 17:37:00,
2013-04-21 10:38:00,83.5,18.1,29.38,SE,129,2.4,3.8,8,-99.99,,,0.00,842,rob ver 1B,2013-04-21 17:38:00,
2013-04-21 10:39:00,85.2,23.1,29.47,SE,137,8.2,10.0,10,-99.99,,,0.00,843,rob ver 1A,2013-04-21 17:39:00,
2013-04-21 10:40:00,83.9,17.8,29.38,SE,130,5.2,7.3,8,-99.99,,,0.00,846,rob ver 1B,2013-04-21 17:40:00,
2013-04-21 10:41:00,83.4,17.8,29.38,SSE,158,3.8,5.9,8,-99.99,,,0.00,848,rob ver 1B,2013-04-21 17:41:00,
2013-04-21 10:42:00,83.5,17.9,29.38,ESE,106,4.4,6.6,8,-99.99,,,0.00,850,rob ver 1B,2013-04-21 17:42:00,
2013-04-21 10:43:00,83.4,17.7,29.38,East,88,4.0,6.6,8,-99.99,,,0.00,852,rob ver 1B,2013-04-21 17:43:00,
2013-04-21 10:44:00,85.6,22.4,29.47,South,173,9.4,12.1,9,-99.99,,,0.00,853,rob ver 1A,2013-04-21 17:44:00,
2013-04-21 10:45:00,84.2,18.5,29.38,SSE,150,2.3,3.9,8,-99.99,,,0.00,857,rob ver 1B,2013-04-21 17:45:00,
2013-04-21 10:46:00,84.5,18.1,29.38,SE,131,6.5,9.0,8,-99.99,,,0.00,860,rob ver 1B,2013-04-21 17:46:00,
2013-04-21 10:47:00,84.1,17.9,29.38,SE,146,7.7,10.2,8,-99.99,,,0.00,862,rob ver 1B,2013-04-21 17:47:00,
2013-04-21 10:48:00,83.8,17.9,29.38,SSE,148,6.7,9.4,8,-99.99,,,0.00,863,rob ver 1B,2013-04-21 17:48:00,
2013-04-21 10:49:00,85.6,22.5,29.47,ESE,120,5.6,8.1,9,-99.99,,,0.00,864,rob ver 1A,2013-04-21 17:49:00,
2013-04-21 10:50:00,83.9,18.2,29.38,SE,143,4.5,8.0,8,-99.99,,,0.00,867,rob ver 1B,2013-04-21 17:50:00,
2013-04-21 10:51:00,84.1,18.3,29.38,SE,137,5.8,7.8,8,-99.99,,,0.00,868,rob ver 1B,2013-04-21 17:51:00,
2013-04-21 10:52:00,83.9,18.2,29.38,ESE,118,4.0,6.1,8,-99.99,,,0.00,871,rob ver 1B,2013-04-21 17:52:00,
2013-04-21 10:53:00,84.0,18.4,29.38,South,174,3.4,4.7,8,-99.99,,,0.00,872,rob ver 1B,2013-04-21 17:53:00,
2013-04-21 10:54:00,86.3,22.4,29.47,SSE,162,7.1,11.3,9,-99.99,,,0.00,873,rob ver 1A,2013-04-21 17:54:00,
2013-04-21 10:55:00,84.7,18.3,29.38,SE,146,3.8,5.5,8,-99.99,,,0.00,874,rob ver 1B,2013-04-21 17:55:00,
2013-04-21 10:56:00,84.6,18.2,29.38,ESE,120,6.3,8.8,8,-99.99,,,0.00,877,rob ver 1B,2013-04-21 17:56:00,
2013-04-21 10:57:00,84.3,18.1,29.38,ESE,123,6.2,8.5,8,-99.99,,,0.00,878,rob ver 1B,2013-04-21 17:57:00,
2013-04-21 10:58:00,84.4,18.3,29.38,SE,136,6.9,10.8,8,-99.99,,,0.00,880,rob ver 1B,2013-04-21 17:58:00,
2013-04-21 10:59:00,86.6,21.3,29.47,SSE,151,6.7,8.9,9,-99.99,,,0.00,882,rob ver 1A,2013-04-21 17:59:00,
2013-04-21 11:00:00,84.2,18.2,29.38,SSE,166,6.9,10.4,8,-99.99,,,0.00,883,rob ver 1B,2013-04-21 18:00:00,
2013-04-21 11:01:00,84.4,18.2,29.38,SSE,160,5.7,8.0,8,-99.99,,,0.00,884,rob ver 1B,2013-04-21 18:01:00,
2013-04-21 11:02:00,84.4,18.2,29.38,SSE,150,4.5,8.3,8,-99.99,,,0.00,887,rob ver 1B,2013-04-21 18:02:00,
2013-04-21 11:03:00,84.6,18.3,29.38,ESE,117,7.5,9.2,8,-99.99,,,0.00,888,rob ver 1B,2013-04-21 18:03:00,
2013-04-21 11:04:00,87.1,21.7,29.47,South,169,9.1,12.1,9,-99.99,,,0.00,892,rob ver 1A,2013-04-21 18:04:00,
2013-04-21 11:05:00,85.2,18.6,29.38,SE,133,6.9,11.1,8,-99.99,,,0.00,891,rob ver 1B,2013-04-21 18:05:00,
2013-04-21 11:06:00,85.2,18.4,29.38,South,179,8.1,10.3,8,-99.99,,,0.00,893,rob ver 1B,2013-04-21 18:06:00,
2013-04-21 11:07:00,85.1,18.5,29.38,South,174,7.8,11.6,8,-99.99,,,0.00,895,rob ver 1B,2013-04-21 18:07:00,
2013-04-21 11:08:00,85.2,18.5,29.38,SSE,162,7.9,10.2,8,-99.99,,,0.00,895,rob ver 1B,2013-04-21 18:08:00,
2013-04-21 11:09:00,86.9,21.7,29.47,SSE,155,7.8,10.9,9,-99.99,,,0.00,900,rob ver 1A,2013-04-21 18:09:00,
2013-04-21 11:10:00,85.0,18.4,29.38,SSE,158,5.2,8.8,8,-99.99,,,0.00,898,rob ver 1B,2013-04-21 18:10:00,
2013-04-21 11:11:00,85.1,19.1,29.38,SE,135,8.5,12.3,8,-99.99,,,0.00,901,rob ver 1B,2013-04-21 18:11:00,
2013-04-21 11:12:00,85.9,19.3,29.38,SE,134,10.3,14.7,8,-99.99,,,0.00,902,rob ver 1B,2013-04-21 18:12:00,
2013-04-21 11:13:00,85.4,19.1,29.38,ESE,123,7.7,9.5,8,-99.99,,,0.00,902,rob ver 1B,2013-04-21 18:13:00,
2013-04-21 11:14:00,87.5,21.6,29.47,South,171,7.5,9.5,8,-99.99,,,0.00,907,rob ver 1A,2013-04-21 18:14:00,
2013-04-21 11:15:00,85.1,19.1,29.38,SE,137,7.1,11.6,8,-99.99,,,0.00,904,rob ver 1B,2013-04-21 18:15:00,
2013-04-21 11:16:00,85.3,19.5,29.38,SE,134,9.3,13.0,8,-99.99,,,0.00,907,rob ver 1B,2013-04-21 18:16:00,
2013-04-21 11:17:00,85.2,19.7,29.38,ESE,115,7.8,10.1,8,-99.99,,,0.00,909,rob ver 1B,2013-04-21 18:17:00,
2013-04-21 11:18:00,85.1,19.8,29.38,SE,130,8.2,12.0,8,-99.99,,,0.00,911,rob ver 1B,2013-04-21 18:18:00,
2013-04-21 11:19:00,87.4,21.7,29.47,SSE,152,4.8,8.9,8,-99.99,,,0.00,915,rob ver 1A,2013-04-21 18:19:00,
2013-04-21 11:20:00,85.0,19.4,29.38,SE,132,7.1,10.3,8,-99.99,,,0.00,915,rob ver 1B,2013-04-21 18:20:00,
2013-04-21 11:21:00,85.2,19.3,29.38,SSE,154,6.7,8.5,8,-99.99,,,0.00,915,rob ver 1B,2013-04-21 18:21:00,
2013-04-21 11:22:00,85.0,19.5,29.38,SSE,159,5.5,8.1,8,-99.99,,,0.00,918,rob ver 1B,2013-04-21 18:22:00,
2013-04-21 11:23:00,85.2,19.8,29.38,SSE,148,5.9,7.3,9,-99.99,,,0.00,918,rob ver 1B,2013-04-21 18:23:00,
2013-04-21 11:24:00,87.5,21.8,29.47,SE,127,6.1,8.1,8,-99.99,,,0.00,923,rob ver 1A,2013-04-21 18:24:00,
2013-04-21 11:25:00,86.0,20.5,29.38,SSE,165,9.4,13.6,8,-99.99,,,0.00,923,rob ver 1B,2013-04-21 18:25:00,
2013-04-21 11:26:00,86.0,20.6,29.38,SSW,194,9.6,11.8,8,-99.99,,,0.00,923,rob ver 1B,2013-04-21 18:26:00,
2013-04-21 11:27:00,85.9,20.5,29.38,SSW,192,7.4,9.7,8,-99.99,,,0.00,925,rob ver 1B,2013-04-21 18:27:00,
2013-04-21 11:28:00,86.2,21.1,29.38,South,170,7.9,10.8,9,-99.99,,,0.00,918,rob ver 1B,2013-04-21 18:28:00,
2013-04-21 11:29:00,87.5,21.0,29.47,SE,144,8.1,10.3,8,-99.99,,,0.00,930,rob ver 1A,2013-04-21 18:29:00,
2013-04-21 11:30:00,86.1,21.1,29.38,South,180,7.7,10.5,9,-99.99,,,0.00,921,rob ver 1B,2013-04-21 18:30:00,
2013-04-21 11:31:00,86.0,21.0,29.38,SSE,161,9.6,12.5,9,-99.99,,,0.00,912,rob ver 1B,2013-04-21 18:31:00,
2013-04-21 11:32:00,85.8,21.0,29.38,SSE,167,9.7,12.5,9,-99.99,,,0.00,915,rob ver 1B,2013-04-21 18:32:00,
2013-04-21 11:33:00,85.7,21.1,29.38,SSE,159,7.9,13.2,9,-99.99,,,0.00,914,rob ver 1B,2013-04-21 18:33:00,
2013-04-21 11:34:00,87.5,20.6,29.44,SSE,155,9.3,11.1,8,-99.99,,,0.00,936,rob ver 1A,2013-04-21 18:34:00,
2013-04-21 11:35:00,86.6,21.8,29.38,South,169,7.3,10.4,9,-99.99,,,0.00,905,rob ver 1B,2013-04-21 18:35:00,
2013-04-21 11:36:00,87.0,21.7,29.38,South,171,8.6,12.0,9,-99.99,,,0.00,910,rob ver 1B,2013-04-21 18:36:00,
2013-04-21 11:37:00,86.3,21.3,29.38,SSE,158,5.7,8.1,9,-99.99,,,0.00,908,rob ver 1B,2013-04-21 18:37:00,
2013-04-21 11:38:00,86.0,21.3,29.38,SSE,165,4.2,7.8,9,-99.99,,,0.00,920,rob ver 1B,2013-04-21 18:38:00,
2013-04-21 11:39:00,87.8,19.9,29.47,SSE,162,8.9,12.3,8,-99.99,,,0.00,942,rob ver 1A,2013-04-21 18:39:00,
2013-04-21 11:40:00,86.5,21.8,29.38,SSE,166,5.1,7.1,9,-99.99,,,0.00,938,rob ver 1B,2013-04-21 18:40:00,
2013-04-21 11:41:00,87.1,21.6,29.38,ESE,114,7.1,9.3,9,-99.99,,,0.00,940,rob ver 1B,2013-04-21 18:41:00,
2013-04-21 11:42:00,87.0,21.6,29.38,ESE,117,6.8,8.6,9,-99.99,,,0.00,944,rob ver 1B,2013-04-21 18:42:00,
2013-04-21 11:43:00,87.1,21.7,29.38,ESE,120,5.9,7.7,9,-99.99,,,0.00,943,rob ver 1B,2013-04-21 18:43:00,
2013-04-21 11:44:00,88.4,21.0,29.44,SSE,157,8.3,10.7,8,-99.99,,,0.00,950,rob ver 1A,2013-04-21 18:44:00,
2013-04-21 11:45:00,87.3,21.8,29.35,SE,140,6.3,9.2,9,-99.99,,,0.00,946,rob ver 1B,2013-04-21 18:45:00,
2013-04-21 11:46:00,86.7,21.9,29.35,SE,146,5.2,7.7,9,-99.99,,,0.00,944,rob ver 1B,2013-04-21 18:46:00,
2013-04-21 11:47:00,87.1,23.6,29.35,SSE,153,7.4,10.4,9,-99.99,,,0.00,945,rob ver 1B,2013-04-21 18:47:00,
2013-04-21 11:48:00,87.2,23.5,29.35,SE,129,7.6,11.9,10,-99.99,,,0.00,946,rob ver 1B,2013-04-21 18:48:00,
2013-04-21 11:49:00,88.1,21.1,29.44,SE,138,7.9,13.0,8,-99.99,,,0.00,951,rob ver 1A,2013-04-21 18:49:00,
2013-04-21 11:50:00,87.4,25.2,29.35,SE,134,5.7,8.8,10,-99.99,,,0.00,947,rob ver 1B,2013-04-21 18:50:00,
2013-04-21 11:51:00,87.9,25.1,29.35,SE,140,8.6,12.1,10,-99.99,,,0.00,949,rob ver 1B,2013-04-21 18:51:00,
2013-04-21 11:52:00,87.9,24.8,29.35,SE,141,8.7,12.3,10,-99.99,,,0.00,950,rob ver 1B,2013-04-21 18:52:00,
2013-04-21 11:53:00,87.4,24.8,29.35,SE,130,6.1,8.7,10,-99.99,,,0.00,951,rob ver 1B,2013-04-21 18:53:00,
2013-04-21 11:54:00,88.6,21.1,29.44,SSW,193,6.9,8.4,8,-99.99,,,0.00,956,rob ver 1A,2013-04-21 18:54:00,
2013-04-21 11:55:00,87.6,25.0,29.35,SE,137,8.5,10.6,10,-99.99,,,0.00,952,rob ver 1B,2013-04-21 18:55:00,
2013-04-21 11:56:00,87.4,25.1,29.35,SE,133,7.4,10.2,10,-99.99,,,0.00,955,rob ver 1B,2013-04-21 18:56:00,
2013-04-21 11:57:00,87.3,25.2,29.35,ESE,114,6.3,11.0,10,-99.99,,,0.00,947,rob ver 1B,2013-04-21 18:57:00,
2013-04-21 11:58:00,87.3,25.3,29.35,SSE,153,5.9,8.2,10,-99.99,,,0.00,942,rob ver 1B,2013-04-21 18:58:00,
2013-04-21 11:59:00,89.5,20.8,29.44,SSW,197,7.9,13.6,8,-99.99,,,0.00,960,rob ver 1A,2013-04-21 18:59:00,
2013-04-21 12:00:00,87.7,25.0,29.35,SE,143,9.1,12.1,10,-99.99,,,0.00,953,rob ver 1B,2013-04-21 19:00:00,
2013-04-21 12:01:00,87.3,24.8,29.35,ESE,116,4.9,8.0,10,-99.99,,,0.00,954,rob ver 1B,2013-04-21 19:01:00,
2013-04-21 12:02:00,87.4,24.9,29.35,ESE,104,2.5,3.9,10,-99.99,,,0.00,955,rob ver 1B,2013-04-21 19:02:00,
2013-04-21 12:03:00,87.7,25.0,29.35,SE,130,5.9,9.3,10,-99.99,,,0.00,957,rob ver 1B,2013-04-21 19:03:00,
2013-04-21 12:04:00,89.0,22.3,29.44,South,188,6.5,10.0,8,-99.99,,,0.00,964,rob ver 1A,2013-04-21 19:04:00,
2013-04-21 12:05:00,88.0,25.2,29.35,SSE,156,7.4,9.0,10,-99.99,,,0.00,959,rob ver 1B,2013-04-21 19:05:00,
2013-04-21 12:06:00,87.9,25.0,29.35,South,177,5.5,7.2,10,-99.99,,,0.00,956,rob ver 1B,2013-04-21 19:06:00,
2013-04-21 12:07:00,87.9,25.1,29.35,South,170,5.9,9.9,10,-99.99,,,0.00,959,rob ver 1B,2013-04-21 19:07:00,
2013-04-21 12:08:00,88.2,25.0,29.35,South,178,6.8,10.3,9,-99.99,,,0.00,959,rob ver 1B,2013-04-21 19:08:00,
2013-04-21 12:09:00,88.9,22.5,29.44,SSE,163,5.4,8.3,9,-99.99,,,0.00,967,rob ver 1A,2013-04-21 19:09:00,
2013-04-21 12:10:00,88.5,24.4,29.35,SSW,198,8.7,11.0,9,-99.99,,,0.00,959,rob ver 1B,2013-04-21 19:10:00,
2013-04-21 12:11:00,88.2,24.3,29.35,SSW,192,7.1,9.5,9,-99.99,,,0.00,960,rob ver 1B,2013-04-21 19:11:00,
2013-04-21 12:12:00,87.9,24.1,29.35,SSE,150,3.2,6.7,9,-99.99,,,0.00,961,rob ver 1B,2013-04-21 19:12:00,
2013-04-21 12:13:00,88.0,24.3,29.35,SW,224,5.5,9.9,9,-99.99,,,0.00,960,rob ver 1B,2013-04-21 19:13:00,
2013-04-21 12:14:00,89.9,22.2,29.44,SSE,147,10.0,13.8,8,-99.99,,,0.00,967,rob ver 1A,2013-04-21 19:14:00,
2013-04-21 12:15:00,88.2,24.5,29.35,ESE,107,6.0,9.5,9,-99.99,,,0.00,960,rob ver 1B,2013-04-21 19:15:00,
2013-04-21 12:16:00,88.3,24.7,29.35,SE,145,10.2,15.1,9,-99.99,,,0.00,958,rob ver 1B,2013-04-21 19:16:00,
2013-04-21 12:17:00,88.6,24.6,29.35,South,173,14.4,16.7,9,-99.99,,,0.00,959,rob ver 1B,2013-04-21 19:17:00,
2013-04-21 12:18:00,88.9,24.7,29.35,South,174,12.4,15.3,9,-99.99,,,0.00,962,rob ver 1B,2013-04-21 19:18:00,
2013-04-21 12:19:00,90.2,22.7,29.44,SSE,165,8.2,11.0,8,-99.99,,,0.00,968,rob ver 1A,2013-04-21 19:19:00,
2013-04-21 12:20:00,88.7,24.6,29.35,South,181,9.1,11.7,9,-99.99,,,0.00,964,rob ver 1B,2013-04-21 19:20:00,
2013-04-21 12:21:00,89.2,24.9,29.35,SSE,158,11.3,14.0,9,-99.99,,,0.00,965,rob ver 1B,2013-04-21 19:21:00,
2013-04-21 12:22:00,89.5,24.8,29.35,SSE,156,10.1,12.8,9,-99.99,,,0.00,964,rob ver 1B,2013-04-21 19:22:00,
2013-04-21 12:23:00,89.6,25.0,29.35,SSE,168,9.5,11.7,9,-99.99,,,0.00,967,rob ver 1B,2013-04-21 19:23:00,
2013-04-21 12:24:00,89.0,23.2,29.44,SSE,149,4.7,8.9,9,-99.99,,,0.00,970,rob ver 1A,2013-04-21 19:24:00,
2013-04-21 12:25:00,89.7,24.8,29.35,SE,130,4.1,6.6,9,-99.99,,,0.00,965,rob ver 1B,2013-04-21 19:25:00,
2013-04-21 12:26:00,89.4,24.8,29.35,SSE,149,6.4,8.6,9,-99.99,,,0.00,964,rob ver 1B,2013-04-21 19:26:00,
2013-04-21 12:27:00,89.2,24.8,29.35,SE,141,7.1,10.0,9,-99.99,,,0.00,966,rob ver 1B,2013-04-21 19:27:00,
2013-04-21 12:28:00,89.2,24.7,29.35,ESE,107,8.2,9.9,9,-99.99,,,0.00,966,rob ver 1B,2013-04-21 19:28:00,
2013-04-21 12:29:00,88.9,24.7,29.35,ESE,121,8.3,11.7,9,-99.99,,,0.00,968,rob ver 1B,2013-04-21 19:29:00,
2013-04-21 12:30:00,90.9,24.9,29.44,SSW,192,6.7,8.4,8,-99.99,,,0.00,975,rob ver 1A,2013-04-21 19:30:00,
2013-04-21 12:31:00,88.8,24.3,29.35,SE,130,9.4,12.0,9,-99.99,,,0.00,967,rob ver 1B,2013-04-21 19:31:00,
2013-04-21 12:32:00,88.5,24.3,29.35,SSE,153,6.9,10.2,9,-99.99,,,0.00,967,rob ver 1B,2013-04-21 19:32:00,
2013-04-21 12:33:00,89.1,24.8,29.32,South,176,12.0,17.1,9,-99.99,,,0.00,965,rob ver 1B,2013-04-21 19:33:00,
2013-04-21 12:34:00,89.4,24.8,29.32,South,181,10.9,15.5,9,-99.99,,,0.00,968,rob ver 1B,2013-04-21 19:34:00,
2013-04-21 12:35:00,89.4,22.4,29.44,SSE,167,7.0,11.4,8,-99.99,,,0.00,970,rob ver 1A,2013-04-21 19:35:00,
2013-04-21 12:36:00,89.5,24.7,29.35,South,184,4.6,6.4,9,-99.99,,,0.00,967,rob ver 1B,2013-04-21 19:36:00,
2013-04-21 12:37:00,89.7,24.7,29.35,SSW,195,4.4,7.9,9,-99.99,,,0.00,967,rob ver 1B,2013-04-21 19:37:00,
2013-04-21 12:38:00,89.9,24.7,29.32,South,182,10.9,15.9,9,-99.99,,,0.00,969,rob ver 1B,2013-04-21 19:38:00,
2013-04-21 12:39:00,89.8,24.7,29.32,South,188,8.8,15.5,9,-99.99,,,0.00,963,rob ver 1B,2013-04-21 19:39:00,
2013-04-21 12:40:00,89.5,22.9,29.44,ESE,113,4.8,6.4,8,-99.99,,,0.00,976,rob ver 1A,2013-04-21 19:40:00,
2013-04-21 12:41:00,90.5,25.0,29.32,SSE,156,10.2,13.0,9,-99.99,,,0.00,966,rob ver 1B,2013-04-21 19:41:00,
2013-04-21 12:42:00,90.3,24.9,29.32,SE,133,10.8,13.7,9,-99.99,,,0.00,967,rob ver 1B,2013-04-21 19:42:00,
2013-04-21 12:43:00,90.5,24.9,29.32,SSE,160,9.6,11.9,9,-99.99,,,0.00,969,rob ver 1B,2013-04-21 19:43:00,
2013-04-21 12:44:00,90.7,25.0,29.32,SE,146,9.0,11.4,9,-99.99,,,0.00,968,rob ver 1B,2013-04-21 19:44:00,
2013-04-21 12:45:00,89.5,21.7,29.44,SSE,148,4.7,7.4,8,-99.99,,,0.00,971,rob ver 1A,2013-04-21 19:45:00,
2013-04-21 12:46:00,90.3,24.9,29.32,SE,146,12.5,18.5,9,-99.99,,,0.00,969,rob ver 1B,2013-04-21 19:46:00,
2013-04-21 12:47:00,90.5,24.5,29.32,SSE,158,10.5,13.5,9,-99.99,,,0.00,967,rob ver 1B,2013-04-21 19:47:00,
2013-04-21 12:48:00,90.6,24.6,29.32,SE,144,10.0,14.5,9,-99.99,,,0.00,968,rob ver 1B,2013-04-21 19:48:00,
2013-04-21 12:49:00,90.1,24.5,29.32,ESE,117,6.9,11.0,9,-99.99,,,0.00,968,rob ver 1B,2013-04-21 19:49:00,
2013-04-21 12:50:00,90.6,20.3,29.44,South,178,9.9,13.8,7,-99.99,,,0.00,974,rob ver 1A,2013-04-21 19:50:00,
2013-04-21 12:51:00,89.6,24.7,29.32,SSE,149,6.4,10.0,9,-99.99,,,0.00,968,rob ver 1B,2013-04-21 19:51:00,
2013-04-21 12:52:00,90.2,25.0,29.32,South,180,10.3,16.8,9,-99.99,,,0.00,969,rob ver 1B,2013-04-21 19:52:00,
2013-04-21 12:53:00,90.7,24.9,29.32,East,92,6.4,12.9,9,-99.99,,,0.00,967,rob ver 1B,2013-04-21 19:53:00,
2013-04-21 12:54:00,90.8,25.0,29.32,SSW,194,8.8,14.7,9,-99.99,,,0.00,966,rob ver 1B,2013-04-21 19:54:00,
2013-04-21 12:55:00,89.9,20.2,29.44,SSE,152,8.4,12.1,7,-99.99,,,0.00,972,rob ver 1A,2013-04-21 19:55:00,
2013-04-21 12:56:00,91.1,24.9,29.32,South,185,14.4,18.7,9,-99.99,,,0.00,964,rob ver 1B,2013-04-21 19:56:00,
2013-04-21 12:57:00,91.1,25.0,29.32,SSW,193,17.9,24.9,9,-99.99,,,0.00,965,rob ver 1B,2013-04-21 19:57:00,
2013-04-21 12:58:00,92.3,25.5,29.32,SSE,160,14.5,21.8,8,-99.99,,,0.00,964,rob ver 1B,2013-04-21 19:58:00,
2013-04-21 12:59:00,92.8,25.4,29.32,SE,136,14.6,18.3,8,-99.99,,,0.00,963,rob ver 1B,2013-04-21 19:59:00,
2013-04-21 13:00:00,90.5,20.3,29.44,SSE,164,9.0,12.1,7,-99.99,,,0.00,970,rob ver 1A,2013-04-21 20:00:00,
2013-04-21 13:01:00,91.0,24.9,29.32,SSE,150,11.8,14.5,9,-99.99,,,0.00,963,rob ver 1B,2013-04-21 20:01:00,
2013-04-21 13:02:00,91.0,24.9,29.32,SSE,164,14.9,19.1,9,-99.99,,,0.00,965,rob ver 1B,2013-04-21 20:02:00,
2013-04-21 13:03:00,91.1,24.9,29.32,South,173,17.5,21.3,9,-99.99,,,0.00,966,rob ver 1B,2013-04-21 20:03:00,
2013-04-21 13:04:00,91.0,25.0,29.32,South,176,15.6,18.5,9,-99.99,,,0.00,963,rob ver 1B,2013-04-21 20:04:00,
2013-04-21 13:05:00,90.7,20.3,29.44,SSE,157,11.8,14.3,7,-99.99,,,0.00,969,rob ver 1A,2013-04-21 20:05:00,
2013-04-21 13:06:00,90.9,25.0,29.32,SSE,161,11.2,16.6,9,-99.99,,,0.00,962,rob ver 1B,2013-04-21 20:06:00,
2013-04-21 13:07:00,90.6,24.8,29.32,South,187,13.4,17.7,9,-99.99,,,0.00,964,rob ver 1B,2013-04-21 20:07:00,
2013-04-21 13:08:00,90.5,24.8,29.32,South,179,15.2,18.2,9,-99.99,,,0.00,963,rob ver 1B,2013-04-21 20:08:00,
2013-04-21 13:09:00,90.4,24.8,29.32,South,177,11.3,17.2,9,-99.99,,,0.00,962,rob ver 1B,2013-04-21 20:09:00,
2013-04-21 13:10:00,90.0,20.1,29.44,SE,141,8.6,11.2,7,-99.99,,,0.00,967,rob ver 1A,2013-04-21 20:10:00,
2013-04-21 13:11:00,90.9,25.0,29.32,South,177,12.1,15.7,9,-99.99,,,0.00,962,rob ver 1B,2013-04-21 20:11:00,
2013-04-21 13:12:00,91.3,24.8,29.32,SSW,200,13.8,16.9,9,-99.99,,,0.00,961,rob ver 1B,2013-04-21 20:12:00,
2013-04-21 13:13:00,91.3,24.9,29.32,SSW,192,15.4,20.7,9,-99.99,,,0.00,960,rob ver 1B,2013-04-21 20:13:00,
2013-04-21 13:14:00,91.6,24.9,29.32,South,173,19.6,23.7,9,-99.99,,,0.00,959,rob ver 1B,2013-04-21 20:14:00,
2013-04-21 13:15:00,91.0,20.5,29.41,South,183,9.9,12.5,7,-99.99,,,0.00,965,rob ver 1A,2013-04-21 20:15:00,
2013-04-21 13:16:00,91.0,24.7,29.32,South,172,10.4,13.8,9,-99.99,,,0.00,959,rob ver 1B,2013-04-21 20:16:00,
2013-04-21 13:17:00,91.2,24.8,29.32,SE,141,14.4,17.3,9,-99.99,,,0.00,958,rob ver 1B,2013-04-21 20:17:00,
2013-04-21 13:18:00,91.3,24.9,29.32,SE,128,13.9,17.2,9,-99.99,,,0.00,955,rob ver 1B,2013-04-21 20:18:00,
2013-04-21 13:19:00,91.5,25.0,29.32,SE,128,12.9,16.2,9,-99.99,,,0.00,956,rob ver 1B,2013-04-21 20:19:00,
2013-04-21 13:20:00,90.1,19.9,29.41,SSE,163,8.7,10.8,7,-99.99,,,0.00,958,rob ver 1A,2013-04-21 20:20:00,
2013-04-21 13:21:00,90.8,24.4,29.32,SSE,168,17.1,20.4,8,-99.99,,,0.00,956,rob ver 1B,2013-04-21 20:21:00,
2013-04-21 13:22:00,91.2,24.6,29.32,South,176,16.8,20.2,8,-99.99,,,0.00,955,rob ver 1B,2013-04-21 20:22:00,
2013-04-21 13:23:00,91.1,24.5,29.32,South,181,10.8,13.6,9,-99.99,,,0.00,954,rob ver 1B,2013-04-21 20:23:00,
2013-04-21 13:24:00,91.2,24.6,29.32,South,178,12.7,16.0,8,-99.99,,,0.00,954,rob ver 1B,2013-04-21 20:24:00,
2013-04-21 13:25:00,91.1,19.9,29.41,South,169,15.5,24.4,7,-99.99,,,0.00,959,rob ver 1A,2013-04-21 20:25:00,
2013-04-21 13:26:00,92.1,24.8,29.32,SSE,168,18.8,25.4,8,-99.99,,,0.00,952,rob ver 1B,2013-04-21 20:26:00,
2013-04-21 13:27:00,91.7,24.7,29.32,South,178,14.9,20.5,8,-99.99,,,0.00,952,rob ver 1B,2013-04-21 20:27:00,
2013-04-21 13:28:00,91.4,24.7,29.32,SSE,157,12.7,18.1,8,-99.99,,,0.00,950,rob ver 1B,2013-04-21 20:28:00,
2013-04-21 13:29:00,91.2,24.5,29.32,SSE,156,13.2,17.6,9,-99.99,,,0.00,950,rob ver 1B,2013-04-21 20:29:00,
2013-04-21 13:30:00,91.7,20.1,29.41,South,191,14.2,18.5,7,-99.99,,,0.00,953,rob ver 1A,2013-04-21 20:30:00,
2013-04-21 13:31:00,91.6,24.7,29.32,SSE,149,15.4,19.8,8,-99.99,,,0.00,949,rob ver 1B,2013-04-21 20:31:00,
2013-04-21 13:32:00,91.1,24.4,29.32,SSE,161,11.4,14.7,8,-99.99,,,0.00,947,rob ver 1B,2013-04-21 20:32:00,
2013-04-21 13:33:00,90.5,24.5,29.32,SE,143,7.8,11.2,9,-99.99,,,0.00,944,rob ver 1B,2013-04-21 20:33:00,
2013-04-21 13:34:00,90.7,24.6,29.32,SE,144,7.3,10.3,9,-99.99,,,0.00,947,rob ver 1B,2013-04-21 20:34:00,
2013-04-21 13:35:00,91.6,20.0,29.41,South,187,14.0,20.7,7,-99.99,,,0.00,950,rob ver 1A,2013-04-21 20:35:00,
2013-04-21 13:36:00,91.3,24.8,29.32,SSE,166,12.6,15.0,9,-99.99,,,0.00,943,rob ver 1B,2013-04-21 20:36:00,
2013-04-21 13:37:00,91.8,25.0,29.32,SSE,154,13.5,18.0,8,-99.99,,,0.00,942,rob ver 1B,2013-04-21 20:37:00,
2013-04-21 13:38:00,91.3,24.6,29.32,SE,143,11.1,17.9,9,-99.99,,,0.00,941,rob ver 1B,2013-04-21 20:38:00,
2013-04-21 13:39:00,91.1,24.6,29.32,SSE,164,12.7,18.5,8,-99.99,,,0.00,941,rob ver 1B,2013-04-21 20:39:00,
2013-04-21 13:40:00,91.9,20.0,29.41,SSW,193,10.2,13.2,7,-99.99,,,0.00,942,rob ver 1A,2013-04-21 20:40:00,
2013-04-21 13:41:00,91.7,24.7,29.29,South,171,13.9,18.5,8,-99.99,,,0.00,939,rob ver 1B,2013-04-21 20:41:00,
2013-04-21 13:42:00,92.0,24.7,29.29,South,174,15.2,18.7,8,-99.99,,,0.00,939,rob ver 1B,2013-04-21 20:42:00,
2013-04-21 13:43:00,91.6,24.6,29.29,South,179,12.4,16.7,8,-99.99,,,0.00,938,rob ver 1B,2013-04-21 20:43:00,
2013-04-21 13:44:00,91.3,24.7,29.29,South,171,14.5,16.8,9,-99.99,,,0.00,937,rob ver 1B,2013-04-21 20:44:00,
2013-04-21 13:45:00,91.5,20.5,29.41,South,171,11.6,17.6,7,-99.99,,,0.00,937,rob ver 1A,2013-04-21 20:45:00,
2013-04-21 13:46:00,90.7,24.4,29.32,SSE,165,10.3,14.2,8,-99.99,,,0.00,935,rob ver 1B,2013-04-21 20:46:00,
2013-04-21 13:47:00,91.3,24.4,29.32,SSE,164,14.1,18.8,8,-99.99,,,0.00,932,rob ver 1B,2013-04-21 20:47:00,
2013-04-21 13:48:00,91.3,24.4,29.32,SSE,165,14.8,19.1,8,-99.99,,,0.00,929,rob ver 1B,2013-04-21 20:48:00,
2013-04-21 13:49:00,91.3,24.4,29.32,SE,143,11.0,15.3,9,-99.99,,,0.00,927,rob ver 1B,2013-04-21 20:49:00,
2013-04-21 13:50:00,91.1,20.5,29.41,SSE,165,13.1,15.1,7,-99.99,,,0.00,932,rob ver 1A,2013-04-21 20:50:00,
2013-04-21 13:51:00,92.2,24.8,29.29,SSE,154,13.3,18.1,8,-99.99,,,0.00,926,rob ver 1B,2013-04-21 20:51:00,
2013-04-21 13:52:00,91.7,24.3,29.29,SSE,150,10.3,13.2,8,-99.99,,,0.00,927,rob ver 1B,2013-04-21 20:52:00,
2013-04-21 13:53:00,91.7,24.8,29.29,SSE,153,16.0,19.6,8,-99.99,,,0.00,928,rob ver 1B,2013-04-21 20:53:00,
2013-04-21 13:54:00,91.8,24.9,29.29,SSE,157,14.1,18.7,9,-99.99,,,0.00,923,rob ver 1B,2013-04-21 20:54:00,
2013-04-21 13:55:00,91.6,19.9,29.41,South,182,5.2,7.4,7,-99.99,,,0.00,925,rob ver 1A,2013-04-21 20:55:00,
2013-04-21 13:56:00,91.9,25.1,29.29,South,181,12.7,18.7,8,-99.99,,,0.00,918,rob ver 1B,2013-04-21 20:56:00,
2013-04-21 13:57:00,92.0,25.1,29.29,SSW,193,9.3,13.2,9,-99.99,,,0.00,919,rob ver 1B,2013-04-21 20:57:00,
2013-04-21 13:58:00,91.7,25.0,29.29,South,181,6.8,10.6,9,-99.99,,,0.00,912,rob ver 1B,2013-04-21 20:58:00,
2013-04-21 13:59:00,91.8,25.1,29.29,South,182,11.3,20.2,8,-99.99,,,0.00,912,rob ver 1B,2013-04-21 20:59:00,
2013-04-21 14:00:00,92.2,20.9,29.41,SSW,198,11.9,15.5,7,-99.99,,,0.00,915,rob ver 1A,2013-04-21 21:00:00,
2013-04-21 14:01:00,92.2,24.5,29.29,SE,127,14.1,18.8,8,-99.99,,,0.00,914,rob ver 1B,2013-04-21 21:01:00,
2013-04-21 14:02:00,91.8,24.5,29.29,SE,143,12.2,15.4,8,-99.99,,,0.00,912,rob ver 1B,2013-04-21 21:02:00,
2013-04-21 14:03:00,92.3,24.9,29.29,SSE,161,12.3,14.5,8,-99.99,,,0.00,911,rob ver 1B,2013-04-21 21:03:00,
2013-04-21 14:04:00,92.5,25.1,29.29,SSE,166,14.3,18.3,8,-99.99,,,0.00,909,rob ver 1B,2013-04-21 21:04:00,
2013-04-21 14:05:00,92.3,21.0,29.41,South,185,11.6,14.8,7,-99.99,,,0.00,911,rob ver 1A,2013-04-21 21:05:00,
2013-04-21 14:06:00,92.6,25.6,29.29,SSE,157,15.8,20.2,8,-99.99,,,0.00,906,rob ver 1B,2013-04-21 21:06:00,
2013-04-21 14:07:00,92.9,25.9,29.29,SSE,157,17.8,22.8,9,-99.99,,,0.00,903,rob ver 1B,2013-04-21 21:07:00,
2013-04-21 14:08:00,93.1,25.9,29.29,South,174,21.3,25.1,8,-99.99,,,0.00,900,rob ver 1B,2013-04-21 21:08:00,
2013-04-21 14:09:00,92.6,25.8,29.29,South,173,18.7,24.2,9,-99.99,,,0.00,898,rob ver 1B,2013-04-21 21:09:00,
2013-04-21 14:10:00,92.8,21.2,29.41,South,190,12.6,16.1,7,-99.99,,,0.00,901,rob ver 1A,2013-04-21 21:10:00,
2013-04-21 14:11:00,92.7,26.1,29.29,South,190,17.5,20.5,8,-99.99,,,0.00,897,rob ver 1B,2013-04-21 21:11:00,
2013-04-21 14:12:00,93.4,25.9,29.29,South,184,17.1,20.6,8,-99.99,,,0.00,894,rob ver 1B,2013-04-21 21:12:00,
2013-04-21 14:13:00,93.1,25.9,29.29,South,177,17.8,21.5,8,-99.99,,,0.00,894,rob ver 1B,2013-04-21 21:13:00,
2013-04-21 14:14:00,93.0,26.0,29.29,SSE,162,13.9,16.5,9,-99.99,,,0.00,890,rob ver 1B,2013-04-21 21:14:00,
2013-04-21 14:15:00,92.1,20.7,29.41,SSE,162,8.1,14.7,7,-99.99,,,0.00,893,rob ver 1A,2013-04-21 21:15:00,
2013-04-21 14:16:00,92.2,25.9,29.29,South,175,11.8,19.3,9,-99.99,,,0.00,889,rob ver 1B,2013-04-21 21:16:00,
2013-04-21 14:17:00,92.5,25.8,29.29,South,182,12.8,18.4,9,-99.99,,,0.00,886,rob ver 1B,2013-04-21 21:17:00,
2013-04-21 14:18:00,92.6,25.9,29.29,South,191,14.0,21.4,9,-99.99,,,0.00,885,rob ver 1B,2013-04-21 21:18:00,
2013-04-21 14:19:00,92.8,26.0,29.29,South,190,17.0,21.7,9,-99.99,,,0.00,884,rob ver 1B,2013-04-21 21:19:00,
2013-04-21 14:20:00,92.6,21.1,29.38,South,190,11.9,16.7,7,-99.99,,,0.00,884,rob ver 1A,2013-04-21 21:20:00,
2013-04-21 14:21:00,92.6,25.6,29.29,South,175,13.1,20.5,8,-99.99,,,0.00,879,rob ver 1B,2013-04-21 21:21:00,
2013-04-21 14:22:00,92.8,25.9,29.29,South,174,16.6,22.3,8,-99.99,,,0.00,877,rob ver 1B,2013-04-21 21:22:00,
2013-04-21 14:23:00,92.6,25.7,29.29,South,176,15.5,21.1,9,-99.99,,,0.00,876,rob ver 1B,2013-04-21 21:23:00,
2013-04-21 14:24:00,92.8,25.7,29.29,SSW,192,15.4,19.7,8,-99.99,,,0.00,877,rob ver 1B,2013-04-21 21:24:00,
2013-04-21 14:25:00,92.3,21.7,29.38,South,183,12.7,18.7,7,-99.99,,,0.00,875,rob ver 1A,2013-04-21 21:25:00,
2013-04-21 14:26:00,93.2,26.4,29.29,South,181,20.0,23.1,9,-99.99,,,0.00,873,rob ver 1B,2013-04-21 21:26:00,
2013-04-21 14:27:00,92.6,26.1,29.29,South,183,17.6,22.8,8,-99.99,,,0.00,871,rob ver 1B,2013-04-21 21:27:00,
2013-04-21 14:28:00,92.2,25.6,29.29,South,182,12.4,15.3,9,-99.99,,,0.00,867,rob ver 1B,2013-04-21 21:28:00,
2013-04-21 14:29:00,92.1,26.2,29.29,South,177,14.4,17.0,9,-99.99,,,0.00,866,rob ver 1B,2013-04-21 21:29:00,
2013-04-21 14:30:00,91.8,26.2,29.29,South,180,11.2,14.2,9,-99.99,,,0.00,863,rob ver 1B,2013-04-21 21:30:00,
2013-04-21 14:31:00,92.3,21.5,29.38,South,182,11.8,16.5,7,-99.99,,,0.00,864,rob ver 1A,2013-04-21 21:31:00,
2013-04-21 14:32:00,92.1,25.7,29.29,South,186,11.7,15.8,9,-99.99,,,0.00,860,rob ver 1B,2013-04-21 21:32:00,
2013-04-21 14:33:00,92.0,25.5,29.29,South,188,10.9,14.1,9,-99.99,,,0.00,858,rob ver 1B,2013-04-21 21:33:00,
2013-04-21 14:34:00,92.3,25.4,29.26,South,180,17.7,23.1,8,-99.99,,,0.00,857,rob ver 1B,2013-04-21 21:34:00,
2013-04-21 14:35:00,92.3,25.2,29.29,South,180,14.4,18.7,9,-99.99,,,0.00,855,rob ver 1B,2013-04-21 21:35:00,
2013-04-21 14:36:00,92.9,21.9,29.38,SSW,194,12.4,17.4,7,-99.99,,,0.00,854,rob ver 1A,2013-04-21 21:36:00,
2013-04-21 14:37:00,93.3,25.9,29.29,South,171,17.2,19.5,9,-99.99,,,0.00,853,rob ver 1B,2013-04-21 21:37:00,
2013-04-21 14:38:00,93.2,25.8,29.29,SSE,159,16.2,19.1,9,-99.99,,,0.00,850,rob ver 1B,2013-04-21 21:38:00,
2013-04-21 14:39:00,92.6,25.9,29.29,SSE,157,11.2,14.4,9,-99.99,,,0.00,844,rob ver 1B,2013-04-21 21:39:00,
2013-04-21 14:40:00,92.3,25.7,29.29,South,170,13.5,18.3,9,-99.99,,,0.00,845,rob ver 1B,2013-04-21 21:40:00,
2013-04-21 14:41:00,92.9,21.0,29.38,South,190,12.9,16.0,7,-99.99,,,0.00,846,rob ver 1A,2013-04-21 21:41:00,
2013-04-21 14:42:00,91.9,26.0,29.29,SE,135,8.5,11.1,9,-99.99,,,0.00,841,rob ver 1B,2013-04-21 21:42:00,
2013-04-21 14:43:00,92.2,26.2,29.26,SSE,163,11.2,19.1,9,-99.99,,,0.00,841,rob ver 1B,2013-04-21 21:43:00,
2013-04-21 14:44:00,93.1,26.2,29.26,South,181,15.6,19.7,9,-99.99,,,0.00,838,rob ver 1B,2013-04-21 21:44:00,
2013-04-21 14:45:00,92.9,26.2,29.26,South,185,15.4,18.2,9,-99.99,,,0.00,834,rob ver 1B,2013-04-21 21:45:00,
2013-04-21 14:46:00,92.2,21.3,29.38,South,178,11.9,18.9,7,-99.99,,,0.00,834,rob ver 1A,2013-04-21 21:46:00,
2013-04-21 14:47:00,92.4,26.2,29.26,South,177,12.3,15.3,9,-99.99,,,0.00,830,rob ver 1B,2013-04-21 21:47:00,
2013-04-21 14:48:00,92.8,26.4,29.26,SSE,165,14.1,18.9,9,-99.99,,,0.00,829,rob ver 1B,2013-04-21 21:48:00,
2013-04-21 14:49:00,92.6,26.4,29.26,SSE,168,16.1,21.4,9,-99.99,,,0.00,826,rob ver 1B,2013-04-21 21:49:00,
2013-04-21 14:50:00,92.5,26.5,29.26,South,177,17.0,20.4,9,-99.99,,,0.00,824,rob ver 1B,2013-04-21 21:50:00,
2013-04-21 14:51:00,92.8,20.5,29.38,South,174,13.3,15.5,7,-99.99,,,0.00,823,rob ver 1A,2013-04-21 21:51:00,
2013-04-21 14:52:00,92.8,26.5,29.26,SSE,161,17.1,21.2,9,-99.99,,,0.00,820,rob ver 1B,2013-04-21 21:52:00,
2013-04-21 14:53:00,93.1,26.6,29.26,South,177,17.5,22.4,9,-99.99,,,0.00,817,rob ver 1B,2013-04-21 21:53:00,
2013-04-21 14:54:00,92.8,26.8,29.26,SSE,167,16.7,20.6,9,-99.99,,,0.00,815,rob ver 1B,2013-04-21 21:54:00,
2013-04-21 14:55:00,92.3,26.7,29.26,SSE,166,14.9,18.1,9,-99.99,,,0.00,813,rob ver 1B,2013-04-21 21:55:00,
2013-04-21 14:56:00,92.8,21.4,29.38,SSE,150,8.9,10.7,7,-99.99,,,0.00,813,rob ver 1A,2013-04-21 21:56:00,
2013-04-21 14:57:00,92.4,26.7,29.26,SSW,192,11.3,14.7,9,-99.99,,,0.00,809,rob ver 1B,2013-04-21 21:57:00,
2013-04-21 14:58:00,92.3,26.7,29.26,South,181,12.2,20.3,9,-99.99,,,0.00,805,rob ver 1B,2013-04-21 21:58:00,
2013-04-21 14:59:00,92.4,26.6,29.26,South,186,12.2,16.2,9,-99.99,,,0.00,803,rob ver 1B,2013-04-21 21:59:00,
2013-04-21 15:00:00,92.2,26.6,29.26,South,173,11.1,14.3,9,-99.99,,,0.00,801,rob ver 1B,2013-04-21 22:00:00,
2013-04-21 15:01:00,93.4,20.8,29.38,SSE,155,14.3,17.4,7,-99.99,,,0.00,801,rob ver 1A,2013-04-21 22:01:00,
2013-04-21 15:02:00,92.1,26.7,29.26,South,174,11.5,15.1,9,-99.99,,,0.00,794,rob ver 1B,2013-04-21 22:02:00,
2013-04-21 15:03:00,92.6,27.1,29.26,SSE,165,11.7,18.8,9,-99.99,,,0.00,792,rob ver 1B,2013-04-21 22:03:00,
2013-04-21 15:04:00,93.0,27.0,29.26,SSE,153,17.2,21.1,9,-99.99,,,0.00,789,rob ver 1B,2013-04-21 22:04:00,
2013-04-21 15:05:00,92.9,27.0,29.26,SSE,159,14.0,18.5,9,-99.99,,,0.00,788,rob ver 1B,2013-04-21 22:05:00,
2013-04-21 15:06:00,92.4,20.4,29.38,South,172,9.5,13.6,7,-99.99,,,0.00,790,rob ver 1A,2013-04-21 22:06:00,
2013-04-21 15:07:00,93.1,26.8,29.26,South,172,12.8,15.4,9,-99.99,,,0.00,785,rob ver 1B,2013-04-21 22:07:00,
2013-04-21 15:08:00,93.1,27.0,29.26,South,170,11.8,16.5,9,-99.99,,,0.00,784,rob ver 1B,2013-04-21 22:08:00,
2013-04-21 15:09:00,93.3,27.2,29.26,SSE,155,16.6,20.2,9,-99.99,,,0.00,781,rob ver 1B,2013-04-21 22:09:00,
2013-04-21 15:10:00,92.9,26.8,29.26,SSE,168,14.5,18.3,9,-99.99,,,0.00,778,rob ver 1B,2013-04-21 22:10:00,
2013-04-21 15:11:00,93.1,20.5,29.38,South,170,10.5,15.5,7,-99.99,,,0.00,781,rob ver 1A,2013-04-21 22:11:00,
2013-04-21 15:12:00,92.7,27.0,29.26,SSE,147,13.0,17.2,9,-99.99,,,0.00,772,rob ver 1B,2013-04-21 22:12:00,
2013-04-21 15:13:00,93.0,27.1,29.26,SE,143,12.0,16.7,9,-99.99,,,0.00,768,rob ver 1B,2013-04-21 22:13:00,
2013-04-21 15:14:00,93.1,27.4,29.26,SE,145,14.1,18.3,9,-99.99,,,0.00,767,rob ver 1B,2013-04-21 22:14:00,
2013-04-21 15:15:00,93.0,27.5,29.26,SSE,149,13.9,17.8,9,-99.99,,,0.00,766,rob ver 1B,2013-04-21 22:15:00,
2013-04-21 15:16:00,93.4,20.4,29.38,SSE,165,13.2,16.7,7,-99.99,,,0.00,767,rob ver 1A,2013-04-21 22:16:00,
2013-04-21 15:17:00,93.1,27.6,29.26,South,182,12.8,17.2,9,-99.99,,,0.00,760,rob ver 1B,2013-04-21 22:17:00,
2013-04-21 15:18:00,93.7,27.7,29.26,South,177,12.8,17.4,9,-99.99,,,0.00,758,rob ver 1B,2013-04-21 22:18:00,
2013-04-21 15:19:00,93.8,27.8,29.26,South,169,15.8,18.9,9,-99.99,,,0.00,757,rob ver 1B,2013-04-21 22:19:00,
2013-04-21 15:20:00,94.3,27.9,29.26,SSE,167,17.5,20.8,9,-99.99,,,0.00,755,rob ver 1B,2013-04-21 22:20:00,
2013-04-21 15:21:00,93.5,21.1,29.38,South,183,6.9,10.5,7,-99.99,,,0.00,753,rob ver 1A,2013-04-21 22:21:00,
2013-04-21 15:22:00,94.0,27.7,29.26,South,174,15.9,19.6,9,-99.99,,,0.00,745,rob ver 1B,2013-04-21 22:22:00,
2013-04-21 15:23:00,93.4,27.5,29.26,SSE,166,14.4,17.2,9,-99.99,,,0.00,744,rob ver 1B,2013-04-21 22:23:00,
2013-04-21 15:24:00,92.9,27.4,29.26,SSE,165,11.0,14.0,9,-99.99,,,0.00,739,rob ver 1B,2013-04-21 22:24:00,
2013-04-21 15:25:00,92.8,27.5,29.26,SSE,163,12.0,17.5,9,-99.99,,,0.00,737,rob ver 1B,2013-04-21 22:25:00,
2013-04-21 15:26:00,93.1,21.1,29.35,South,173,17.4,24.9,7,-99.99,,,0.00,740,rob ver 1A,2013-04-21 22:26:00,
2013-04-21 15:27:00,93.1,27.5,29.26,SSE,157,14.9,18.6,9,-99.99,,,0.00,732,rob ver 1B,2013-04-21 22:27:00,
2013-04-21 15:28:00,92.9,27.7,29.26,SSE,162,16.0,21.2,9,-99.99,,,0.00,729,rob ver 1B,2013-04-21 22:28:00,
2013-04-21 15:29:00,93.5,28.1,29.26,South,175,13.1,16.4,9,-99.99,,,0.00,727,rob ver 1B,2013-04-21 22:29:00,
2013-04-21 15:30:00,93.1,28.1,29.26,South,170,12.0,14.6,9,-99.99,,,0.00,724,rob ver 1B,2013-04-21 22:30:00,
2013-04-21 15:31:00,92.9,19.9,29.38,SSE,164,12.1,14.9,7,-99.99,,,0.00,726,rob ver 1A,2013-04-21 22:31:00,
2013-04-21 15:32:00,92.7,27.4,29.23,SSE,167,12.9,24.0,9,-99.99,,,0.00,719,rob ver 1B,2013-04-21 22:32:00,
2013-04-21 15:33:00,93.2,27.4,29.26,SSE,150,17.3,21.1,9,-99.99,,,0.00,716,rob ver 1B,2013-04-21 22:33:00,
2013-04-21 15:34:00,93.3,27.5,29.23,SSE,156,17.9,20.0,9,-99.99,,,0.00,713,rob ver 1B,2013-04-21 22:34:00,
2013-04-21 15:35:00,93.4,27.6,29.23,SSE,150,14.2,17.5,9,-99.99,,,0.00,712,rob ver 1B,2013-04-21 22:35:00,
2013-04-21 15:36:00,93.3,19.9,29.38,SSE,150,13.6,19.6,7,-99.99,,,0.00,713,rob ver 1A,2013-04-21 22:36:00,
2013-04-21 15:37:00,93.2,27.7,29.23,SSE,156,14.7,18.0,9,-99.99,,,0.00,706,rob ver 1B,2013-04-21 22:37:00,
2013-04-21 15:38:00,93.2,27.8,29.23,South,187,13.1,16.6,9,-99.99,,,0.00,702,rob ver 1B,2013-04-21 22:38:00,
2013-04-21 15:39:00,93.2,27.9,29.23,SSE,166,16.8,21.1,9,-99.99,,,0.00,700,rob ver 1B,2013-04-21 22:39:00,
2013-04-21 15:40:00,93.4,27.9,29.23,SSE,159,15.0,17.9,9,-99.99,,,0.00,696.8,rob ver 1B,2013-04-21 22:40:00,
2013-04-21 15:41:00,92.8,21.6,29.35,South,172,12.1,14.3,7,-99.99,,,0.00,698,rob ver 1A,2013-04-21 22:41:00,
2013-04-21 15:42:00,92.9,27.9,29.23,SSE,163,11.9,14.2,9,-99.99,,,0.00,690.4,rob ver 1B,2013-04-21 22:42:00,
2013-04-21 15:43:00,92.7,28.0,29.23,SSE,159,11.4,13.3,9,-99.99,,,0.00,689,rob ver 1B,2013-04-21 22:43:00,
2013-04-21 15:44:00,92.6,28.1,29.23,South,169,10.0,12.7,10,-99.99,,,0.00,684.9,rob ver 1B,2013-04-21 22:44:00,
2013-04-21 15:45:00,92.7,28.2,29.23,South,175,10.5,13.0,9,-99.99,,,0.00,681.8,rob ver 1B,2013-04-21 22:45:00,
2013-04-21 15:46:00,93.4,21.4,29.35,South,188,15.8,20.2,7,-99.99,,,0.00,685.2,rob ver 1A,2013-04-21 22:46:00,
2013-04-21 15:47:00,94.1,27.8,29.23,SSE,167,15.8,19.5,9,-99.99,,,0.00,676.5,rob ver 1B,2013-04-21 22:47:00,
2013-04-21 15:48:00,93.3,27.6,29.23,South,179,13.2,17.4,9,-99.99,,,0.00,675,rob ver 1B,2013-04-21 22:48:00,
2013-04-21 15:49:00,93.1,27.4,29.23,South,181,12.2,15.8,9,-99.99,,,0.00,671.8,rob ver 1B,2013-04-21 22:49:00,
2013-04-21 15:50:00,93.8,27.8,29.23,South,171,14.6,18.9,9,-99.99,,,0.00,667.2,rob ver 1B,2013-04-21 22:50:00,
2013-04-21 15:51:00,93.2,21.3,29.35,SSW,196,9.2,13.2,7,-99.99,,,0.00,671.4,rob ver 1A,2013-04-21 22:51:00,
2013-04-21 15:52:00,94.5,27.6,29.23,SSE,168,11.8,15.5,9,-99.99,,,0.00,661.4,rob ver 1B,2013-04-21 22:52:00,
2013-04-21 15:53:00,94.7,27.8,29.23,South,171,8.8,12.3,9,-99.99,,,0.00,659.5,rob ver 1B,2013-04-21 22:53:00,
2013-04-21 15:54:00,94.1,27.7,29.23,SSE,160,11.2,12.9,9,-99.99,,,0.00,656,rob ver 1B,2013-04-21 22:54:00,
2013-04-21 15:55:00,94.4,27.7,29.23,SSE,163,13.5,19.5,9,-99.99,,,0.00,652.8,rob ver 1B,2013-04-21 22:55:00,
2013-04-21 15:56:00,92.9,21.1,29.35,SSE,166,10.3,15.9,7,-99.99,,,0.00,654.1,rob ver 1A,2013-04-21 22:56:00,
2013-04-21 15:57:00,93.6,27.2,29.23,SSE,162,16.8,20.9,9,-99.99,,,0.00,647.7,rob ver 1B,2013-04-21 22:57:00,
2013-04-21 15:58:00,93.5,27.2,29.23,SE,142,17.3,20.0,9,-99.99,,,0.00,641.3,rob ver 1B,2013-04-21 22:58:00,
2013-04-21 15:59:00,93.1,27.5,29.23,SE,142,16.1,20.8,9,-99.99,,,0.00,642,rob ver 1B,2013-04-21 22:59:00,
2013-04-21 16:00:00,93.0,27.9,29.23,SE,143,15.4,20.8,9,-99.99,,,0.00,635.7,rob ver 1B,2013-04-21 23:00:00,
2013-04-21 16:01:00,92.7,21.7,29.35,SSW,199,7.4,10.2,7,-99.99,,,0.00,642,rob ver 1A,2013-04-21 23:01:00,
2013-04-21 16:02:00,92.9,27.9,29.23,SSE,158,16.1,19.3,9,-99.99,,,0.00,629.8,rob ver 1B,2013-04-21 23:02:00,
2013-04-21 16:03:00,92.5,28.0,29.23,SSE,152,13.6,16.0,10,-99.99,,,0.00,626.9,rob ver 1B,2013-04-21 23:03:00,
2013-04-21 16:04:00,92.4,28.1,29.23,SSE,161,12.8,18.3,9,-99.99,,,0.00,623.1,rob ver 1B,2013-04-21 23:04:00,
2013-04-21 16:05:00,92.5,28.0,29.23,South,169,9.3,13.1,10,-99.99,,,0.00,616.6,rob ver 1B,2013-04-21 23:05:00,
2013-04-21 16:06:00,93.4,21.5,29.35,SSW,205,8.9,11.4,7,-99.99,,,0.00,625.3,rob ver 1A,2013-04-21 23:06:00,
2013-04-21 16:07:00,92.5,26.7,29.23,SE,145,11.5,14.9,9,-99.99,,,0.00,614.6,rob ver 1B,2013-04-21 23:07:00,
2013-04-21 16:08:00,92.5,26.9,29.23,SSE,147,8.7,10.0,9,-99.99,,,0.00,611,rob ver 1B,2013-04-21 23:08:00,
2013-04-21 16:09:00,92.4,28.2,29.23,SSE,160,12.6,19.9,10,-99.99,,,0.00,608.6,rob ver 1B,2013-04-21 23:09:00,
2013-04-21 16:10:00,92.9,29.4,29.23,South,180,15.0,18.0,10,-99.99,,,0.00,605.4,rob ver 1B,2013-04-21 23:10:00,
2013-04-21 16:11:00,93.7,22.1,29.35,South,190,11.3,13.7,7,-99.99,,,0.00,610.4,rob ver 1A,2013-04-21 23:11:00,
2013-04-21 16:12:00,93.1,29.3,29.23,South,178,12.5,16.4,10,-99.99,,,0.00,598.9,rob ver 1B,2013-04-21 23:12:00,
2013-04-21 16:13:00,92.9,29.7,29.23,South,178,11.8,13.5,10,-99.99,,,0.00,595.1,rob ver 1B,2013-04-21 23:13:00,
2013-04-21 16:14:00,93.1,28.3,29.23,SSE,165,13.8,18.0,9,-99.99,,,0.00,593.8,rob ver 1B,2013-04-21 23:14:00,
2013-04-21 16:15:00,93.2,26.7,29.23,SSE,165,15.9,19.2,9,-99.99,,,0.00,592.4,rob ver 1B,2013-04-21 23:15:00,
2013-04-21 16:16:00,93.6,21.2,29.35,South,169,8.6,12.1,7,-99.99,,,0.00,593.8,rob ver 1A,2013-04-21 23:16:00,
2013-04-21 16:17:00,93.2,26.4,29.23,SSE,151,15.5,21.5,9,-99.99,,,0.00,586.9,rob ver 1B,2013-04-21 23:17:00,
2013-04-21 16:18:00,93.0,26.0,29.23,SE,144,14.7,18.5,9,-99.99,,,0.00,583.2,rob ver 1B,2013-04-21 23:18:00,
2013-04-21 16:19:00,92.8,26.1,29.23,SE,140,12.1,15.0,9,-99.99,,,0.00,578.3,rob ver 1B,2013-04-21 23:19:00,
2013-04-21 16:20:00,93.1,26.2,29.23,SSE,154,15.8,19.6,9,-99.99,,,0.00,574.8,rob ver 1B,2013-04-21 23:20:00,
2013-04-21 16:21:00,93.1,21.6,29.35,SSW,202,10.6,13.2,7,-99.99,,,0.00,577.5,rob ver 1A,2013-04-21 23:21:00,
2013-04-21 16:22:00,93.1,26.2,29.23,SE,146,13.8,17.3,9,-99.99,,,0.00,569.6,rob ver 1B,2013-04-21 23:22:00,
2013-04-21 16:23:00,93.5,26.0,29.23,SSE,157,13.6,15.7,8,-99.99,,,0.00,565.7,rob ver 1B,2013-04-21 23:23:00,
2013-04-21 16:24:00,93.2,25.6,29.23,South,170,11.5,17.8,8,-99.99,,,0.00,561.1,rob ver 1B,2013-04-21 23:24:00,
2013-04-21 16:25:00,93.0,25.7,29.23,South,171,12.0,15.2,8,-99.99,,,0.00,556.8,rob ver 1B,2013-04-21 23:25:00,
2013-04-21 16:26:00,93.2,21.9,29.35,South,176,6.9,10.4,7,-99.99,,,0.00,560.9,rob ver 1A,2013-04-21 23:26:00,
2013-04-21 16:27:00,92.8,25.4,29.23,SSE,161,9.1,12.7,8,-99.99,,,0.00,551.4,rob ver 1B,2013-04-21 23:27:00,
2013-04-21 16:28:00,93.2,25.7,29.23,South,170,11.3,15.1,8,-99.99,,,0.00,548.1,rob ver 1B,2013-04-21 23:28:00,
2013-04-21 16:29:00,93.0,25.7,29.23,SSE,165,10.9,14.6,8,-99.99,,,0.00,543.6,rob ver 1B,2013-04-21 23:29:00,
2013-04-21 16:30:00,92.9,25.7,29.23,South,172,11.7,18.4,8,-99.99,,,0.00,540.1,rob ver 1B,2013-04-21 23:30:00,
2013-04-21 16:31:00,93.6,22.5,29.35,SSW,201,9.3,12.5,7,-99.99,,,0.00,543.1,rob ver 1A,2013-04-21 23:31:00,
2013-04-21 16:32:00,93.1,25.3,29.23,SSE,162,12.3,14.7,8,-99.99,,,0.00,535.2,rob ver 1B,2013-04-21 23:32:00,
2013-04-21 16:33:00,92.9,25.3,29.23,SSE,158,11.7,15.2,8,-99.99,,,0.00,530.3,rob ver 1B,2013-04-21 23:33:00,
2013-04-21 16:34:00,92.9,25.9,29.23,South,170,13.4,19.5,9,-99.99,,,0.00,529.8,rob ver 1B,2013-04-21 23:34:00,
2013-04-21 16:35:00,93.1,25.8,29.23,South,176,13.0,17.7,8,-99.99,,,0.00,527.2,rob ver 1B,2013-04-21 23:35:00,
2013-04-21 16:36:00,93.5,22.4,29.35,South,187,6.9,10.1,7,-99.99,,,0.00,526,rob ver 1A,2013-04-21 23:36:00,
2013-04-21 16:37:00,93.3,25.7,29.23,South,171,16.1,19.1,8,-99.99,,,0.00,520.8,rob ver 1B,2013-04-21 23:37:00,
2013-04-21 16:38:00,93.1,25.6,29.23,SSE,159,14.4,17.0,8,-99.99,,,0.00,516.2,rob ver 1B,2013-04-21 23:38:00,
2013-04-21 16:39:00,93.0,25.5,29.23,SSE,162,14.7,17.6,8,-99.99,,,0.00,513.1,rob ver 1B,2013-04-21 23:39:00,
2013-04-21 16:40:00,92.8,25.3,29.23,South,181,13.5,16.4,8,-99.99,,,0.00,509.7,rob ver 1B,2013-04-21 23:40:00,
2013-04-21 16:41:00,93.0,22.8,29.35,SSE,164,6.0,7.9,7,-99.99,,,0.00,505.7,rob ver 1A,2013-04-21 23:41:00,
2013-04-21 16:42:00,92.9,25.6,29.23,SSE,154,12.6,16.5,8,-99.99,,,0.00,502.6,rob ver 1B,2013-04-21 23:42:00,
2013-04-21 16:43:00,93.1,25.2,29.23,SSE,153,11.6,13.3,8,-99.99,,,0.00,498.5,rob ver 1B,2013-04-21 23:43:00,
2013-04-21 16:44:00,93.4,25.5,29.23,South,171,11.7,14.2,8,-99.99,,,0.00,493.6,rob ver 1B,2013-04-21 23:44:00,
2013-04-21 16:45:00,93.4,25.4,29.23,SE,141,14.8,21.6,8,-99.99,,,0.00,491.2,rob ver 1B,2013-04-21 23:45:00,
2013-04-21 16:46:00,93.5,22.4,29.35,South,178,10.2,13.3,7,-99.99,,,0.00,488.5,rob ver 1A,2013-04-21 23:46:00,
2013-04-21 16:47:00,93.0,25.3,29.23,SE,142,10.8,15.0,8,-99.99,,,0.00,488.1,rob ver 1B,2013-04-21 23:47:00,
2013-04-21 16:48:00,92.4,25.4,29.23,SE,137,10.4,13.2,8,-99.99,,,0.00,483,rob ver 1B,2013-04-21 23:48:00,
2013-04-21 16:49:00,92.4,25.1,29.23,SE,140,11.1,14.5,8,-99.99,,,0.00,479.1,rob ver 1B,2013-04-21 23:49:00,
2013-04-21 16:50:00,92.6,24.7,29.23,SSE,151,13.2,16.3,8,-99.99,,,0.00,475,rob ver 1B,2013-04-21 23:50:00,
2013-04-21 16:51:00,92.7,24.4,29.23,SE,144,12.0,15.7,8,-99.99,,,0.00,471.4,rob ver 1B,2013-04-21 23:51:00,
2013-04-21 16:52:00,92.9,24.4,29.23,SE,138,12.3,15.6,8,-99.99,,,0.00,467.8,rob ver 1B,2013-04-21 23:52:00,
2013-04-21 16:53:00,93.0,24.4,29.23,SE,145,11.4,15.7,8,-99.99,,,0.00,464.2,rob ver 1B,2013-04-21 23:53:00,
2013-04-21 16:54:00,92.8,24.6,29.23,SE,144,10.9,15.7,8,-99.99,,,0.00,458.9,rob ver 1B,2013-04-21 23:54:00,
2013-04-21 16:55:00,93.1,24.8,29.23,SE,142,16.1,20.0,8,-99.99,,,0.00,456.6,rob ver 1B,2013-04-21 23:55:00,
2013-04-21 16:56:00,93.8,20.5,29.35,South,170,12.1,16.3,7,-99.99,,,0.00,454.3,rob ver 1A,2013-04-21 23:56:00,
2013-04-21 16:57:00,93.0,25.2,29.23,SSE,160,16.8,19.7,8,-99.99,,,0.00,448.8,rob ver 1B,2013-04-21 23:57:00,
2013-04-21 16:58:00,92.8,25.1,29.23,SSE,163,14.5,18.7,8,-99.99,,,0.00,445.7,rob ver 1B,2013-04-21 23:58:00,
2013-04-21 16:59:00,93.1,25.3,29.21,South,174,14.7,18.3,8,-99.99,,,0.00,442.9,rob ver 1B,2013-04-21 23:59:00,
2013-04-21 17:00:00,93.4,25.1,29.21,South,174,16.8,19.2,8,-99.99,,,0.00,439.4,rob ver 1B,2013-04-22 00:00:00,
2013-04-21 17:01:00,93.1,24.9,29.21,South,170,17.6,20.9,8,-99.99,,,0.00,435.8,rob ver 1B,2013-04-22 00:01:00,
2013-04-21 17:02:00,92.8,20.6,29.35,South,174,8.9,11.5,7,-99.99,,,0.00,436.2,rob ver 1A,2013-04-22 00:02:00,
2013-04-21 17:03:00,93.1,24.8,29.23,South,175,16.1,19.7,8,-99.99,,,0.00,428.6,rob ver 1B,2013-04-22 00:03:00,
2013-04-21 17:04:00,93.0,24.8,29.23,South,184,12.5,17.3,8,-99.99,,,0.00,423.4,rob ver 1B,2013-04-22 00:04:00,
2013-04-21 17:05:00,93.0,24.7,29.23,South,171,13.6,18.5,8,-99.99,,,0.00,419.1,rob ver 1B,2013-04-22 00:05:00,
2013-04-21 17:06:00,92.9,24.5,29.23,South,172,11.9,15.2,8,-99.99,,,0.00,417.3,rob ver 1B,2013-04-22 00:06:00,
2013-04-21 17:07:00,93.0,21.1,29.35,SSW,198,7.8,9.2,7,-99.99,,,0.00,327.8,rob ver 1A,2013-04-22 00:07:00,
2013-04-21 17:08:00,92.6,24.6,29.23,SE,138,8.1,12.4,8,-99.99,,,0.00,412.1,rob ver 1B,2013-04-22 00:08:00,
2013-04-21 17:09:00,92.7,24.7,29.23,SE,137,12.2,16.4,8,-99.99,,,0.00,409.6,rob ver 1B,2013-04-22 00:09:00,
2013-04-21 17:10:00,92.4,24.8,29.23,SE,132,9.5,12.4,8,-99.99,,,0.00,404.9,rob ver 1B,2013-04-22 00:10:00,
2013-04-21 17:11:00,92.6,24.9,29.21,SE,126,10.8,14.6,8,-99.99,,,0.00,401.1,rob ver 1B,2013-04-22 00:11:00,
2013-04-21 17:12:00,93.1,21.1,29.35,SSW,202,7.3,8.8,7,-99.99,,,0.00,340.9,rob ver 1A,2013-04-22 00:12:00,
2013-04-21 17:13:00,92.6,24.9,29.23,SSE,148,11.0,13.3,8,-99.99,,,0.00,393.9,rob ver 1B,2013-04-22 00:13:00,
2013-04-21 17:14:00,92.5,24.9,29.23,SE,143,10.4,12.2,8,-99.99,,,0.00,390.2,rob ver 1B,2013-04-22 00:14:00,
2013-04-21 17:15:00,92.7,25.0,29.23,SSE,157,11.5,14.7,8,-99.99,,,0.00,384.9,rob ver 1B,2013-04-22 00:15:00,
2013-04-21 17:16:00,93.0,25.0,29.23,South,177,12.2,15.5,8,-99.99,,,0.00,381.5,rob ver 1B,2013-04-22 00:16:00,
2013-04-21 17:17:00,93.3,20.7,29.35,South,191,9.5,12.1,7,-99.99,,,0.00,382.6,rob ver 1A,2013-04-22 00:17:00,
2013-04-21 17:18:00,93.4,25.0,29.23,SSE,155,13.2,16.0,8,-99.99,,,0.00,374.1,rob ver 1B,2013-04-22 00:18:00,
2013-04-21 17:19:00,93.5,24.9,29.21,South,170,14.9,18.4,8,-99.99,,,0.00,371,rob ver 1B,2013-04-22 00:19:00,
2013-04-21 17:20:00,93.1,25.0,29.21,South,171,14.8,17.4,8,-99.99,,,0.00,367.6,rob ver 1B,2013-04-22 00:20:00,
2013-04-21 17:21:00,93.0,25.3,29.21,South,169,13.6,15.9,8,-99.99,,,0.00,364.3,rob ver 1B,2013-04-22 00:21:00,
2013-04-21 17:22:00,93.3,20.1,29.35,SSW,196,13.6,15.7,6,-99.99,,,0.00,363.8,rob ver 1A,2013-04-22 00:22:00,
2013-04-21 17:23:00,92.7,25.2,29.23,SSE,162,13.1,16.9,8,-99.99,,,0.00,355.8,rob ver 1B,2013-04-22 00:23:00,
2013-04-21 17:24:00,92.6,25.4,29.23,South,173,10.6,13.1,8,-99.99,,,0.00,353.3,rob ver 1B,2013-04-22 00:24:00,
2013-04-21 17:25:00,92.5,25.4,29.23,South,170,10.3,13.1,8,-99.99,,,0.00,349.2,rob ver 1B,2013-04-22 00:25:00,
2013-04-21 17:26:00,92.5,25.3,29.23,SSE,148,10.0,13.3,8,-99.99,,,0.00,346.5,rob ver 1B,2013-04-22 00:26:00,
2013-04-21 17:27:00,93.4,20.1,29.35,South,190,10.4,12.4,7,-99.99,,,0.00,345.5,rob ver 1A,2013-04-22 00:27:00,
2013-04-21 17:28:00,92.9,25.5,29.21,South,169,14.6,19.3,8,-99.99,,,0.00,338.9,rob ver 1B,2013-04-22 00:28:00,
2013-04-21 17:29:00,92.8,25.4,29.21,SSE,159,15.5,19.1,8,-99.99,,,0.00,336,rob ver 1B,2013-04-22 00:29:00,
2013-04-21 17:30:00,92.5,25.4,29.23,SSE,154,12.9,15.9,8,-99.99,,,0.00,331.7,rob ver 1B,2013-04-22 00:30:00,
2013-04-21 17:31:00,92.5,25.4,29.21,SSE,166,11.0,13.9,8,-99.99,,,0.00,327.3,rob ver 1B,2013-04-22 00:31:00,
2013-04-21 17:32:00,93.4,19.0,29.35,SSW,194,9.6,12.3,6,-99.99,,,0.00,326.5,rob ver 1A,2013-04-22 00:32:00,
2013-04-21 17:33:00,92.4,25.4,29.23,South,174,13.9,18.5,8,-99.99,,,0.00,320.8,rob ver 1B,2013-04-22 00:33:00,
2013-04-21 17:34:00,92.4,25.3,29.23,SSE,164,12.0,14.2,8,-99.99,,,0.00,317.3,rob ver 1B,2013-04-22 00:34:00,
2013-04-21 17:35:00,92.7,25.4,29.23,South,170,12.7,18.3,8,-99.99,,,0.00,314,rob ver 1B,2013-04-22 00:35:00,
2013-04-21 17:36:00,92.6,25.4,29.23,South,171,14.7,16.7,9,-99.99,,,0.00,310.1,rob ver 1B,2013-04-22 00:36:00,
2013-04-21 17:37:00,93.1,19.4,29.35,South,184,12.0,16.6,6,-99.99,,,0.00,306.5,rob ver 1A,2013-04-22 00:37:00,
2013-04-21 17:38:00,92.3,25.3,29.21,South,170,15.8,20.4,9,-99.99,,,0.00,303.6,rob ver 1B,2013-04-22 00:38:00,
2013-04-21 17:39:00,92.4,25.4,29.21,SSE,162,15.4,19.0,8,-99.99,,,0.00,299.2,rob ver 1B,2013-04-22 00:39:00,
2013-04-21 17:40:00,92.5,25.4,29.21,SSE,160,15.6,18.5,8,-99.99,,,0.00,295.6,rob ver 1B,2013-04-22 00:40:00,
2013-04-21 17:41:00,92.6,25.4,29.21,SSE,162,14.2,17.6,8,-99.99,,,0.00,291.6,rob ver 1B,2013-04-22 00:41:00,
2013-04-21 17:42:00,92.9,19.0,29.35,SSW,205,13.1,16.5,6,-99.99,,,0.00,288.6,rob ver 1A,2013-04-22 00:42:00,
2013-04-21 17:43:00,92.6,25.3,29.21,South,173,13.5,16.2,8,-99.99,,,0.00,284.6,rob ver 1B,2013-04-22 00:43:00,
2013-04-21 17:44:00,92.2,25.2,29.21,SSE,157,14.6,18.5,9,-99.99,,,0.00,280.7,rob ver 1B,2013-04-22 00:44:00,
2013-04-21 17:45:00,92.2,24.9,29.23,SE,143,14.4,17.7,8,-99.99,,,0.00,277.1,rob ver 1B,2013-04-22 00:45:00,
2013-04-21 17:46:00,92.1,25.1,29.23,SSE,149,13.4,16.1,8,-99.99,,,0.00,273.5,rob ver 1B,2013-04-22 00:46:00,
2013-04-21 17:47:00,92.7,18.7,29.32,SSW,202,13.3,16.9,6,-99.99,,,0.00,269.3,rob ver 1A,2013-04-22 00:47:00,
2013-04-21 17:48:00,91.8,25.2,29.21,SSE,152,10.4,13.3,9,-99.99,,,0.00,265.6,rob ver 1B,2013-04-22 00:48:00,
2013-04-21 17:49:00,91.7,25.3,29.21,SSE,157,10.4,13.3,9,-99.99,,,0.00,261.3,rob ver 1B,2013-04-22 00:49:00,
2013-04-21 17:50:00,91.9,25.2,29.21,SSE,161,10.6,13.5,9,-99.99,,,0.00,258.1,rob ver 1B,2013-04-22 00:50:00,
2013-04-21 17:51:00,92.1,25.3,29.21,South,172,13.0,15.1,9,-99.99,,,0.00,254.5,rob ver 1B,2013-04-22 00:51:00,
2013-04-21 17:52:00,92.6,18.9,29.35,SSW,194,9.8,11.7,6,-99.99,,,0.00,250.7,rob ver 1A,2013-04-22 00:52:00,
2013-04-21 17:53:00,91.8,25.2,29.21,SSE,163,10.2,13.2,9,-99.99,,,0.00,246.3,rob ver 1B,2013-04-22 00:53:00,
2013-04-21 17:54:00,91.7,25.2,29.23,SSE,148,9.6,10.9,9,-99.99,,,0.00,242.8,rob ver 1B,2013-04-22 00:54:00,
2013-04-21 17:55:00,91.7,25.2,29.23,SSE,150,8.4,10.1,9,-99.99,,,0.00,240.1,rob ver 1B,2013-04-22 00:55:00,
2013-04-21 17:56:00,92.0,25.4,29.23,SSE,161,8.9,13.9,9,-99.99,,,0.00,236.1,rob ver 1B,2013-04-22 00:56:00,
2013-04-21 17:57:00,92.6,17.8,29.35,South,183,9.8,13.4,6,-99.99,,,0.00,231.9,rob ver 1A,2013-04-22 00:57:00,
2013-04-21 17:58:00,92.1,25.6,29.21,SSE,168,12.9,14.8,9,-99.99,,,0.00,228.1,rob ver 1B,2013-04-22 00:58:00,
2013-04-21 17:59:00,91.9,25.4,29.21,SSE,160,13.1,15.5,9,-99.99,,,0.00,224.7,rob ver 1B,2013-04-22 00:59:00,
2013-04-21 18:00:00,91.8,25.5,29.21,SSE,163,10.9,14.7,9,-99.99,,,0.00,221.1,rob ver 1B,2013-04-22 01:00:00,
2013-04-21 18:01:00,91.8,25.5,29.21,SSE,159,14.1,16.3,9,-99.99,,,0.00,218.1,rob ver 1B,2013-04-22 01:01:00,
2013-04-21 18:02:00,92.7,18.3,29.35,South,185,10.9,13.5,6,-99.99,,,0.00,215.2,rob ver 1A,2013-04-22 01:02:00,
2013-04-21 18:03:00,91.5,25.4,29.21,SSE,156,9.3,13.0,9,-99.99,,,0.00,210.3,rob ver 1B,2013-04-22 01:03:00,
2013-04-21 18:04:00,91.8,25.4,29.21,SSE,163,11.8,14.4,9,-99.99,,,0.00,206,rob ver 1B,2013-04-22 01:04:00,
2013-04-21 18:05:00,91.8,25.4,29.21,SSE,162,12.7,14.7,9,-99.99,,,0.00,202.7,rob ver 1B,2013-04-22 01:05:00,
2013-04-21 18:06:00,91.8,25.2,29.21,South,170,13.2,15.6,9,-99.99,,,0.00,199,rob ver 1B,2013-04-22 01:06:00,
2013-04-21 18:07:00,92.2,18.4,29.32,South,191,12.5,15.5,6,-99.99,,,0.00,198.1,rob ver 1A,2013-04-22 01:07:00,
2013-04-21 18:08:00,91.8,25.3,29.21,South,175,10.6,12.7,9,-99.99,,,0.00,191.9,rob ver 1B,2013-04-22 01:08:00,
2013-04-21 18:09:00,91.8,25.1,29.21,South,170,14.6,17.3,9,-99.99,,,0.00,188.2,rob ver 1B,2013-04-22 01:09:00,
2013-04-21 18:10:00,91.6,25.1,29.21,South,171,11.8,14.1,9,-99.99,,,0.00,185,rob ver 1B,2013-04-22 01:10:00,
2013-04-21 18:11:00,91.6,24.9,29.21,SSE,166,13.3,17.3,8,-99.99,,,0.00,181.8,rob ver 1B,2013-04-22 01:11:00,
2013-04-21 18:12:00,92.1,18.3,29.35,SSW,200,10.1,15.3,6,-99.99,,,0.00,179.8,rob ver 1A,2013-04-22 01:12:00,
2013-04-21 18:13:00,91.5,24.6,29.21,SSE,160,14.0,17.5,8,-99.99,,,0.00,176.4,rob ver 1B,2013-04-22 01:13:00,
2013-04-21 18:14:00,91.4,24.5,29.21,SSE,158,15.9,19.6,8,-99.99,,,0.00,172.8,rob ver 1B,2013-04-22 01:14:00,
2013-04-21 18:15:00,91.3,24.5,29.21,SSE,159,17.2,20.2,8,-99.99,,,0.00,169.3,rob ver 1B,2013-04-22 01:15:00,
2013-04-21 18:16:00,91.1,24.2,29.21,SSE,164,15.4,17.9,8,-99.99,,,0.00,165.4,rob ver 1B,2013-04-22 01:16:00,
2013-04-21 18:17:00,91.9,18.6,29.32,South,188,11.3,14.4,6,-99.99,,,0.00,161.3,rob ver 1A,2013-04-22 01:17:00,
2013-04-21 18:18:00,90.9,24.6,29.21,SSE,167,13.6,17.9,9,-99.99,,,0.00,157.2,rob ver 1B,2013-04-22 01:18:00,
2013-04-21 18:19:00,91.0,24.6,29.21,SSE,162,13.1,15.4,9,-99.99,,,0.00,143.8,rob ver 1B,2013-04-22 01:19:00,
2013-04-21 18:20:00,90.9,24.5,29.21,SSE,153,13.2,16.8,9,-99.99,,,0.00,145.1,rob ver 1B,2013-04-22 01:20:00,
2013-04-21 18:21:00,90.9,24.5,29.21,SSE,157,13.7,16.8,9,-99.99,,,0.00,138.5,rob ver 1B,2013-04-22 01:21:00,
2013-04-21 18:22:00,91.9,18.8,29.32,SSW,197,10.7,13.4,6,-99.99,,,0.00,142.8,rob ver 1A,2013-04-22 01:22:00,
2013-04-21 18:23:00,90.8,24.8,29.21,SSE,151,11.8,13.9,9,-99.99,,,0.00,94,rob ver 1B,2013-04-22 01:23:00,
2013-04-21 18:24:00,90.8,24.8,29.21,SSE,151,11.1,14.2,9,-99.99,,,0.00,99.2,rob ver 1B,2013-04-22 01:24:00,
2013-04-21 18:25:00,90.7,24.8,29.21,SE,145,11.6,13.8,9,-99.99,,,0.00,102.5,rob ver 1B,2013-04-22 01:25:00,
2013-04-21 18:26:00,90.6,24.7,29.21,SSE,149,11.6,14.3,9,-99.99,,,0.00,79.6,rob ver 1B,2013-04-22 01:26:00,
2013-04-21 18:27:00,91.4,17.8,29.32,SSW,194,12.5,15.7,6,-99.99,,,0.00,124.9,rob ver 1A,2013-04-22 01:27:00,
2013-04-21 18:28:00,90.5,24.6,29.21,SSE,154,11.5,14.1,9,-99.99,,,0.00,70.7,rob ver 1B,2013-04-22 01:28:00,
2013-04-21 18:29:00,90.4,24.4,29.21,SSE,159,12.6,14.8,9,-99.99,,,0.00,101.2,rob ver 1B,2013-04-22 01:29:00,
2013-04-21 18:30:00,90.4,24.3,29.21,SSE,166,13.0,14.5,9,-99.99,,,0.00,116.3,rob ver 1B,2013-04-22 01:30:00,
2013-04-21 18:31:00,90.4,24.2,29.21,SSE,165,10.8,13.5,9,-99.99,,,0.00,112.3,rob ver 1B,2013-04-22 01:31:00,
2013-04-21 18:32:00,91.1,18.6,29.32,SSW,193,9.8,12.4,6,-99.99,,,0.00,108.4,rob ver 1A,2013-04-22 01:32:00,
2013-04-21 18:33:00,90.3,24.4,29.21,SSE,160,13.4,16.9,9,-99.99,,,0.00,105.8,rob ver 1B,2013-04-22 01:33:00,
2013-04-21 18:34:00,90.3,24.5,29.21,SSE,161,13.0,15.2,9,-99.99,,,0.00,102.8,rob ver 1B,2013-04-22 01:34:00,
2013-04-21 18:35:00,90.3,24.6,29.21,SSE,157,10.6,13.9,9,-99.99,,,0.00,99.9,rob ver 1B,2013-04-22 01:35:00,
2013-04-21 18:36:00,90.3,24.7,29.21,SSE,158,12.8,15.2,9,-99.99,,,0.00,97.3,rob ver 1B,2013-04-22 01:36:00,
2013-04-21 18:37:00,90.8,18.8,29.32,SSW,197,13.2,15.3,7,-99.99,,,0.00,93,rob ver 1A,2013-04-22 01:37:00,
2013-04-21 18:38:00,90.2,24.6,29.21,SSE,166,12.5,14.9,9,-99.99,,,0.00,80.9,rob ver 1B,2013-04-22 01:38:00,
2013-04-21 18:39:00,90.1,24.5,29.21,SSE,157,12.4,14.7,9,-99.99,,,0.00,70.4,rob ver 1B,2013-04-22 01:39:00,
2013-04-21 18:40:00,90.0,24.4,29.21,SSE,150,11.2,14.0,9,-99.99,,,0.00,71.7,rob ver 1B,2013-04-22 01:40:00,
2013-04-21 18:41:00,89.9,24.3,29.21,SSE,156,10.9,13.2,9,-99.99,,,0.00,62.56,rob ver 1B,2013-04-22 01:41:00,
2013-04-21 18:42:00,90.6,18.5,29.32,SSW,198,10.0,12.6,7,-99.99,,,0.00,78.3,rob ver 1A,2013-04-22 01:42:00,
2013-04-21 18:43:00,89.9,24.0,29.21,SSE,167,12.0,14.7,9,-99.99,,,0.00,67.14,rob ver 1B,2013-04-22 01:43:00,
2013-04-21 18:44:00,89.9,23.7,29.21,SSE,162,11.5,13.7,9,-99.99,,,0.00,72.7,rob ver 1B,2013-04-22 01:44:00,
2013-04-21 18:45:00,89.8,23.6,29.21,SSE,162,11.6,13.7,8,-99.99,,,0.00,70.7,rob ver 1B,2013-04-22 01:45:00,
2013-04-21 18:46:00,89.8,23.6,29.21,SSE,160,12.8,16.3,9,-99.99,,,0.00,67.8,rob ver 1B,2013-04-22 01:46:00,
2013-04-21 18:47:00,90.1,18.5,29.32,SSW,193,12.0,14.7,7,-99.99,,,0.00,63.87,rob ver 1A,2013-04-22 01:47:00,
2013-04-21 18:48:00,89.7,23.6,29.21,South,173,10.1,13.3,9,-99.99,,,0.00,49.46,rob ver 1B,2013-04-22 01:48:00,
2013-04-21 18:49:00,89.7,23.8,29.21,SSE,168,10.2,11.9,9,-99.99,,,0.00,39.14,rob ver 1B,2013-04-22 01:49:00,
2013-04-21 18:50:00,89.5,24.1,29.21,South,169,10.9,12.8,9,-99.99,,,0.00,35.05,rob ver 1B,2013-04-22 01:50:00,
2013-04-21 18:51:00,89.4,24.1,29.21,SSE,168,8.8,10.8,9,-99.99,,,0.00,35.7,rob ver 1B,2013-04-22 01:51:00,
2013-04-21 18:52:00,89.8,18.8,29.32,SSW,193,9.8,12.6,7,-99.99,,,0.00,47.98,rob ver 1A,2013-04-22 01:52:00,
2013-04-21 18:53:00,89.3,24.2,29.21,SSE,168,8.6,10.8,9,-99.99,,,0.00,38.32,rob ver 1B,2013-04-22 01:53:00,
2013-04-21 18:54:00,89.3,24.1,29.21,South,169,10.8,12.6,9,-99.99,,,0.00,41.6,rob ver 1B,2013-04-22 01:54:00,
2013-04-21 18:55:00,89.2,24.0,29.21,SSE,163,9.7,11.5,9,-99.99,,,0.00,42.09,rob ver 1B,2013-04-22 01:55:00,
2013-04-21 18:56:00,89.1,23.9,29.21,SSE,166,11.9,14.0,9,-99.99,,,0.00,35.37,rob ver 1B,2013-04-22 01:56:00,
2013-04-21 18:57:00,89.4,18.6,29.32,SSW,197,9.9,12.9,7,-99.99,,,0.00,34.72,rob ver 1A,2013-04-22 01:57:00,
2013-04-21 18:58:00,89.0,23.8,29.21,SSE,168,11.5,13.5,9,-99.99,,,0.00,18.01,rob ver 1B,2013-04-22 01:58:00,
2013-04-21 18:59:00,88.9,23.8,29.21,SSE,164,10.9,12.5,9,-99.99,,,0.00,20.47,rob ver 1B,2013-04-22 01:59:00,
2013-04-21 19:00:00,88.8,23.8,29.21,SSE,162,9.3,10.7,9,-99.99,,,0.00,24.24,rob ver 1B,2013-04-22 02:00:00,
2013-04-21 19:01:00,88.7,23.7,29.21,SSE,156,8.8,10.4,9,-99.99,,,0.00,24.24,rob ver 1B,2013-04-22 02:01:00,
2013-04-21 19:02:00,89.1,19.0,29.32,SSW,207,12.5,15.5,7,-99.99,,,0.00,22.76,rob ver 1A,2013-04-22 02:02:00,
2013-04-21 19:03:00,88.6,23.6,29.21,SSE,158,9.9,12.5,9,-99.99,,,0.00,21.29,rob ver 1B,2013-04-22 02:03:00,
2013-04-21 19:04:00,88.6,23.5,29.21,SSE,153,9.7,11.7,9,-99.99,,,0.00,19.32,rob ver 1B,2013-04-22 02:04:00,
2013-04-21 19:05:00,88.5,23.4,29.21,SSE,153,10.6,12.3,9,-99.99,,,0.00,17.2,rob ver 1B,2013-04-22 02:05:00,
2013-04-21 19:06:00,88.5,23.4,29.21,SSE,156,9.8,12.1,9,-99.99,,,0.00,15.07,rob ver 1B,2013-04-22 02:06:00,
2013-04-21 19:07:00,88.4,23.3,29.21,SSE,157,11.3,13.5,9,-99.99,,,0.00,13.1,rob ver 1B,2013-04-22 02:07:00,
2013-04-21 19:08:00,88.4,19.6,29.32,SSW,201,9.4,11.6,7,-99.99,,,0.00,10.81,rob ver 1A,2013-04-22 02:08:00,
2013-04-21 19:09:00,88.3,23.4,29.21,SSE,161,10.5,12.2,9,-99.99,,,0.00,9.83,rob ver 1B,2013-04-22 02:09:00,
2013-04-21 19:10:00,88.1,23.4,29.21,SSE,159,9.3,10.6,9,-99.99,,,0.00,8.19,rob ver 1B,2013-04-22 02:10:00,
2013-04-21 19:11:00,88.0,23.4,29.21,SSE,158,10.0,12.0,9,-99.99,,,0.00,6.879,rob ver 1B,2013-04-22 02:11:00,
2013-04-21 19:12:00,87.9,23.4,29.21,SSE,153,10.4,12.8,9,-99.99,,,0.00,6.224,rob ver 1B,2013-04-22 02:12:00,
2013-04-21 19:13:00,87.9,19.5,29.32,SSW,203,10.1,12.4,8,-99.99,,,0.00,5.077,rob ver 1A,2013-04-22 02:13:00,
2013-04-21 19:14:00,87.8,23.4,29.21,SSE,155,9.7,11.4,9,-99.99,,,0.00,4.913,rob ver 1B,2013-04-22 02:14:00,
2013-04-21 19:15:00,87.8,23.4,29.21,SSE,158,9.6,11.0,9,-99.99,,,0.00,4.586,rob ver 1B,2013-04-22 02:15:00,
2013-04-21 19:16:00,87.7,23.3,29.21,SSE,159,8.5,9.7,9,-99.99,,,0.00,4.258,rob ver 1B,2013-04-22 02:16:00,
2013-04-21 19:17:00,87.6,23.3,29.21,SSE,160,8.5,10.3,9,-99.99,,,0.00,4.095,rob ver 1B,2013-04-22 02:17:00,
2013-04-21 19:18:00,87.7,19.2,29.32,SSW,196,10.6,12.8,8,-99.99,,,0.00,2.948,rob ver 1A,2013-04-22 02:18:00,
2013-04-21 19:19:00,87.4,23.2,29.21,SSE,161,8.1,9.8,9,-99.99,,,0.00,3.44,rob ver 1B,2013-04-22 02:19:00,
2013-04-21 19:20:00,87.2,23.2,29.21,SSE,163,7.2,9.0,9,-99.99,,,0.00,3.112,rob ver 1B,2013-04-22 02:20:00,
2013-04-21 19:21:00,87.1,23.2,29.21,SSE,163,7.5,9.0,9,-99.99,,,0.00,2.948,rob ver 1B,2013-04-22 02:21:00,
2013-04-21 19:22:00,87.0,23.2,29.21,SSE,164,7.4,8.6,9,-99.99,,,0.00,2.948,rob ver 1B,2013-04-22 02:22:00,
2013-04-21 19:23:00,87.2,19.1,29.35,SSW,194,8.9,10.6,8,-99.99,,,0.00,1.31,rob ver 1A,2013-04-22 02:23:00,
2013-04-21 19:24:00,86.9,23.2,29.21,SSE,161,8.0,9.2,9,-99.99,,,0.00,1.966,rob ver 1B,2013-04-22 02:24:00,
2013-04-21 19:25:00,86.8,23.1,29.21,SSE,157,6.6,8.0,9,-99.99,,,0.00,1.638,rob ver 1B,2013-04-22 02:25:00,
2013-04-21 19:26:00,86.6,23.1,29.21,SSE,150,6.9,8.7,9,-99.99,,,0.00,1.31,rob ver 1B,2013-04-22 02:26:00,
2013-04-21 19:27:00,86.5,23.1,29.21,SSE,149,6.5,7.3,9,-99.99,,,0.00,.983,rob ver 1B,2013-04-22 02:27:00,
2013-04-21 19:28:00,86.8,19.1,29.32,SSW,193,8.1,9.6,8,-99.99,,,0.00,.328,rob ver 1A,2013-04-22 02:28:00,
2013-04-21 19:29:00,86.3,23.1,29.21,SSE,161,6.8,8.3,9,-99.99,,,0.00,.491,rob ver 1B,2013-04-22 02:29:00,
2013-04-21 19:30:00,86.2,23.1,29.21,SSE,163,6.9,8.1,9,-99.99,,,0.00,.328,rob ver 1B,2013-04-22 02:30:00,
2013-04-21 19:31:00,86.1,23.1,29.21,SSE,162,6.8,8.2,9,-99.99,,,0.00,.328,rob ver 1B,2013-04-22 02:31:00,
2013-04-21 19:32:00,86.1,23.2,29.21,SSE,161,7.3,10.2,10,-99.99,,,0.00,.164,rob ver 1B,2013-04-22 02:32:00,
2013-04-21 19:33:00,86.5,19.3,29.35,SSW,192,7.5,9.0,8,-99.99,,,0.00,0,rob ver 1A,2013-04-22 02:33:00,
2013-04-21 19:34:00,85.9,23.1,29.21,SSE,161,6.4,7.6,10,-99.99,,,0.00,0,rob ver 1B,2013-04-22 02:34:00,
2013-04-21 19:35:00,85.7,23.2,29.21,SSE,167,6.6,8.5,10,-99.99,,,0.00,0,rob ver 1B,2013-04-22 02:35:00,
2013-04-21 19:36:00,85.7,23.3,29.21,SSE,168,6.5,7.6,10,-99.99,,,0.00,0,rob ver 1B,2013-04-22 02:36:00,
2013-04-21 19:37:00,85.7,23.2,29.21,South,169,6.3,7.1,10,-99.99,,,0.00,0,rob ver 1B,2013-04-22 02:37:00,
2013-04-21 19:38:00,86.1,19.5,29.35,SSW,194,6.9,8.9,8,-99.99,,,0.00,0,rob ver 1A,2013-04-22 02:38:00,
2013-04-21 19:39:00,85.5,23.1,29.21,SSE,168,5.4,6.7,10,-99.99,,,0.00,0,rob ver 1B,2013-04-22 02:39:00,
2013-04-21 19:40:00,85.4,23.2,29.21,SSE,165,5.9,7.1,10,-99.99,,,0.00,0,rob ver 1B,2013-04-22 02:40:00,
2013-04-21 19:41:00,85.3,23.2,29.21,SSE,163,5.9,6.6,10,-99.99,,,0.00,0,rob ver 1B,2013-04-22 02:41:00,
2013-04-21 19:42:00,85.2,23.2,29.21,SSE,162,5.4,6.3,10,-99.99,,,0.00,0,rob ver 1B,2013-04-22 02:42:00,
2013-04-21 19:43:00,85.8,19.7,29.35,SSW,192,6.5,8.0,8,-99.99,,,0.00,0,rob ver 1A,2013-04-22 02:43:00,
2013-04-21 19:44:00,85.0,23.2,29.21,SSE,167,5.4,6.7,10,-99.99,,,0.00,0,rob ver 1B,2013-04-22 02:44:00,
2013-04-21 19:45:00,84.9,23.2,29.21,South,170,6.2,8.2,10,-99.99,,,0.00,0,rob ver 1B,2013-04-22 02:45:00,
2013-04-21 19:46:00,85.0,23.3,29.21,South,174,6.5,7.6,10,-99.99,,,0.00,0,rob ver 1B,2013-04-22 02:46:00,
2013-04-21 19:47:00,85.0,23.3,29.21,South,179,6.7,8.1,10,-99.99,,,0.00,0,rob ver 1B,2013-04-22 02:47:00,
2013-04-21 19:48:00,85.4,19.9,29.35,SSW,193,7.1,8.0,8,-99.99,,,0.00,0,rob ver 1A,2013-04-22 02:48:00,
2013-04-21 19:49:00,84.9,23.6,29.21,South,179,7.2,9.9,10,-99.99,,,0.00,0,rob ver 1B,2013-04-22 02:49:00,
2013-04-21 19:50:00,84.9,24.5,29.21,South,179,7.9,9.4,11,-99.99,,,0.00,0,rob ver 1B,2013-04-22 02:50:00,
2013-04-21 19:51:00,84.9,25.5,29.21,South,184,7.5,9.2,11,-99.99,,,0.00,0,rob ver 1B,2013-04-22 02:51:00,
2013-04-21 19:52:00,84.7,26.8,29.21,South,185,8.0,10.1,12,-99.99,,,0.00,0,rob ver 1B,2013-04-22 02:52:00,
2013-04-21 19:53:00,84.9,20.0,29.35,SSW,195,6.7,8.2,9,-99.99,,,0.00,0,rob ver 1A,2013-04-22 02:53:00,
2013-04-21 19:54:00,84.6,28.4,29.21,South,184,8.4,10.7,12,-99.99,,,0.00,0,rob ver 1B,2013-04-22 02:54:00,
2013-04-21 19:55:00,84.5,28.4,29.21,South,180,8.2,10.0,13,-99.99,,,0.00,0,rob ver 1B,2013-04-22 02:55:00,
2013-04-21 19:56:00,84.5,29.0,29.21,South,180,8.5,10.3,13,-99.99,,,0.00,0,rob ver 1B,2013-04-22 02:56:00,
2013-04-21 19:57:00,84.4,29.1,29.21,South,181,7.9,10.1,13,-99.99,,,0.00,0,rob ver 1B,2013-04-22 02:57:00,
2013-04-21 19:58:00,84.6,20.3,29.35,SSW,193,7.6,9.3,9,-99.99,,,0.00,0,rob ver 1A,2013-04-22 02:58:00,
2013-04-21 19:59:00,84.1,29.7,29.21,South,174,6.6,7.9,13,-99.99,,,0.00,0,rob ver 1B,2013-04-22 02:59:00,
2013-04-21 20:00:00,83.9,30.0,29.21,South,175,6.1,7.3,14,-99.99,,,0.00,0,rob ver 1B,2013-04-22 03:00:00,
2013-04-21 20:01:00,83.8,31.1,29.21,South,174,6.3,7.4,14,-99.99,,,0.00,0,rob ver 1B,2013-04-22 03:01:00,
2013-04-21 20:02:00,83.6,30.8,29.21,South,176,6.1,8.3,15,-99.99,,,0.00,0,rob ver 1B,2013-04-22 03:02:00,
2013-04-21 20:03:00,84.4,20.6,29.35,SSW,193,7.5,8.9,9,-99.99,,,0.00,0,rob ver 1A,2013-04-22 03:03:00,
2013-04-21 20:04:00,83.5,31.7,29.21,South,178,6.6,8.3,15,-99.99,,,0.00,0,rob ver 1B,2013-04-22 03:04:00,
2013-04-21 20:05:00,83.4,31.7,29.21,South,178,6.7,8.0,15,-99.99,,,0.00,0,rob ver 1B,2013-04-22 03:05:00,
2013-04-21 20:06:00,83.3,31.5,29.21,South,179,6.6,8.0,15,-99.99,,,0.00,0,rob ver 1B,2013-04-22 03:06:00,
2013-04-21 20:07:00,83.2,30.9,29.21,South,182,6.8,9.0,14,-99.99,,,0.00,0,rob ver 1B,2013-04-22 03:07:00,
2013-04-21 20:08:00,83.9,20.6,29.35,SSW,199,6.9,7.5,9,-99.99,,,0.00,0,rob ver 1A,2013-04-22 03:08:00,
2013-04-21 20:09:00,83.3,29.8,29.21,South,185,7.0,8.6,14,-99.99,,,0.00,0,rob ver 1B,2013-04-22 03:09:00,
2013-04-21 20:10:00,83.2,30.0,29.21,South,185,7.6,9.7,14,-99.99,,,0.00,0,rob ver 1B,2013-04-22 03:10:00,
2013-04-21 20:11:00,83.1,29.9,29.21,South,188,7.7,9.6,14,-99.99,,,0.00,0,rob ver 1B,2013-04-22 03:11:00,
2013-04-21 20:12:00,83.1,29.9,29.21,South,187,8.1,9.7,14,-99.99,,,0.00,0,rob ver 1B,2013-04-22 03:12:00,
2013-04-21 20:13:00,83.1,20.3,29.35,SSW,204,6.0,7.2,9,-99.99,,,0.00,0,rob ver 1A,2013-04-22 03:13:00,
2013-04-21 20:14:00,83.0,31.4,29.21,South,189,8.5,10.8,15,-99.99,,,0.00,0,rob ver 1B,2013-04-22 03:14:00,
2013-04-21 20:15:00,83.0,31.7,29.21,South,189,7.8,9.2,15,-99.99,,,0.00,0,rob ver 1B,2013-04-22 03:15:00,
2013-04-21 20:16:00,82.9,32.0,29.21,SSW,192,8.0,9.6,16,-99.99,,,0.00,0,rob ver 1B,2013-04-22 03:16:00,
2013-04-21 20:17:00,82.8,32.1,29.21,South,191,8.4,10.8,15,-99.99,,,0.00,0,rob ver 1B,2013-04-22 03:17:00,
2013-04-21 20:18:00,83.1,20.9,29.35,SSW,194,7.6,9.1,9,-99.99,,,0.00,0,rob ver 1A,2013-04-22 03:18:00,
2013-04-21 20:19:00,82.7,31.4,29.21,South,191,8.7,11.4,15,-99.99,,,0.00,0,rob ver 1B,2013-04-22 03:19:00,
2013-04-21 20:20:00,82.7,31.1,29.21,SSW,192,9.5,12.2,15,-99.99,,,0.00,0,rob ver 1B,2013-04-22 03:20:00,
2013-04-21 20:21:00,82.7,31.1,29.21,SSW,192,9.4,11.5,15,-99.99,,,0.00,0,rob ver 1B,2013-04-22 03:21:00,
2013-04-21 20:22:00,82.7,31.2,29.21,SSW,194,9.8,11.8,15,-99.99,,,0.00,0,rob ver 1B,2013-04-22 03:22:00,
2013-04-21 20:23:00,83.2,21.0,29.35,SSW,199,9.7,11.4,9,-99.99,,,0.00,0,rob ver 1A,2013-04-22 03:23:00,
2013-04-21 20:24:00,82.6,31.0,29.21,SSW,192,9.8,11.9,15,-99.99,,,0.00,0,rob ver 1B,2013-04-22 03:24:00,
2013-04-21 20:25:00,82.6,30.6,29.21,SSW,192,10.0,12.7,15,-99.99,,,0.00,0,rob ver 1B,2013-04-22 03:25:00,
2013-04-21 20:26:00,82.5,30.3,29.21,SSW,193,9.1,11.3,15,-99.99,,,0.00,0,rob ver 1B,2013-04-22 03:26:00,
2013-04-21 20:27:00,82.4,30.0,29.21,South,191,8.4,11.1,14,-99.99,,,0.00,0,rob ver 1B,2013-04-22 03:27:00,
2013-04-21 20:28:00,83.2,20.8,29.35,SSW,199,9.9,11.4,9,-99.99,,,0.00,0,rob ver 1A,2013-04-22 03:28:00,
2013-04-21 20:29:00,82.3,28.7,29.21,South,191,9.7,11.7,14,-99.99,,,0.00,0,rob ver 1B,2013-04-22 03:29:00,
2013-04-21 20:30:00,82.4,28.7,29.21,South,191,9.0,11.7,14,-99.99,,,0.00,0,rob ver 1B,2013-04-22 03:30:00,
2013-04-21 20:31:00,82.4,28.7,29.21,South,190,9.5,12.0,14,-99.99,,,0.00,0,rob ver 1B,2013-04-22 03:31:00,
2013-04-21 20:32:00,82.4,28.7,29.21,South,189,9.9,12.8,14,-99.99,,,0.00,0,rob ver 1B,2013-04-22 03:32:00,
2013-04-21 20:33:00,82.8,20.9,29.35,SSW,202,9.3,10.9,10,-99.99,,,0.00,0,rob ver 1A,2013-04-22 03:33:00,
2013-04-21 20:34:00,82.3,28.8,29.23,South,190,8.9,11.1,14,-99.99,,,0.00,0,rob ver 1B,2013-04-22 03:34:00,
2013-04-21 20:35:00,82.2,29.7,29.21,South,191,9.0,10.9,14,-99.99,,,0.00,0,rob ver 1B,2013-04-22 03:35:00,
2013-04-21 20:36:00,82.1,30.1,29.21,SSW,192,9.0,11.3,15,-99.99,,,0.00,0,rob ver 1B,2013-04-22 03:36:00,
2013-04-21 20:37:00,82.1,30.5,29.21,SSW,193,9.3,11.3,15,-99.99,,,0.00,0,rob ver 1B,2013-04-22 03:37:00,
2013-04-21 20:38:00,82.3,21.3,29.35,SSW,196,7.5,9.6,10,-99.99,,,0.00,0,rob ver 1A,2013-04-22 03:38:00,
2013-04-21 20:39:00,81.9,30.1,29.21,SSW,192,10.1,12.1,15,-99.99,,,0.00,0,rob ver 1B,2013-04-22 03:39:00,
2013-04-21 20:40:00,81.9,30.0,29.23,South,191,9.9,12.4,15,-99.99,,,0.00,0,rob ver 1B,2013-04-22 03:40:00,
2013-04-21 20:41:00,81.8,29.9,29.23,South,191,8.9,10.6,15,-99.99,,,0.00,0,rob ver 1B,2013-04-22 03:41:00,
2013-04-21 20:42:00,81.7,29.4,29.23,South,188,9.2,11.0,14,-99.99,,,0.00,0,rob ver 1B,2013-04-22 03:42:00,
2013-04-21 20:43:00,82.0,21.5,29.35,SSW,197,7.1,8.5,10,-99.99,,,0.00,0,rob ver 1A,2013-04-22 03:43:00,
2013-04-21 20:44:00,81.7,28.3,29.23,South,189,9.2,11.4,14,-99.99,,,0.00,0,rob ver 1B,2013-04-22 03:44:00,
2013-04-21 20:45:00,81.7,28.3,29.21,South,189,9.4,11.3,14,-99.99,,,0.00,0,rob ver 1B,2013-04-22 03:45:00,
2013-04-21 20:46:00,81.6,28.5,29.23,South,190,8.6,10.7,14,-99.99,,,0.00,0,rob ver 1B,2013-04-22 03:46:00,
2013-04-21 20:47:00,81.5,29.0,29.23,South,188,8.1,10.6,14,-99.99,,,0.00,0,rob ver 1B,2013-04-22 03:47:00,
2013-04-21 20:48:00,81.6,21.3,29.35,SSW,192,5.8,6.9,10,-99.99,,,0.00,0,rob ver 1A,2013-04-22 03:48:00,
2013-04-21 20:49:00,81.2,29.4,29.23,South,190,8.1,10.2,15,-99.99,,,0.00,0,rob ver 1B,2013-04-22 03:49:00,
2013-04-21 20:50:00,81.2,29.5,29.23,South,187,8.5,10.5,15,-99.99,,,0.00,0,rob ver 1B,2013-04-22 03:50:00,
2013-04-21 20:51:00,81.1,29.4,29.23,South,186,8.4,11.1,15,-99.99,,,0.00,0,rob ver 1B,2013-04-22 03:51:00,
2013-04-21 20:52:00,81.1,29.2,29.23,South,187,8.2,10.0,14,-99.99,,,0.00,0,rob ver 1B,2013-04-22 03:52:00,
2013-04-21 20:53:00,81.1,21.1,29.38,SSW,193,6.0,7.3,10,-99.99,,,0.00,0,rob ver 1A,2013-04-22 03:53:00,
2013-04-21 20:54:00,81.0,28.6,29.23,South,187,7.8,9.2,14,-99.99,,,0.00,0,rob ver 1B,2013-04-22 03:54:00,
2013-04-21 20:55:00,81.0,28.6,29.23,South,182,7.9,9.9,14,-99.99,,,0.00,0,rob ver 1B,2013-04-22 03:55:00,
2013-04-21 20:56:00,80.8,28.6,29.23,South,180,8.8,12.0,14,-99.99,,,0.00,0,rob ver 1B,2013-04-22 03:56:00,
2013-04-21 20:57:00,80.7,28.4,29.23,South,180,8.6,11.1,14,-99.99,,,0.00,0,rob ver 1B,2013-04-22 03:57:00,
2013-04-21 20:58:00,80.7,20.9,29.38,SSW,197,6.3,7.7,10,-99.99,,,0.00,0,rob ver 1A,2013-04-22 03:58:00,
2013-04-21 20:59:00,80.7,27.1,29.23,South,183,8.9,11.2,13,-99.99,,,0.00,0,rob ver 1B,2013-04-22 03:59:00,
2013-04-21 21:00:00,80.8,26.9,29.23,South,182,8.8,11.0,13,-99.99,,,0.00,0,rob ver 1B,2013-04-22 04:00:00,
2013-04-21 21:01:00,80.3,20.9,29.38,SSW,198,6.5,7.7,10,-99.99,,,0.00,0,rob ver 1A,2013-04-22 04:01:00,
2013-04-21 21:02:00,80.1,20.9,29.38,SSW,198,6.5,7.6,10,-99.99,,,0.00,0,rob ver 1A,2013-04-22 04:02:00,
2013-04-21 21:03:00,81.0,26.4,29.23,South,180,10.8,13.0,13,-99.99,,,0.00,0,rob ver 1B,2013-04-22 04:03:00,
2013-04-21 21:04:00,81.1,26.4,29.23,South,182,10.4,14.1,13,-99.99,,,0.00,0,rob ver 1B,2013-04-22 04:04:00,
2013-04-21 21:05:00,81.1,26.2,29.23,South,184,11.4,14.0,13,-99.99,,,0.00,0,rob ver 1B,2013-04-22 04:05:00,
2013-04-21 21:06:00,81.1,26.1,29.23,South,185,10.3,12.4,13,-99.99,,,0.00,0,rob ver 1B,2013-04-22 04:06:00,
2013-04-21 21:07:00,79.8,21.7,29.38,SSW,192,7.4,8.6,11,-99.99,,,0.00,0,rob ver 1A,2013-04-22 04:07:00,
2013-04-21 21:08:00,81.1,26.3,29.23,South,190,11.0,13.6,13,-99.99,,,0.00,0,rob ver 1B,2013-04-22 04:08:00,
2013-04-21 21:09:00,81.0,26.3,29.23,South,188,10.5,12.5,13,-99.99,,,0.00,0,rob ver 1B,2013-04-22 04:09:00,
2013-04-21 21:10:00,80.9,26.3,29.23,South,187,10.2,12.8,13,-99.99,,,0.00,0,rob ver 1B,2013-04-22 04:10:00,
2013-04-21 21:11:00,80.9,26.1,29.23,South,186,11.3,13.7,13,-99.99,,,0.00,0,rob ver 1B,2013-04-22 04:11:00,
2013-04-21 21:12:00,79.5,21.7,29.38,SSW,195,6.8,8.4,11,-99.99,,,0.00,0,rob ver 1A,2013-04-22 04:12:00,
2013-04-21 21:13:00,80.8,26.5,29.23,South,189,10.4,13.3,13,-99.99,,,0.00,0,rob ver 1B,2013-04-22 04:13:00,
2013-04-21 21:14:00,80.8,26.6,29.23,South,191,9.8,12.9,13,-99.99,,,0.00,0,rob ver 1B,2013-04-22 04:14:00,
2013-04-21 21:15:00,80.7,26.7,29.23,SSW,192,10.1,11.8,13,-99.99,,,0.00,0,rob ver 1B,2013-04-22 04:15:00,
2013-04-21 21:16:00,80.5,26.9,29.23,South,190,9.0,11.8,14,-99.99,,,0.00,0,rob ver 1B,2013-04-22 04:16:00,
2013-04-21 21:17:00,79.4,21.5,29.38,South,190,5.6,6.5,11,-99.99,,,0.00,0,rob ver 1A,2013-04-22 04:17:00,
2013-04-21 21:18:00,80.3,27.3,29.23,South,191,9.5,11.6,14,-99.99,,,0.00,0,rob ver 1B,2013-04-22 04:18:00,
2013-04-21 21:19:00,80.2,28.1,29.23,SSW,192,10.2,12.4,15,-99.99,,,0.00,0,rob ver 1B,2013-04-22 04:19:00,
2013-04-21 21:20:00,80.1,28.4,29.23,SSW,192,9.2,12.6,15,-99.99,,,0.00,0,rob ver 1B,2013-04-22 04:20:00,
2013-04-21 21:21:00,80.0,28.6,29.23,SSW,192,9.0,11.6,15,-99.99,,,0.00,0,rob ver 1B,2013-04-22 04:21:00,
2013-04-21 21:22:00,79.0,21.0,29.38,South,189,5.3,6.4,11,-99.99,,,0.00,0,rob ver 1A,2013-04-22 04:22:00,
2013-04-21 21:23:00,80.0,28.5,29.23,SSW,193,10.2,12.1,15,-99.99,,,0.00,0,rob ver 1B,2013-04-22 04:23:00,
2013-04-21 21:24:00,79.9,29.1,29.23,SSW,196,10.2,12.2,15,-99.99,,,0.00,0,rob ver 1B,2013-04-22 04:24:00,
2013-04-21 21:25:00,79.8,29.4,29.23,SSW,194,9.8,11.9,15,-99.99,,,0.00,0,rob ver 1B,2013-04-22 04:25:00,
2013-04-21 21:26:00,79.8,29.4,29.23,SSW,194,10.2,12.6,15,-99.99,,,0.00,0,rob ver 1B,2013-04-22 04:26:00,
2013-04-21 21:27:00,79.8,29.5,29.23,SSW,196,9.2,11.4,16,-99.99,,,0.00,0,rob ver 1B,2013-04-22 04:27:00,
2013-04-21 21:28:00,78.3,20.7,29.38,SSW,200,6.7,8.1,11,-99.99,,,0.00,0,rob ver 1A,2013-04-22 04:28:00,
2013-04-21 21:29:00,79.6,29.8,29.23,SSW,197,10.8,13.0,15,-99.99,,,0.00,0,rob ver 1B,2013-04-22 04:29:00,
2013-04-21 21:30:00,79.6,29.4,29.23,SSW,195,10.2,13.2,15,-99.99,,,0.00,0,rob ver 1B,2013-04-22 04:30:00,
2013-04-21 21:31:00,79.6,29.5,29.23,SSW,195,10.0,12.8,16,-99.99,,,0.00,0,rob ver 1B,2013-04-22 04:31:00,
2013-04-21 21:32:00,79.5,29.7,29.23,SSW,196,9.9,12.4,16,-99.99,,,0.00,0,rob ver 1B,2013-04-22 04:32:00,
2013-04-21 21:33:00,77.8,20.8,29.38,SSW,194,5.7,6.5,11,-99.99,,,0.00,0,rob ver 1A,2013-04-22 04:33:00,
2013-04-21 21:34:00,79.2,29.8,29.23,SSW,192,9.0,11.4,16,-99.99,,,0.00,0,rob ver 1B,2013-04-22 04:34:00,
2013-04-21 21:35:00,79.1,29.6,29.23,South,190,8.4,11.0,16,-99.99,,,0.00,0,rob ver 1B,2013-04-22 04:35:00,
2013-04-21 21:36:00,79.2,28.8,29.23,South,190,10.4,13.0,15,-99.99,,,0.00,0,rob ver 1B,2013-04-22 04:36:00,
2013-04-21 21:37:00,79.3,28.8,29.23,SSW,192,8.6,10.5,15,-99.99,,,0.00,0,rob ver 1B,2013-04-22 04:37:00,
2013-04-21 21:38:00,77.8,20.8,29.38,South,186,5.8,7.0,11,-99.99,,,0.00,0,rob ver 1A,2013-04-22 04:38:00,
2013-04-21 21:39:00,78.9,29.9,29.23,SSW,193,8.3,10.0,17,-99.99,,,0.00,0,rob ver 1B,2013-04-22 04:39:00,
2013-04-21 21:40:00,78.6,30.4,29.23,SSW,193,8.7,12.0,17,-99.99,,,0.00,0,rob ver 1B,2013-04-22 04:40:00,
2013-04-21 21:41:00,78.3,30.5,29.23,SSW,197,10.1,12.7,17,-99.99,,,0.00,0,rob ver 1B,2013-04-22 04:41:00,
2013-04-21 21:42:00,78.1,30.7,29.23,SSW,200,11.1,13.6,17,-99.99,,,0.00,0,rob ver 1B,2013-04-22 04:42:00,
2013-04-21 21:43:00,77.6,21.2,29.38,South,183,5.4,7.1,12,-99.99,,,0.00,0,rob ver 1A,2013-04-22 04:43:00,
2013-04-21 21:44:00,77.7,31.0,29.23,SSW,200,12.4,15.1,18,-99.99,,,0.00,0,rob ver 1B,2013-04-22 04:44:00,
2013-04-21 21:45:00,77.6,31.1,29.23,SSW,198,12.3,14.6,18,-99.99,,,0.00,0,rob ver 1B,2013-04-22 04:45:00,
2013-04-21 21:46:00,77.5,31.0,29.23,SSW,200,11.4,14.5,18,-99.99,,,0.00,0,rob ver 1B,2013-04-22 04:46:00,
2013-04-21 21:47:00,77.4,30.9,29.23,SSW,201,12.0,14.0,18,-99.99,,,0.00,0,rob ver 1B,2013-04-22 04:47:00,
2013-04-21 21:48:00,77.2,21.2,29.38,South,184,4.5,5.5,12,-99.99,,,0.00,0,rob ver 1A,2013-04-22 04:48:00,
2013-04-21 21:49:00,77.3,30.6,29.23,SSW,198,11.3,13.9,18,-99.99,,,0.00,0,rob ver 1B,2013-04-22 04:49:00,
2013-04-21 21:50:00,77.2,30.5,29.23,SSW,200,11.1,13.0,18,-99.99,,,0.00,0,rob ver 1B,2013-04-22 04:50:00,
2013-04-21 21:51:00,77.2,30.3,29.23,SSW,201,11.9,14.1,17,-99.99,,,0.00,0,rob ver 1B,2013-04-22 04:51:00,
2013-04-21 21:52:00,77.3,30.2,29.23,SSW,202,11.7,14.7,17,-99.99,,,0.00,0,rob ver 1B,2013-04-22 04:52:00,
2013-04-21 21:53:00,77.2,21.6,29.38,South,190,6.0,7.3,12,-99.99,,,0.00,0,rob ver 1A,2013-04-22 04:53:00,
2013-04-21 21:54:00,77.1,30.0,29.23,SSW,203,11.5,13.5,17,-99.99,,,0.00,0,rob ver 1B,2013-04-22 04:54:00,
2013-04-21 21:55:00,77.1,30.2,29.23,SSW,203,11.4,13.1,17,-99.99,,,0.00,0,rob ver 1B,2013-04-22 04:55:00,
2013-04-21 21:56:00,77.1,30.3,29.23,SSW,204,12.3,14.5,18,-99.99,,,0.00,0,rob ver 1B,2013-04-22 04:56:00,
2013-04-21 21:57:00,77.1,30.3,29.23,SSW,204,11.0,12.4,17,-99.99,,,0.00,0,rob ver 1B,2013-04-22 04:57:00,
2013-04-21 21:58:00,77.0,21.7,29.38,South,191,4.7,6.2,12,-99.99,,,0.00,0,rob ver 1A,2013-04-22 04:58:00,
2013-04-21 21:59:00,76.9,30.3,29.23,SSW,202,10.3,12.3,18,-99.99,,,0.00,0,rob ver 1B,2013-04-22 04:59:00,
2013-04-21 22:00:00,76.8,30.2,29.23,SSW,201,11.0,14.1,18,-99.99,,,0.00,0,rob ver 1B,2013-04-22 05:00:00,
2013-04-21 22:01:00,76.8,30.1,29.23,SSW,199,10.2,12.5,18,-99.99,,,0.00,0,rob ver 1B,2013-04-22 05:01:00,
2013-04-21 22:02:00,76.7,30.0,29.23,SSW,202,10.1,12.9,17,-99.99,,,0.00,0,rob ver 1B,2013-04-22 05:02:00,
2013-04-21 22:03:00,76.7,21.8,29.38,SSW,194,3.9,5.7,12,-99.99,,,0.00,0,rob ver 1A,2013-04-22 05:03:00,
2013-04-21 22:04:00,76.7,29.9,29.23,SSW,200,11.4,14.1,17,-99.99,,,0.00,0,rob ver 1B,2013-04-22 05:04:00,
2013-04-21 22:05:00,76.7,29.8,29.23,SSW,200,11.0,13.2,17,-99.99,,,0.00,0,rob ver 1B,2013-04-22 05:05:00,
2013-04-21 22:06:00,76.7,29.8,29.23,SSW,202,11.4,14.5,17,-99.99,,,0.00,0,rob ver 1B,2013-04-22 05:06:00,
2013-04-21 22:07:00,76.7,29.7,29.23,SSW,201,11.3,13.5,17,-99.99,,,0.00,0,rob ver 1B,2013-04-22 05:07:00,
2013-04-21 22:08:00,76.8,21.4,29.38,South,191,4.2,5.2,12,-99.99,,,0.00,0,rob ver 1A,2013-04-22 05:08:00,
2013-04-21 22:09:00,76.6,29.7,29.23,SSW,203,10.9,13.2,17,-99.99,,,0.00,0,rob ver 1B,2013-04-22 05:09:00,
2013-04-21 22:10:00,76.6,29.8,29.23,SSW,204,12.6,15.0,17,-99.99,,,0.00,0,rob ver 1B,2013-04-22 05:10:00,
2013-04-21 22:11:00,76.6,29.8,29.23,SSW,202,10.6,12.2,17,-99.99,,,0.00,0,rob ver 1B,2013-04-22 05:11:00,
2013-04-21 22:12:00,76.5,29.7,29.23,SSW,203,10.3,12.0,17,-99.99,,,0.00,0,rob ver 1B,2013-04-22 05:12:00,
2013-04-21 22:13:00,76.8,21.0,29.38,SSW,197,3.5,4.0,12,-99.99,,,0.00,0,rob ver 1A,2013-04-22 05:13:00,
2013-04-21 22:14:00,76.5,29.8,29.23,SSW,203,11.4,13.4,18,-99.99,,,0.00,0,rob ver 1B,2013-04-22 05:14:00,
2013-04-21 22:15:00,76.4,29.9,29.23,SSW,205,11.7,14.2,18,-99.99,,,0.00,0,rob ver 1B,2013-04-22 05:15:00,
2013-04-21 22:16:00,76.3,30.0,29.23,SSW,204,11.5,13.8,18,-99.99,,,0.00,0,rob ver 1B,2013-04-22 05:16:00,
2013-04-21 22:17:00,76.2,30.0,29.23,SSW,204,11.8,13.6,18,-99.99,,,0.00,0,rob ver 1B,2013-04-22 05:17:00,
2013-04-21 22:18:00,76.6,21.1,29.38,SSW,210,2.8,3.3,12,-99.99,,,0.00,0,rob ver 1A,2013-04-22 05:18:00,
2013-04-21 22:19:00,76.1,30.2,29.23,SSW,205,11.6,14.3,18,-99.99,,,0.00,0,rob ver 1B,2013-04-22 05:19:00,
2013-04-21 22:20:00,76.1,30.2,29.23,SSW,205,11.7,13.7,18,-99.99,,,0.00,0,rob ver 1B,2013-04-22 05:20:00,
2013-04-21 22:21:00,76.0,30.2,29.23,SSW,208,11.6,14.6,18,-99.99,,,0.00,0,rob ver 1B,2013-04-22 05:21:00,
2013-04-21 22:22:00,75.9,30.3,29.23,SSW,207,11.9,14.4,18,-99.99,,,0.00,0,rob ver 1B,2013-04-22 05:22:00,
2013-04-21 22:23:00,76.4,21.0,29.38,SW,226,3.3,3.8,12,-99.99,,,0.00,0,rob ver 1A,2013-04-22 05:23:00,
2013-04-21 22:24:00,75.8,30.4,29.23,SSW,207,12.4,15.3,18,-99.99,,,0.00,0,rob ver 1B,2013-04-22 05:24:00,
2013-04-21 22:25:00,75.8,30.5,29.23,SSW,205,13.0,15.6,18,-99.99,,,0.00,0,rob ver 1B,2013-04-22 05:25:00,
2013-04-21 22:26:00,75.7,30.4,29.23,SSW,205,11.1,13.8,19,-99.99,,,0.00,0,rob ver 1B,2013-04-22 05:26:00,
2013-04-21 22:27:00,75.6,30.6,29.23,SSW,208,12.8,15.6,19,-99.99,,,0.00,0,rob ver 1B,2013-04-22 05:27:00,
2013-04-21 22:28:00,76.1,21.0,29.38,WSW,242,3.6,4.7,12,-99.99,,,0.00,0,rob ver 1A,2013-04-22 05:28:00,
2013-04-21 22:29:00,75.5,30.6,29.23,SSW,207,12.9,16.3,19,-99.99,,,0.00,0,rob ver 1B,2013-04-22 05:29:00,
2013-04-21 22:30:00,75.5,30.6,29.23,SSW,205,13.0,15.2,19,-99.99,,,0.00,0,rob ver 1B,2013-04-22 05:30:00,
2013-04-21 22:31:00,75.4,30.6,29.23,SSW,208,13.6,15.6,19,-99.99,,,0.00,0,rob ver 1B,2013-04-22 05:31:00,
2013-04-21 22:32:00,75.4,30.6,29.23,SSW,208,13.5,16.3,19,-99.99,,,0.00,0,rob ver 1B,2013-04-22 05:32:00,
2013-04-21 22:33:00,75.2,21.2,29.38,West,273,4.2,5.6,13,-99.99,,,0.00,0,rob ver 1A,2013-04-22 05:33:00,
2013-04-21 22:34:00,75.4,30.5,29.23,SSW,209,14.2,16.9,19,-99.99,,,0.00,0,rob ver 1B,2013-04-22 05:34:00,
2013-04-21 22:35:00,75.4,30.4,29.23,SSW,209,14.4,16.9,19,-99.99,,,0.00,0,rob ver 1B,2013-04-22 05:35:00,
2013-04-21 22:36:00,75.4,30.4,29.23,SSW,210,13.2,15.7,19,-99.99,,,0.00,0,rob ver 1B,2013-04-22 05:36:00,
2013-04-21 22:37:00,75.3,30.4,29.23,SSW,209,14.2,16.7,19,-99.99,,,0.00,0,rob ver 1B,2013-04-22 05:37:00,
2013-04-21 22:38:00,75.4,21.9,29.38,West,259,2.5,3.9,13,-99.99,,,0.00,0,rob ver 1A,2013-04-22 05:38:00,
2013-04-21 22:39:00,75.3,30.3,29.23,SSW,210,14.4,16.8,19,-99.99,,,0.00,0,rob ver 1B,2013-04-22 05:39:00,
2013-04-21 22:40:00,75.2,30.3,29.23,SSW,211,13.7,17.0,19,-99.99,,,0.00,0,rob ver 1B,2013-04-22 05:40:00,
2013-04-21 22:41:00,75.1,30.2,29.23,SSW,212,14.5,16.4,19,-99.99,,,0.00,0,rob ver 1B,2013-04-22 05:41:00,
2013-04-21 22:42:00,75.1,30.2,29.23,SSW,212,13.9,15.8,19,-99.99,,,0.00,0,rob ver 1B,2013-04-22 05:42:00,
2013-04-21 22:43:00,75.0,22.1,29.38,NW,310,1.3,1.9,13,-99.99,,,0.00,0,rob ver 1A,2013-04-22 05:43:00,
2013-04-21 22:44:00,75.1,30.1,29.23,SSW,211,13.6,17.6,19,-99.99,,,0.00,0,rob ver 1B,2013-04-22 05:44:00,
2013-04-21 22:45:00,74.9,30.2,29.23,SSW,213,14.3,15.9,19,-99.99,,,0.00,0,rob ver 1B,2013-04-22 05:45:00,
2013-04-21 22:46:00,74.9,30.1,29.23,SSW,212,14.4,16.6,19,-99.99,,,0.00,0,rob ver 1B,2013-04-22 05:46:00,
2013-04-21 22:47:00,74.8,30.1,29.23,SSW,213,13.8,16.2,19,-99.99,,,0.00,0,rob ver 1B,2013-04-22 05:47:00,
2013-04-21 22:48:00,74.8,22.3,29.38,WNW,288,1.4,1.9,13,-99.99,,,0.00,0,rob ver 1A,2013-04-22 05:48:00,
2013-04-21 22:49:00,74.8,30.2,29.23,SSW,212,14.5,17.6,19,-99.99,,,0.00,0,rob ver 1B,2013-04-22 05:49:00,
2013-04-21 22:50:00,74.7,30.2,29.23,SSW,211,14.3,16.5,19,-99.99,,,0.00,0,rob ver 1B,2013-04-22 05:50:00,
2013-04-21 22:51:00,74.7,30.2,29.23,SSW,210,13.8,17.4,19,-99.99,,,0.00,0,rob ver 1B,2013-04-22 05:51:00,
2013-04-21 22:52:00,74.7,30.1,29.23,SSW,208,13.1,16.0,19,-99.99,,,0.00,0,rob ver 1B,2013-04-22 05:52:00,
2013-04-21 22:53:00,74.8,22.0,29.38,NNW,347,1.7,2.3,13,-99.99,,,0.00,0,rob ver 1A,2013-04-22 05:53:00,
2013-04-21 22:54:00,74.5,30.1,29.23,SSW,205,12.4,15.1,19,-99.99,,,0.00,0,rob ver 1B,2013-04-22 05:54:00,
2013-04-21 22:55:00,74.5,30.2,29.23,SSW,207,11.6,13.8,19,-99.99,,,0.00,0,rob ver 1B,2013-04-22 05:55:00,
2013-04-21 22:56:00,74.4,30.2,29.23,SSW,205,11.8,14.7,19,-99.99,,,0.00,0,rob ver 1B,2013-04-22 05:56:00,
2013-04-21 22:57:00,74.3,30.2,29.23,SSW,204,10.9,12.9,19,-99.99,,,0.00,0,rob ver 1B,2013-04-22 05:57:00,
2013-04-21 22:58:00,74.6,22.1,29.38,West,263,3.6,4.7,13,-99.99,,,0.00,0,rob ver 1A,2013-04-22 05:58:00,
2013-04-21 22:59:00,74.2,30.3,29.23,SSW,203,12.2,14.2,19,-99.99,,,0.00,0,rob ver 1B,2013-04-22 05:59:00,
2013-04-21 23:00:00,74.2,30.3,29.23,SSW,206,11.3,14.7,19,-99.99,,,0.00,0,rob ver 1B,2013-04-22 06:00:00,
2013-04-21 23:01:00,74.2,30.2,29.23,SSW,203,9.9,12.0,19,-99.99,,,0.00,0,rob ver 1B,2013-04-22 06:01:00,
2013-04-21 23:02:00,74.1,30.2,29.23,SSW,206,11.8,14.7,19,-99.99,,,0.00,0,rob ver 1B,2013-04-22 06:02:00,
2013-04-21 23:03:00,74.4,21.9,29.38,WNW,282,4.2,5.6,13,-99.99,,,0.00,0,rob ver 1A,2013-04-22 06:03:00,
2013-04-21 23:04:00,74.0,30.1,29.23,SSW,203,10.0,12.3,19,-99.99,,,0.00,0,rob ver 1B,2013-04-22 06:04:00,
2013-04-21 23:05:00,73.9,30.0,29.23,SSW,202,11.2,13.4,19,-99.99,,,0.00,0,rob ver 1B,2013-04-22 06:05:00,
2013-04-21 23:06:00,74.0,30.0,29.23,SSW,206,11.3,14.4,19,-99.99,,,0.00,0,rob ver 1B,2013-04-22 06:06:00,
2013-04-21 23:07:00,74.0,29.9,29.23,SSW,211,12.4,14.3,19,-99.99,,,0.00,0,rob ver 1B,2013-04-22 06:07:00,
2013-04-21 23:08:00,73.8,21.6,29.38,West,280,3.9,4.5,13,-99.99,,,0.00,0,rob ver 1A,2013-04-22 06:08:00,
2013-04-21 23:09:00,73.9,29.8,29.23,SW,214,13.4,15.7,19,-99.99,,,0.00,0,rob ver 1B,2013-04-22 06:09:00,
2013-04-21 23:10:00,73.8,29.8,29.23,SW,214,12.5,14.4,19,-99.99,,,0.00,0,rob ver 1B,2013-04-22 06:10:00,
2013-04-21 23:11:00,73.7,29.8,29.23,SW,214,12.3,14.3,19,-99.99,,,0.00,0,rob ver 1B,2013-04-22 06:11:00,
2013-04-21 23:12:00,73.6,29.7,29.23,SW,215,12.6,15.1,19,-99.99,,,0.00,0,rob ver 1B,2013-04-22 06:12:00,
2013-04-21 23:13:00,73.8,21.6,29.38,West,280,3.4,4.2,13,-99.99,,,0.00,0,rob ver 1A,2013-04-22 06:13:00,
2013-04-21 23:14:00,73.5,29.7,29.23,SW,214,13.5,15.4,19,-99.99,,,0.00,0,rob ver 1B,2013-04-22 06:14:00,
2013-04-21 23:15:00,73.6,29.7,29.23,SW,215,13.0,15.7,19,-99.99,,,0.00,0,rob ver 1B,2013-04-22 06:15:00,
2013-04-21 23:16:00,73.6,29.6,29.23,SW,215,12.1,14.4,19,-99.99,,,0.00,0,rob ver 1B,2013-04-22 06:16:00,
2013-04-21 23:17:00,73.5,29.6,29.23,SW,218,12.2,14.0,19,-99.99,,,0.00,0,rob ver 1B,2013-04-22 06:17:00,
2013-04-21 23:18:00,73.5,21.5,29.38,NW,310,2.6,3.4,14,-99.99,,,0.00,0,rob ver 1A,2013-04-22 06:18:00,
2013-04-21 23:19:00,73.4,29.6,29.23,SW,221,10.9,12.4,19,-99.99,,,0.00,0,rob ver 1B,2013-04-22 06:19:00,
2013-04-21 23:20:00,73.4,29.5,29.23,SW,221,10.2,12.0,19,-99.99,,,0.00,0,rob ver 1B,2013-04-22 06:20:00,
2013-04-21 23:21:00,73.4,29.5,29.23,SW,222,10.1,13.0,19,-99.99,,,0.00,0,rob ver 1B,2013-04-22 06:21:00,
2013-04-21 23:22:00,73.3,29.4,29.23,SW,222,9.7,11.8,19,-99.99,,,0.00,0,rob ver 1B,2013-04-22 06:22:00,
2013-04-21 23:23:00,73.4,21.3,29.38,NNW,327,2.3,2.9,14,-99.99,,,0.00,0,rob ver 1A,2013-04-22 06:23:00,
2013-04-21 23:24:00,73.2,29.3,29.23,SW,219,10.2,13.0,19,-99.99,,,0.00,0,rob ver 1B,2013-04-22 06:24:00,
2013-04-21 23:25:00,73.3,29.2,29.23,SW,218,9.7,12.4,19,-99.99,,,0.00,0,rob ver 1B,2013-04-22 06:25:00,
2013-04-21 23:26:00,73.2,29.1,29.23,SW,221,9.3,11.3,19,-99.99,,,0.00,0,rob ver 1B,2013-04-22 06:26:00,
2013-04-21 23:27:00,73.2,29.1,29.23,SW,222,9.8,11.6,19,-99.99,,,0.00,0,rob ver 1B,2013-04-22 06:27:00,
2013-04-21 23:28:00,73.5,21.1,29.38,WNW,300,2.2,2.7,13,-99.99,,,0.00,0,rob ver 1A,2013-04-22 06:28:00,
2013-04-21 23:29:00,73.1,29.0,29.23,SW,222,9.2,11.9,19,-99.99,,,0.00,0,rob ver 1B,2013-04-22 06:29:00,
2013-04-21 23:30:00,73.0,29.0,29.23,SW,222,8.7,10.4,19,-99.99,,,0.00,0,rob ver 1B,2013-04-22 06:30:00,
2013-04-21 23:31:00,72.9,29.0,29.23,SW,223,9.0,10.5,19,-99.99,,,0.00,0,rob ver 1B,2013-04-22 06:31:00,
2013-04-21 23:32:00,72.9,29.0,29.23,SW,223,9.1,10.8,19,-99.99,,,0.00,0,rob ver 1B,2013-04-22 06:32:00,
2013-04-21 23:33:00,73.3,21.1,29.38,WNW,283,3.5,4.0,13,-99.99,,,0.00,0,rob ver 1A,2013-04-22 06:33:00,
2013-04-21 23:34:00,72.9,29.0,29.23,SW,222,9.4,11.2,19,-99.99,,,0.00,0,rob ver 1B,2013-04-22 06:34:00,
2013-04-21 23:35:00,72.9,29.0,29.23,SW,221,8.9,11.1,19,-99.99,,,0.00,0,rob ver 1B,2013-04-22 06:35:00,
2013-04-21 23:36:00,72.9,29.0,29.23,SW,219,8.1,10.1,19,-99.99,,,0.00,0,rob ver 1B,2013-04-22 06:36:00,
2013-04-21 23:37:00,72.8,29.0,29.23,SW,219,8.6,10.2,19,-99.99,,,0.00,0,rob ver 1B,2013-04-22 06:37:00,
2013-04-21 23:38:00,72.9,21.0,29.38,WNW,285,3.9,4.5,14,-99.99,,,0.00,0,rob ver 1A,2013-04-22 06:38:00,
2013-04-21 23:39:00,72.8,28.9,29.23,SW,219,8.5,10.1,19,-99.99,,,0.00,0,rob ver 1B,2013-04-22 06:39:00,
2013-04-21 23:40:00,72.8,28.8,29.23,SW,221,8.8,10.1,19,-99.99,,,0.00,0,rob ver 1B,2013-04-22 06:40:00,
2013-04-21 23:41:00,72.8,28.7,29.23,SW,221,8.4,10.5,19,-99.99,,,0.00,0,rob ver 1B,2013-04-22 06:41:00,
2013-04-21 23:42:00,72.8,28.6,29.23,SW,219,8.5,10.0,19,-99.99,,,0.00,0,rob ver 1B,2013-04-22 06:42:00,
2013-04-21 23:43:00,71.9,20.2,29.38,WSW,237,3.1,4.3,14,-99.99,,,0.00,0,rob ver 1A,2013-04-22 06:43:00,
2013-04-21 23:44:00,72.8,28.5,29.23,SW,218,7.7,8.9,19,-99.99,,,0.00,0,rob ver 1B,2013-04-22 06:44:00,
2013-04-21 23:45:00,72.7,28.5,29.23,SW,219,7.1,8.3,19,-99.99,,,0.00,0,rob ver 1B,2013-04-22 06:45:00,
2013-04-21 23:46:00,72.7,28.5,29.23,SW,221,7.1,8.1,19,-99.99,,,0.00,0,rob ver 1B,2013-04-22 06:46:00,
2013-04-21 23:47:00,72.6,28.5,29.23,SW,225,6.7,8.4,19,-99.99,,,0.00,0,rob ver 1B,2013-04-22 06:47:00,
2013-04-21 23:48:00,72.4,28.4,29.23,SW,225,6.2,8.0,19,-99.99,,,0.00,0,rob ver 1B,2013-04-22 06:48:00,
2013-04-21 23:49:00,72.5,20.4,29.38,SW,227,6.3,7.6,13,-99.99,,,0.00,0,rob ver 1A,2013-04-22 06:49:00,
2013-04-21 23:50:00,72.1,28.2,29.23,SW,225,6.3,7.7,19,-99.99,,,0.00,0,rob ver 1B,2013-04-22 06:50:00,
2013-04-21 23:51:00,72.0,28.2,29.23,SW,225,6.2,7.9,19,-99.99,,,0.00,0,rob ver 1B,2013-04-22 06:51:00,
2013-04-21 23:52:00,72.0,28.1,29.23,SW,224,6.3,8.0,19,-99.99,,,0.00,0,rob ver 1B,2013-04-22 06:52:00,
2013-04-21 23:53:00,72.1,28.1,29.23,SW,225,5.8,7.3,19,-99.99,,,0.00,0,rob ver 1B,2013-04-22 06:53:00,
2013-04-21 23:54:00,72.8,20.4,29.38,SW,236,5.2,6.5,13,-99.99,,,0.00,0,rob ver 1A,2013-04-22 06:54:00,
2013-04-21 23:55:00,72.2,28.1,29.23,SW,225,5.8,7.2,19,-99.99,,,0.00,0,rob ver 1B,2013-04-22 06:55:00,
2013-04-21 23:56:00,72.2,28.1,29.23,SW,226,4.6,6.7,19,-99.99,,,0.00,0,rob ver 1B,2013-04-22 06:56:00,
2013-04-21 23:57:00,72.2,28.0,29.23,SW,224,3.4,5.6,19,-99.99,,,0.00,0,rob ver 1B,2013-04-22 06:57:00,
2013-04-21 23:58:00,72.2,27.9,29.23,SW,216,1.8,3.5,19,-99.99,,,0.00,0,rob ver 1B,2013-04-22 06:58:00,
2013-04-21 23:59:00,72.1,20.2,29.38,West,278,3.0,4.0,14,-99.99,,,0.00,0,rob ver 1A,2013-04-22 06:59:00,